ECMWFNIL_850_thetae_000.txt.gz
Theta_e
314 313 313 313 313 313 313 312 310 310 309 308 308 307 307 307 307 306 306 306 306 305 305 305 305 306 305 305 305 304 303 302 301 301 300 300 300 301 303 306 310 314
314 313 313 313 313 313 313 312 311 310 309 308 308 307 306 306 306 306 306 306 306 305 305 305 305 305 306 306 306 305 305 303 302 301 301 300 299 300 300 302 305 308
315 314 313 313 312 313 313 312 311 310 309 308 308 307 306 306 306 306 306 306 305 305 304 305 305 305 305 305 305 305 305 304 303 302 302 302 301 301 300 301 303 304
314 314 313 313 312 312 313 312 311 310 309 309 309 307 306 305 306 306 306 305 305 304 304 304 304 304 304 304 305 304 304 304 304 303 302 302 303 303 302 302 302 303
312 313 314 312 311 311 311 311 310 310 309 309 309 307 305 305 305 306 305 305 304 304 304 304 304 304 303 303 303 303 304 303 303 303 303 302 302 303 304 304 303 303
312 314 314 311 311 310 310 310 310 309 309 309 309 307 306 305 305 305 305 304 304 304 304 304 303 303 303 303 303 303 303 303 303 303 303 302 302 302 303 305 305 305
311 314 314 311 310 310 310 310 309 309 309 309 309 307 305 305 305 305 304 303 303 304 304 303 303 302 302 302 302 302 302 302 302 302 303 303 302 302 302 303 305 306
311 313 313 311 310 310 309 309 309 309 309 308 308 306 305 305 305 304 303 303 303 303 303 303 302 302 302 302 302 302 302 302 302 302 302 302 302 302 302 302 302 303
311 314 313 311 310 310 310 309 309 309 308 308 306 305 305 305 304 303 302 302 303 303 302 302 302 301 301 301 301 302 302 302 302 302 302 302 302 302 302 303 303 302
312 315 314 311 310 310 310 309 309 308 308 307 306 305 305 304 303 302 302 302 303 303 302 302 302 301 301 301 301 301 301 302 302 302 301 301 302 302 303 303 303 303
313 315 314 311 310 311 310 309 308 308 307 307 306 305 305 303 303 302 303 303 303 303 303 303 302 302 301 301 300 301 301 301 302 302 301 301 301 301 302 302 302 302
315 316 313 311 310 310 309 309 308 307 307 307 306 305 304 303 303 303 303 304 304 304 303 303 302 301 301 300 300 300 301 301 301 301 301 301 301 301 301 301 301 301
316 316 313 311 311 310 309 308 308 307 307 307 305 304 303 303 303 303 304 304 304 304 303 302 302 301 300 300 299 300 300 300 301 300 300 300 300 301 301 301 301 301
318 316 313 311 311 310 309 309 308 307 307 306 305 304 303 303 303 304 304 304 303 303 302 301 301 300 300 299 299 298 298 299 299 299 299 299 300 300 300 300 301 301
319 316 313 312 311 310 310 309 308 307 306 305 304 304 303 303 303 304 304 303 302 301 301 301 300 300 300 299 299 298 297 297 297 298 299 299 299 298 298 299 299 299
318 317 314 313 312 311 310 309 308 307 306 304 304 303 303 303 303 303 303 302 301 301 301 301 301 300 300 299 299 298 296 296 296 298 298 298 298 298 298 297 297 297
315 315 314 314 312 311 311 310 308 306 304 303 303 303 303 304 303 302 302 301 301 301 301 301 300 300 299 299 299 298 297 296 297 298 298 298 298 298 297 297 297 297
312 313 314 314 312 311 311 310 307 305 303 304 304 304 304 304 302 302 301 301 301 301 301 300 300 299 299 299 298 298 297 297 297 298 298 298 297 297 297 297 297 297
313 313 314 313 312 312 311 308 305 304 304 305 306 305 305 303 302 302 302 301 301 300 300 299 298 298 298 297 297 296 296 297 297 298 298 297 297 297 296 296 296 296
313 314 314 313 313 312 309 307 305 305 306 306 306 305 304 304 303 302 302 301 300 299 298 297 296 296 296 295 295 295 296 296 297 297 297 297 297 296 296 296 296 295
315 314 313 312 313 311 308 306 306 306 306 306 306 305 305 304 303 302 301 300 298 297 295 295 295 295 295 295 295 296 296 296 296 296 296 296 296 296 295 295 295 295
315 314 312 312 311 309 307 306 306 306 307 306 306 306 305 303 302 301 299 297 295 294 294 294 295 296 296 296 296 296 296 296 296 295 295 295 295 295 295 295 295 295
314 312 312 311 310 307 306 306 307 307 307 306 306 305 303 302 300 298 296 294 293 293 293 293 294 295 295 296 296 296 296 295 295 294 294 294 294 294 294 294 294 294
312 311 311 310 308 306 306 306 307 307 306 306 305 303 301 299 297 296 295 294 294 294 293 292 292 293 294 294 295 295 295 294 294 294 293 293 293 293 294 294 294 294
311 310 310 308 306 305 306 306 306 306 305 304 302 299 298 297 297 297 296 296 295 295 294 293 292 292 293 294 294 294 294 294 293 293 293 293 293 293 293 293 293 293
310 310 308 306 305 305 306 306 305 303 301 300 299 298 298 298 298 298 297 296 296 295 294 293 292 291 292 293 294 294 293 293 293 293 293 292 292 292 292 292 292 292

ECMWFNIL_850_thetae_003.txt.gz
Theta_e
313 312 312 312 311 311 312 312 312 312 310 310 309 308 308 307 307 307 306 306 305 305 305 305 305 305 305 305 305 305 305 305 304 303 302 301 301 301 301 301 301 302
313 313 313 313 312 311 312 312 312 312 311 310 309 309 308 307 307 306 306 306 306 305 305 304 305 305 305 305 305 305 304 304 304 304 303 302 301 301 301 300 300 300
314 314 314 313 312 311 312 311 312 312 311 310 310 309 308 308 307 306 306 306 306 305 304 304 304 305 305 305 305 305 304 304 304 304 303 303 302 302 301 301 301 300
315 315 314 313 312 311 312 312 312 312 311 310 310 309 309 308 307 306 306 306 306 305 304 304 304 304 304 304 304 304 304 303 303 303 303 303 302 302 302 302 302 302
315 315 315 314 314 312 312 311 311 311 311 311 310 309 309 308 307 306 306 306 305 304 304 303 304 304 304 304 304 303 304 303 303 303 303 303 303 303 302 302 302 303
316 316 316 316 315 313 312 311 311 312 312 311 310 309 309 309 307 306 305 305 305 304 303 303 303 303 304 303 303 303 303 303 303 303 303 303 303 303 303 303 302 302
316 316 317 317 317 314 312 311 311 311 312 311 310 309 309 309 308 306 305 305 305 304 303 303 303 303 303 303 303 303 302 302 302 302 302 302 303 303 303 303 303 303
316 316 317 318 318 315 313 312 311 311 311 311 310 309 309 310 308 305 305 305 304 303 303 303 302 302 302 302 302 302 301 301 301 301 301 301 302 302 302 302 303 303
317 317 317 318 318 317 315 313 311 311 311 311 310 309 310 310 307 305 305 305 304 303 302 302 302 303 303 302 302 301 301 300 300 300 300 301 301 301 302 302 302 302
318 318 317 318 319 318 316 314 312 311 311 311 310 310 311 309 306 304 304 304 303 303 302 303 303 303 303 303 303 301 300 300 300 300 300 300 300 301 301 300 300 301
319 319 319 319 319 318 317 315 313 312 312 311 310 311 311 308 305 304 304 304 303 302 303 303 304 304 304 304 303 301 300 299 299 299 299 299 299 300 300 300 299 299
320 320 320 320 319 319 318 316 313 312 312 311 311 311 309 306 305 305 304 303 302 303 303 304 305 305 304 303 302 300 300 299 299 298 298 297 297 298 299 299 299 299
319 318 318 320 320 319 318 316 313 312 312 311 311 309 307 306 305 304 303 303 303 303 304 305 305 304 303 301 300 300 299 299 298 298 297 297 296 296 297 298 298 299
319 318 317 318 319 320 319 315 312 312 312 311 309 308 306 306 305 304 303 303 303 304 304 305 304 302 301 300 300 300 299 299 298 298 298 297 296 295 296 297 298 299
319 319 318 316 318 320 318 314 312 312 311 310 308 307 306 305 304 304 303 303 304 304 304 303 302 301 300 300 300 300 299 299 298 298 298 297 296 295 296 297 298 298
319 319 319 317 319 320 317 313 311 311 310 309 308 306 305 304 303 303 303 303 303 303 303 302 301 300 300 300 300 299 299 298 298 297 297 296 296 295 296 297 298 298
321 320 318 318 320 319 315 312 311 310 309 308 306 305 304 303 303 303 303 303 302 302 301 301 300 300 300 300 299 298 298 297 296 296 296 295 295 295 295 297 298 298
321 320 317 318 319 316 313 312 310 309 308 306 304 303 303 303 303 303 303 303 302 302 301 301 301 300 299 298 297 296 295 295 295 295 295 295 295 295 296 297 298 298
320 320 318 318 316 312 312 311 310 310 308 304 303 303 303 304 304 304 304 303 302 302 301 301 299 298 296 295 295 295 295 296 296 296 296 296 296 297 298 298 299 299
320 320 319 317 314 312 312 311 310 309 306 304 304 304 305 305 305 304 304 303 302 301 300 298 296 294 294 294 294 294 294 295 295 296 296 296 297 297 297 298 298 298
319 319 318 316 314 312 311 311 310 308 305 304 305 306 306 306 305 305 304 303 301 299 297 295 293 293 293 293 293 293 293 294 294 295 295 296 296 296 297 297 297 297
319 318 317 315 313 311 311 311 309 305 304 305 306 306 306 306 305 305 303 301 298 296 295 294 294 293 293 292 292 293 293 293 294 294 295 295 296 296 296 296 296 296
318 318 316 314 312 312 312 310 306 304 305 306 306 306 306 306 304 302 300 298 296 296 296 295 295 293 292 292 292 293 293 293 293 293 294 295 295 296 296 296 296 295
316 316 315 313 312 312 310 307 304 305 306 306 307 307 306 303 300 298 297 297 297 297 297 296 295 293 292 292 292 293 293 292 292 292 293 294 295 295 295 295 295 295
315 315 314 313 312 311 308 305 304 305 306 306 306 305 302 299 298 297 298 298 297 297 297 296 294 293 292 293 293 293 293 292 291 292 293 294 294 294 295 295 295 294
314 314 313 312 311 308 306 304 305 306 307 305 303 301 299 298 298 298 298 298 298 298 297 295 293 292 293 293 293 293 293 292 291 292 293 293 294 294 294 294 294 294

ECMWFNIL_850_thetae_006.txt.gz
Theta_e
311 311 311 311 311 310 310 310 310 310 311 310 310 309 308 307 307 306 306 306 305 305 305 304 305 305 305 305 304 304 304 304 304 304 304 303 303 302 302 301 301 301
311 311 311 311 311 311 310 310 310 310 311 311 310 309 308 308 307 306 306 306 305 305 305 304 304 304 305 304 304 304 304 304 303 303 303 303 302 302 302 302 302 301
312 312 312 312 313 312 311 310 310 310 311 312 311 310 309 309 308 307 307 306 306 305 305 304 304 304 304 304 304 304 304 303 303 303 303 302 302 302 302 302 302 302
313 313 313 313 313 313 312 311 310 310 310 311 311 311 310 309 308 308 307 306 306 305 305 304 304 303 304 304 304 304 304 303 303 303 303 302 302 302 302 302 302 302
315 315 314 314 314 314 314 312 310 310 310 311 312 311 310 309 308 308 307 306 306 306 305 305 304 303 303 303 303 304 304 303 303 303 303 303 302 302 302 302 302 302
317 316 316 315 316 316 315 313 311 310 310 311 312 312 311 310 309 308 308 307 306 306 305 305 304 303 303 303 303 304 303 303 303 302 303 302 302 302 302 302 302 302
318 318 317 317 317 317 317 316 313 311 311 312 312 312 311 310 309 308 308 307 306 305 305 305 304 303 303 303 303 304 303 303 303 303 302 302 301 301 301 302 301 301
319 319 318 318 318 318 318 318 315 313 312 312 312 312 312 311 309 309 309 307 306 305 305 305 304 303 302 303 303 304 304 303 303 303 303 302 301 301 301 301 301 301
319 319 319 319 319 319 319 319 317 315 313 312 313 313 312 311 310 309 309 308 306 305 305 305 304 303 302 302 303 304 304 303 303 303 303 303 302 302 301 301 300 300
318 318 319 319 319 319 319 319 319 316 314 314 313 313 313 312 310 309 309 309 306 305 305 305 304 302 302 302 303 304 304 303 303 303 303 302 301 301 300 300 300 300
319 317 317 318 319 319 319 319 319 318 316 314 313 313 313 311 310 310 310 309 307 305 304 304 303 302 302 302 303 303 303 303 303 303 302 301 299 299 299 299 299 298
321 319 317 318 318 319 319 319 319 318 317 315 314 313 312 311 310 310 310 309 306 305 304 304 303 302 302 303 303 303 303 303 302 301 300 299 299 298 298 298 298 297
322 321 321 320 319 319 319 319 319 319 318 316 314 312 311 310 310 310 310 308 306 305 304 303 302 302 302 303 303 303 302 302 301 300 299 299 299 298 298 297 296 296
322 322 321 321 320 320 319 318 318 318 318 317 315 312 311 310 310 310 309 307 305 304 304 303 303 303 303 303 303 302 301 300 300 299 299 298 297 297 296 296 295 295
321 321 321 321 320 320 319 318 317 318 318 317 315 312 310 310 310 310 308 306 305 304 303 303 303 303 303 302 301 300 300 300 299 298 297 296 296 296 295 296 295 295
320 320 321 321 320 320 319 318 316 317 317 316 314 312 311 311 310 308 307 305 305 304 303 303 303 303 302 301 301 300 299 298 296 295 295 295 295 296 296 296 297 297
318 319 320 321 320 320 320 318 317 317 316 315 313 311 311 310 308 307 306 305 304 303 303 303 303 302 302 301 300 298 296 295 294 294 294 295 295 295 296 296 297 297
315 318 319 320 320 320 320 318 317 316 315 313 312 311 310 309 307 306 305 304 303 303 303 303 302 301 301 299 297 295 294 293 293 294 294 294 294 294 295 295 296 296
313 316 318 319 320 320 320 318 317 316 314 313 312 310 309 308 307 305 303 303 303 303 303 302 301 300 298 295 294 293 293 293 293 293 293 293 293 294 294 294 295 296
312 315 317 318 319 319 319 318 316 315 313 312 311 309 308 307 305 303 303 303 303 303 303 302 299 297 295 294 293 293 293 292 292 293 293 293 293 293 293 294 294 295
311 315 317 318 318 318 318 317 315 313 312 311 309 308 306 305 303 303 303 304 304 303 302 300 297 295 294 294 293 292 292 292 292 293 293 293 293 293 293 294 294 295
310 314 316 317 318 318 317 316 314 312 311 310 308 306 304 303 303 304 304 305 305 303 300 297 295 295 294 293 292 292 292 292 293 293 293 292 292 292 293 293 294 294
309 314 316 317 317 317 317 315 314 312 311 309 306 304 303 303 305 305 306 306 304 301 297 295 295 295 294 293 292 292 293 293 293 293 292 292 292 292 293 293 294 294
309 313 316 316 316 317 316 314 313 311 310 307 305 304 305 305 306 306 305 304 301 298 296 296 296 296 294 292 292 293 293 293 293 292 292 291 291 292 293 293 294 294
307 312 314 315 316 316 314 312 312 310 308 306 305 305 305 305 305 303 302 300 298 297 297 296 297 296 295 293 293 293 293 293 293 292 292 291 291 292 292 293 293 294
307 311 314 314 315 315 313 312 310 307 305 304 304 304 305 304 302 300 299 298 297 297 297 297 297 296 294 293 293 293 293 293 292 292 291 290 291 291 292 292 293 293

ECMWFNIL_850_thetae_009.txt.gz
Theta_e
310 309 309 309 310 310 310 310 310 311 311 310 309 308 308 307 307 306 306 306 306 305 305 305 305 305 305 305 305 305 305 304 304 304 304 304 303 303 303 303 302 302
311 310 309 309 309 310 311 311 311 311 311 311 310 310 309 308 307 307 306 306 306 305 305 305 305 305 305 305 305 304 304 304 304 304 304 303 303 303 303 303 302 303
311 310 310 309 309 310 311 311 311 311 311 311 311 311 310 309 308 307 307 306 306 306 305 305 305 305 305 305 305 304 304 304 304 304 304 304 303 303 303 302 302 302
313 311 311 310 310 311 311 312 312 311 311 312 312 312 311 310 309 308 307 306 306 306 306 305 305 304 304 304 304 304 304 304 304 304 304 304 303 303 303 302 302 302
315 314 312 311 311 311 311 312 312 312 312 312 312 312 312 311 310 309 308 307 306 306 306 305 305 305 304 304 303 304 304 304 304 304 304 304 303 303 303 303 302 302
315 316 315 314 313 312 312 313 313 313 313 312 312 312 312 312 311 310 309 308 307 306 306 305 305 305 304 304 303 303 303 303 304 304 303 303 303 303 303 303 302 302
314 317 318 317 315 315 314 314 314 315 314 313 312 312 312 312 312 311 310 309 308 307 306 306 305 305 305 304 303 303 303 303 303 304 304 304 303 303 303 302 301 301
313 316 318 318 318 317 316 316 316 316 316 315 313 312 313 313 313 312 311 310 309 308 308 307 306 305 305 305 304 303 302 302 303 303 304 303 303 303 303 302 301 300
315 315 317 318 318 318 318 317 317 317 317 317 315 313 313 313 312 312 312 311 310 309 308 308 306 306 305 305 304 303 302 302 302 303 303 303 303 303 302 301 300 300
319 317 317 317 318 319 319 318 318 318 318 318 317 315 313 313 313 312 312 311 310 309 308 308 307 306 305 305 305 304 302 302 302 303 303 303 302 302 301 300 299 299
321 320 319 317 318 318 318 318 318 318 318 318 318 317 315 314 313 313 312 311 310 309 309 309 308 306 306 305 305 304 303 302 302 303 303 303 302 301 300 299 298 298
321 321 321 320 319 318 317 318 318 319 319 319 319 318 316 314 314 313 313 312 310 309 309 309 308 307 306 305 305 305 304 302 302 302 303 303 302 301 299 298 297 297
319 320 321 321 321 320 319 319 319 319 319 319 319 318 316 315 315 314 313 312 311 310 309 309 309 307 306 305 305 304 303 302 302 302 303 302 302 300 298 297 296 296
315 318 320 321 321 321 321 321 321 320 320 319 319 318 316 315 315 314 313 313 312 310 310 310 309 308 306 305 305 304 303 302 302 302 302 302 301 299 298 296 296 296
311 313 316 319 320 320 321 321 321 321 320 320 319 318 317 316 315 313 312 312 311 310 310 310 309 308 306 305 304 303 302 302 302 302 302 300 299 298 296 296 295 295
309 310 312 315 318 320 320 321 321 321 321 320 319 318 317 316 315 313 312 312 311 310 310 310 308 307 305 304 304 303 302 302 302 301 300 298 297 296 295 295 294 294
307 308 309 312 314 317 319 320 320 320 320 320 319 318 317 316 315 312 312 312 311 310 310 309 307 306 305 304 303 302 302 301 300 298 297 295 295 294 294 294 294 294
305 306 307 308 311 314 317 319 319 320 320 319 319 317 316 315 314 312 312 311 311 309 308 307 306 305 304 303 302 302 300 298 296 295 294 294 293 293 293 293 293 293
304 304 305 306 307 310 314 318 319 319 319 319 318 317 316 314 313 312 311 311 310 308 307 306 305 304 303 302 301 299 297 295 294 293 293 293 293 293 293 293 292 293
302 303 304 304 305 307 311 315 317 318 318 318 318 316 315 314 313 312 311 310 309 307 306 305 304 303 302 301 299 296 294 294 293 292 292 292 293 292 292 292 292 292
302 303 303 303 304 305 309 313 315 317 317 317 317 315 314 313 313 312 310 309 308 306 305 304 303 303 301 298 296 294 294 293 293 292 292 292 292 292 292 292 292 292
302 302 303 303 303 304 308 312 314 315 316 317 316 315 313 312 312 310 309 308 306 305 304 304 303 301 298 296 295 295 294 293 292 292 292 292 292 291 291 291 292 292
301 302 302 303 303 304 307 311 313 315 316 316 315 314 312 311 311 309 308 306 305 304 304 304 302 299 296 296 296 295 294 293 292 292 292 292 291 291 291 292 292 293
300 301 302 303 303 303 306 310 313 315 316 315 314 313 312 311 310 308 306 305 305 305 305 302 299 297 296 296 295 294 294 293 293 292 292 291 291 291 291 292 292 293
300 301 302 303 303 303 304 309 312 314 315 314 313 311 310 309 307 306 305 305 305 304 302 299 297 296 295 295 295 294 294 293 293 292 292 291 291 291 291 292 292 293
300 300 301 303 304 303 305 309 313 314 314 313 311 310 309 307 305 305 305 305 303 301 299 297 296 295 295 295 295 295 294 293 292 292 292 291 291 291 291 291 291 292

ECMWFNIL_850_thetae_012.txt.gz
Theta_e
309 309 309 309 309 310 309 310 311 310 311 313 315 313 310 307 307 307 306 306 306 306 305 305 305 306 305 305 305 305 305 305 305 305 304 304 304 304 303 303 303 303
310 309 309 309 309 310 310 310 310 310 311 312 314 314 310 308 307 307 307 306 306 306 306 305 305 305 305 305 305 304 304 304 304 304 304 304 303 303 303 303 303 302
311 310 309 309 309 309 309 310 311 311 311 311 312 312 311 309 308 307 307 307 307 307 306 306 305 305 305 305 304 304 304 304 304 304 304 304 303 303 303 303 302 302
311 311 310 310 310 309 309 310 310 311 311 311 311 311 311 311 309 308 308 307 307 307 307 306 306 305 305 305 305 304 304 304 304 304 304 304 304 303 303 303 302 301
312 311 312 311 310 310 310 310 310 311 311 312 311 311 311 312 311 310 309 308 308 307 307 307 306 306 306 305 305 304 304 304 304 304 304 304 304 304 303 303 303 302
312 312 312 312 311 311 311 310 310 311 311 312 312 312 311 311 312 311 310 309 308 308 307 307 307 306 306 306 305 305 304 304 304 304 303 304 304 304 304 303 303 302
311 312 313 313 312 312 312 311 311 311 311 312 312 312 312 312 312 312 311 311 309 309 308 307 307 307 306 306 305 305 305 304 303 303 303 303 303 304 304 304 303 302
310 310 311 312 313 313 313 313 313 312 312 312 313 313 313 312 312 312 312 312 311 310 309 308 308 307 307 306 306 306 305 305 304 303 303 303 303 303 303 303 303 303
314 312 311 310 311 313 314 315 316 315 314 313 314 314 315 314 313 312 312 312 312 311 310 309 309 308 307 306 306 306 305 305 305 304 303 302 302 303 303 303 303 303
318 318 316 313 311 311 311 313 315 317 316 316 315 315 315 315 315 314 313 313 312 312 311 311 310 309 308 308 307 306 305 305 305 305 303 303 302 303 303 303 303 303
320 320 320 319 317 315 313 312 312 313 315 316 316 316 316 316 316 315 314 313 313 313 312 312 311 310 310 308 307 306 306 305 305 304 304 303 302 302 303 303 303 302
321 321 321 321 321 320 319 318 316 314 313 314 315 316 317 317 316 316 315 313 313 313 313 312 312 311 310 309 308 307 306 305 305 304 304 303 302 302 302 302 302 301
317 320 321 322 323 323 322 322 321 320 318 317 316 316 316 317 317 317 316 315 313 313 313 313 312 311 311 310 309 308 307 306 305 304 304 303 303 302 302 302 301 300
311 312 314 318 320 322 323 323 322 321 321 320 319 319 318 318 318 318 317 316 314 313 313 313 312 311 311 310 309 308 307 306 305 305 304 303 302 302 301 300 300 298
306 307 308 310 313 316 319 322 322 322 321 320 320 320 320 320 319 319 318 317 316 314 313 312 312 311 311 310 309 308 307 306 306 305 304 303 302 301 300 299 298 297
305 305 305 306 306 308 311 316 319 321 321 320 320 320 320 320 320 319 318 316 316 315 313 312 312 312 311 311 310 308 307 306 305 305 304 303 302 300 299 298 298 296
304 304 304 305 305 306 306 307 311 317 320 320 320 319 319 320 320 319 318 316 315 314 314 313 312 312 312 311 310 308 306 306 305 304 303 301 300 299 298 297 297 296
303 303 304 304 305 305 305 304 305 312 317 319 319 319 319 320 319 318 316 315 314 313 313 313 313 312 312 311 309 307 306 305 304 303 301 299 298 297 296 296 296 295
302 302 303 303 304 304 304 305 306 309 314 317 318 319 318 319 319 318 316 315 314 313 312 313 312 312 311 310 308 307 306 305 303 301 299 297 296 296 295 295 294 293
301 302 302 302 303 303 303 305 307 310 312 315 317 317 317 318 318 317 316 315 314 313 312 312 312 311 310 309 307 306 305 304 301 299 297 295 294 294 294 294 293 292
300 301 301 301 301 302 302 303 306 307 309 313 315 314 316 317 317 316 316 315 314 313 312 312 311 310 309 307 306 305 304 302 299 296 295 295 294 294 293 293 292 292
300 300 300 301 301 302 302 301 303 303 306 312 314 312 314 317 317 317 316 314 313 312 312 311 310 309 307 306 305 303 301 299 297 296 295 295 294 294 293 293 292 292
299 299 300 300 300 302 303 303 302 301 304 310 312 312 314 316 316 316 315 314 313 312 311 310 308 307 305 304 303 301 298 297 296 296 296 296 295 295 294 294 293 293
299 298 299 299 300 302 303 303 302 302 306 311 310 311 314 315 314 314 314 313 312 311 309 308 306 305 304 302 300 298 296 296 296 296 297 297 296 296 296 295 294 294
299 299 299 299 299 301 302 302 302 302 308 311 310 310 313 314 313 313 312 311 310 309 307 305 304 303 301 299 297 296 296 296 296 296 296 296 296 296 296 296 295 295
299 300 300 299 299 300 301 302 302 305 310 311 310 311 313 314 313 312 311 310 308 306 305 303 301 299 298 297 296 296 296 296 295 295 295 296 296 296 296 295 295 295

ECMWFNIL_850_thetae_015.txt.gz
Theta_e
320 318 315 312 315 318 317 317 320 319 318 319 320 319 316 311 308 309 309 307 307 307 306 306 306 306 306 306 306 307 306 306 306 305 306 306 305 305 304 304 304 305
321 321 320 317 316 318 318 316 318 319 318 318 319 320 318 313 309 309 309 307 307 307 307 307 306 305 306 306 305 306 306 305 306 305 305 305 305 305 304 304 303 302
320 322 322 321 318 318 319 316 316 318 318 319 319 320 319 313 309 310 309 308 308 308 307 307 307 306 306 306 305 305 305 305 305 305 305 305 305 305 304 304 304 302
316 318 320 322 321 320 321 318 315 315 317 319 319 320 319 313 311 311 310 309 308 308 308 307 307 307 306 306 306 306 305 305 305 304 305 305 304 305 305 304 304 303
312 312 314 318 321 321 323 322 318 315 316 318 318 319 319 314 311 312 311 310 310 308 309 308 308 308 307 306 306 306 306 305 305 305 304 304 304 304 304 304 304 304
311 314 315 318 321 321 323 323 321 318 317 317 317 317 317 315 312 312 312 311 311 310 309 309 308 308 307 307 307 307 307 307 306 304 304 305 304 304 304 304 304 304
311 316 316 318 321 322 323 323 322 320 319 318 318 317 316 314 312 313 313 312 312 312 311 310 309 309 308 308 308 308 308 309 307 305 306 307 305 304 304 304 304 305
315 316 313 315 321 322 323 322 320 321 322 320 319 319 317 315 313 313 314 314 314 314 314 313 311 311 310 308 308 309 308 308 307 306 307 307 305 303 304 304 303 304
320 319 316 317 320 321 322 321 317 318 322 321 320 320 319 318 315 314 314 315 315 316 315 315 314 313 312 310 310 310 308 308 307 306 306 306 305 304 306 306 304 303
322 322 322 321 320 320 321 322 319 316 317 319 321 321 320 320 318 317 317 317 317 317 317 316 315 315 314 313 311 311 310 309 308 307 306 306 305 305 306 305 304 303
323 322 322 321 320 319 319 320 320 318 316 318 321 321 319 320 320 319 318 319 318 318 318 318 317 316 315 314 313 312 311 310 309 308 307 306 306 305 305 304 303 303
323 322 322 322 320 320 319 318 318 320 320 319 320 320 319 318 320 320 319 319 319 319 319 319 318 317 316 315 314 313 312 311 310 309 308 307 306 306 305 305 304 303
317 318 318 319 320 321 322 321 321 322 322 322 321 320 320 319 319 320 320 319 319 319 319 319 318 318 317 315 314 313 312 311 310 309 308 307 307 306 305 305 304 303
311 312 313 313 315 317 318 321 323 323 322 321 321 321 321 320 320 320 320 320 319 319 319 319 319 318 317 316 314 314 313 312 311 310 308 308 307 306 305 305 304 303
308 308 310 309 308 309 311 313 317 319 320 320 320 320 320 320 320 321 321 321 320 320 319 319 318 318 318 316 314 313 313 312 311 310 309 308 307 306 305 305 304 303
307 307 308 308 308 309 311 310 310 315 319 321 321 321 321 321 321 321 321 321 320 320 319 319 318 318 317 316 314 313 313 312 311 310 309 307 306 305 305 304 304 303
308 308 309 310 310 312 315 315 315 317 319 320 320 320 319 320 321 321 321 320 320 319 319 319 318 317 317 315 314 313 312 311 311 310 309 307 306 305 304 304 303 302
307 307 308 309 310 311 313 315 317 318 318 318 318 318 317 317 320 321 320 319 319 319 318 318 317 316 316 315 314 313 312 311 310 309 308 307 306 305 304 303 302 301
306 307 307 307 308 309 311 313 315 316 317 317 317 318 317 315 316 319 319 319 319 318 318 317 316 315 315 314 314 313 312 311 309 307 307 306 305 304 304 303 301 299
306 306 307 308 308 308 308 310 312 314 316 316 316 317 317 315 313 314 316 318 319 318 317 316 315 315 315 314 313 312 312 311 307 305 305 305 304 303 303 301 300 299
307 307 307 307 307 308 308 308 310 312 314 315 316 315 316 316 314 313 314 316 317 317 316 316 315 315 314 313 312 311 311 310 307 305 305 305 303 302 301 299 298 298
308 308 308 307 307 307 308 308 309 311 313 314 315 315 315 315 314 314 315 316 317 316 315 315 315 315 314 312 311 311 309 308 306 306 305 303 302 300 299 299 298 298
308 308 307 307 307 307 307 308 308 309 311 313 314 314 314 314 314 314 314 315 316 315 315 315 314 313 312 310 310 309 308 306 305 304 303 301 300 300 300 300 300 300
308 307 307 307 307 307 306 307 308 308 310 313 313 313 313 313 313 313 313 314 315 314 314 314 313 311 310 309 308 308 306 304 302 302 301 301 301 301 300 300 300 300
307 307 307 306 306 306 305 307 308 308 310 312 312 312 313 312 312 313 313 313 314 313 313 313 312 310 308 307 306 305 304 302 300 300 300 300 300 300 300 300 300 300
307 307 308 307 306 305 305 306 308 309 310 312 312 312 312 312 312 312 312 312 312 313 312 311 309 308 307 305 303 302 301 300 299 299 298 299 299 299 299 299 299 298

ECMWFNIL_850_thetae_018.txt.gz
Theta_e
315 317 313 314 318 315 312 316 318 315 316 318 315 311 310 308 308 308 308 308 308 307 307 306 306 306 306 306 308 307 306 306 306 305 306 305 305 305 305 305 304 306
313 315 312 312 318 319 316 318 320 317 316 319 317 313 311 309 309 309 308 308 308 308 307 307 307 306 307 306 306 306 306 306 306 305 305 305 305 305 304 304 304 304
313 315 314 311 315 320 319 318 320 319 316 318 319 316 311 309 309 309 309 309 308 308 308 307 307 307 307 306 306 306 306 306 306 305 305 305 305 305 304 304 304 303
316 318 318 316 316 318 319 318 319 320 318 318 319 319 314 310 310 310 309 309 309 309 308 308 308 307 307 307 306 306 306 306 306 305 305 305 304 305 305 304 304 304
318 321 321 321 320 319 319 320 320 319 319 318 319 320 317 313 310 310 310 310 309 309 309 309 309 308 308 308 307 307 307 307 306 306 306 306 305 305 305 305 305 304
320 322 323 324 323 321 320 321 321 320 320 319 319 320 319 317 314 312 311 311 311 310 310 309 309 309 309 308 308 308 307 307 307 306 306 306 306 305 305 305 305 305
324 324 324 324 324 323 322 322 322 321 320 320 319 319 319 319 318 317 314 313 312 312 311 311 310 309 309 309 309 308 308 308 308 307 307 307 306 306 305 305 305 305
324 324 323 323 323 322 322 322 322 321 319 319 319 318 319 319 320 320 319 316 315 314 313 313 312 311 311 310 309 309 309 309 309 308 307 308 307 306 306 306 305 305
323 322 322 323 323 323 322 322 323 321 319 319 319 317 318 319 320 321 320 319 318 317 316 316 315 314 314 312 311 311 310 310 309 309 308 308 308 307 307 307 307 306
322 321 321 322 322 321 320 321 321 322 321 322 321 319 319 319 320 321 321 320 320 319 318 318 317 317 316 315 314 313 312 312 311 310 309 309 308 307 307 308 307 306
321 320 320 321 321 320 320 319 320 321 322 322 321 320 319 319 319 319 320 320 320 320 319 319 319 318 317 317 316 315 314 314 313 311 310 310 309 308 308 307 307 307
321 320 320 321 322 322 321 320 318 318 320 321 320 319 318 318 317 317 319 320 319 319 320 320 319 319 318 317 317 316 315 315 314 313 312 311 310 309 308 308 307 307
320 319 318 318 318 319 320 319 318 317 319 319 317 317 317 318 318 317 318 319 319 319 319 319 320 319 319 318 318 317 315 315 315 314 312 312 311 310 309 309 308 308
315 314 314 312 312 315 319 320 320 319 318 318 317 317 317 317 316 317 318 318 318 319 319 319 319 319 319 318 318 317 316 315 315 314 313 312 311 310 310 309 309 308
308 307 309 309 308 310 313 315 315 313 313 315 316 316 315 314 313 315 318 320 319 318 318 318 318 318 318 318 318 318 317 316 315 314 313 312 311 311 310 310 309 308
307 307 307 308 308 309 310 310 312 313 314 315 315 315 315 316 317 318 320 320 320 319 318 318 318 317 317 318 319 319 317 316 315 314 313 312 311 311 310 309 309 308
308 309 310 310 310 311 312 312 314 316 317 318 317 316 317 319 319 320 320 320 320 320 319 317 317 317 317 318 319 319 317 316 316 314 313 312 311 310 310 309 308 307
307 307 308 309 309 309 310 311 313 314 316 317 317 317 317 318 318 318 317 319 320 320 319 318 318 318 318 318 319 318 317 316 316 314 313 311 311 310 309 308 307 307
307 307 307 307 308 308 309 309 310 312 314 315 316 317 317 317 318 318 317 318 319 320 320 319 319 319 319 319 318 318 318 316 315 314 313 311 310 309 308 307 307 306
307 307 307 307 308 308 308 308 309 309 310 312 314 316 316 316 317 317 316 315 316 319 320 319 318 318 318 318 318 318 318 316 315 313 312 310 309 308 307 307 306 305
308 308 308 308 308 307 307 308 308 308 309 309 312 314 315 316 315 316 316 313 312 316 318 318 318 318 318 318 318 317 317 316 314 312 310 309 308 307 307 306 306 304
307 308 309 309 308 307 307 307 307 308 308 308 310 312 314 315 315 315 316 315 312 313 315 317 318 318 317 317 317 316 315 314 313 312 309 308 307 306 306 305 304 302
307 308 309 308 308 308 307 307 306 306 307 307 309 310 312 314 314 314 315 315 314 314 315 316 316 317 317 317 316 316 315 314 313 312 309 308 307 306 304 303 302 302
307 308 308 308 308 307 307 306 304 303 304 306 307 309 311 312 313 314 314 314 314 314 315 315 316 316 316 316 315 315 315 313 312 311 308 306 305 304 303 302 302 302
306 307 308 308 307 307 307 306 304 302 302 304 306 308 310 312 312 313 313 313 313 313 313 314 315 315 315 315 314 314 313 313 311 308 305 303 303 302 302 301 301 301
306 306 307 307 308 308 308 307 306 303 301 302 305 308 310 311 312 312 312 312 312 312 312 313 314 314 314 313 313 313 312 311 308 305 302 302 302 302 301 301 300 300

ECMWFNIL_850_thetae_021.txt.gz
Theta_e
317 314 310 309 309 309 309 309 309 309 309 309 309 308 308 308 308 307 307 307 307 306 306 306 306 306 306 306 306 306 306 306 306 305 306 306 306 305 305 305 305 305
319 317 311 310 310 309 309 309 309 310 310 310 310 309 309 309 308 308 308 307 307 307 307 306 306 306 306 306 306 306 306 306 305 305 305 305 305 305 305 304 304 305
320 319 313 311 312 312 311 311 312 311 310 310 310 310 310 310 309 309 308 308 308 307 307 307 307 307 306 306 306 306 306 306 305 305 305 305 305 304 304 304 304 304
321 320 316 313 314 316 315 315 316 314 313 312 310 309 310 310 310 309 309 309 309 309 308 308 308 307 307 307 307 307 306 306 306 305 305 305 305 305 304 304 304 304
321 320 318 315 316 319 318 317 317 316 315 314 312 310 310 310 311 311 310 310 310 310 310 309 309 308 308 308 308 307 307 307 306 306 306 305 305 305 305 305 304 304
321 320 319 317 317 319 319 319 319 318 317 316 315 314 314 314 314 313 313 313 312 312 311 311 311 310 309 309 308 308 308 308 307 307 307 306 306 305 305 305 305 305
322 321 322 321 319 319 320 320 320 319 319 318 317 317 317 317 317 317 316 317 317 316 314 313 313 312 312 311 310 309 309 308 308 308 308 307 307 307 306 306 306 306
323 322 323 323 323 322 322 322 322 321 320 319 319 319 319 319 318 318 318 319 319 319 318 317 316 315 315 314 313 312 311 310 309 309 309 308 308 307 307 307 306 307
324 324 323 324 324 323 322 322 322 322 321 320 320 319 319 319 318 318 319 320 320 320 320 319 318 318 317 317 316 315 314 313 312 311 310 309 309 308 308 307 307 307
324 324 324 323 322 322 323 323 322 322 322 322 321 320 319 319 318 319 319 320 320 321 321 320 319 319 318 318 318 317 317 316 315 313 312 311 310 309 308 308 308 308
322 322 322 320 319 318 320 321 321 321 321 322 321 320 319 319 319 318 319 319 319 320 320 320 320 319 319 319 319 318 318 317 316 315 314 313 312 311 309 309 308 308
320 321 321 319 317 317 318 319 320 319 318 319 319 318 318 318 318 317 318 318 318 319 320 320 320 320 319 319 319 319 318 318 317 317 316 315 314 312 311 310 309 308
318 320 321 320 318 318 318 318 318 317 317 317 317 317 317 316 317 316 316 316 316 317 318 319 320 319 319 319 319 318 318 318 318 317 316 316 315 314 313 311 311 309
320 321 322 321 320 319 318 317 316 317 318 319 319 318 317 317 317 317 317 317 317 317 317 318 319 319 319 319 319 318 318 318 318 317 317 316 315 315 314 313 312 311
318 318 317 316 315 314 312 312 312 314 317 318 318 317 316 315 315 315 316 316 316 316 316 317 318 318 319 319 319 318 317 318 318 317 317 317 316 315 314 314 314 313
309 309 308 308 308 308 308 309 310 312 313 315 314 314 314 314 315 316 317 317 317 316 316 316 318 319 319 319 319 318 317 318 318 318 317 316 316 315 315 314 314 313
307 307 307 308 308 309 310 311 312 313 315 316 317 317 316 317 317 318 318 317 317 318 318 318 318 319 319 319 319 318 318 318 318 318 317 316 316 315 315 315 314 313
306 308 308 308 308 309 309 310 311 312 314 315 316 317 317 317 317 317 317 317 317 317 318 317 317 318 319 319 319 318 317 317 317 318 318 317 316 316 315 315 314 313
306 307 306 307 307 308 308 309 309 310 311 313 314 315 316 316 317 317 317 317 315 314 315 315 316 317 319 319 319 318 317 317 317 318 319 318 316 316 315 314 313 311
306 306 307 307 307 307 308 308 308 308 309 309 311 313 314 316 316 316 316 316 314 312 313 313 314 315 316 317 318 318 318 318 318 318 318 317 316 315 314 313 312 311
306 306 306 307 307 307 306 305 305 305 306 307 308 309 311 312 313 314 315 315 315 314 313 312 310 311 311 312 314 316 318 318 318 317 316 315 314 313 312 311 310 309
306 306 307 306 305 305 304 303 303 303 304 304 304 305 307 310 312 313 313 314 314 315 315 313 310 308 308 310 312 315 317 317 317 316 315 313 312 312 312 310 308 308
306 307 308 306 305 304 304 304 303 302 302 301 301 302 304 307 310 312 312 312 313 314 314 314 312 311 311 314 315 316 317 316 316 314 313 312 311 310 310 308 307 306
307 307 307 307 307 306 305 304 303 302 302 301 300 300 301 305 308 310 311 312 312 312 313 313 313 312 313 315 316 316 316 315 314 313 312 311 310 309 307 306 305 305
306 306 307 307 308 306 305 303 303 303 303 302 301 300 300 303 307 309 311 312 312 312 312 312 313 312 313 314 315 315 315 315 313 312 311 309 308 307 306 305 305 306
306 306 306 306 305 305 304 304 304 304 304 304 302 300 299 302 306 309 310 311 311 311 311 312 312 312 312 313 314 314 314 314 314 312 311 309 309 308 307 306 305 304

ECMWFNIL_850_thetae_024.txt.gz
Theta_e
315 316 318 312 307 309 308 308 308 307 307 307 307 307 307 306 306 306 306 306 306 306 306 306 306 306 306 306 306 306 306 305 305 306 305 305 305 305 305 305 306 306
315 317 320 315 309 308 309 308 309 308 308 308 307 308 307 307 307 306 307 306 306 306 306 306 306 306 306 306 306 306 305 305 305 305 305 305 305 305 305 304 304 305
316 318 320 317 312 310 310 310 310 311 311 310 309 308 308 308 308 307 307 307 307 307 307 307 307 306 306 306 306 306 305 305 305 305 305 305 304 304 304 304 304 304
315 317 318 318 316 313 312 312 313 313 314 314 312 310 309 309 309 308 308 308 308 308 308 308 307 307 307 307 307 306 306 306 305 305 305 305 304 304 304 304 303 304
313 316 317 318 318 316 314 314 316 315 315 316 316 314 312 311 310 310 310 310 310 310 310 309 309 309 308 308 308 307 307 307 306 306 305 305 305 305 305 305 304 304
314 316 316 318 319 318 316 316 317 317 316 317 316 315 314 312 312 312 312 312 312 311 311 311 311 311 311 310 310 309 309 308 307 307 307 306 306 305 305 305 305 305
317 317 316 317 319 319 319 318 318 318 317 317 317 316 316 315 315 315 315 315 315 314 313 313 313 313 313 312 312 312 311 310 309 308 308 307 306 306 305 305 305 305
318 317 316 317 319 320 320 320 319 319 319 318 318 317 317 318 318 317 316 316 317 317 317 317 316 315 315 315 315 314 314 313 312 311 311 310 308 307 307 307 306 306
317 318 319 319 319 319 319 319 319 319 319 319 319 318 318 318 319 318 317 316 316 317 318 318 318 318 318 318 317 317 316 316 315 315 314 313 312 311 309 308 308 307
316 319 321 320 320 319 319 320 320 319 320 320 320 319 319 318 318 317 317 317 316 317 318 318 318 318 318 318 318 318 318 318 317 317 316 316 315 315 313 311 310 309
319 319 320 321 321 321 321 320 319 320 321 321 321 320 320 319 318 317 317 317 317 317 318 318 318 318 318 318 318 319 319 319 319 318 318 317 317 317 316 314 313 311
321 319 319 321 320 320 320 320 319 320 321 321 322 321 320 320 319 319 318 318 319 319 320 319 319 318 318 318 318 319 319 319 319 318 318 318 318 318 317 316 316 314
321 320 320 321 320 319 319 319 320 321 322 322 322 322 321 321 320 319 318 318 318 320 320 320 320 320 319 319 319 319 319 319 319 318 318 318 318 318 317 317 317 316
321 321 321 321 320 319 319 319 318 319 321 321 321 321 321 320 319 318 317 317 317 318 318 318 319 319 319 319 319 319 319 319 319 319 318 318 318 317 317 317 317 317
320 320 320 320 319 320 320 320 319 318 318 319 319 319 318 318 317 317 317 317 317 317 317 317 317 317 317 318 318 319 319 319 319 318 318 317 317 317 317 317 317 317
319 319 318 318 318 318 317 317 316 314 313 313 314 314 314 314 313 314 315 315 316 317 317 317 317 316 316 316 317 318 318 319 319 318 318 317 317 317 317 316 316 317
313 312 311 311 311 311 310 310 311 311 311 312 314 314 314 314 314 315 316 317 318 318 317 318 318 317 318 318 318 318 319 319 319 318 318 318 318 317 317 317 317 317
308 308 308 308 308 308 308 310 311 312 313 315 316 317 317 317 317 317 317 317 318 318 317 317 317 317 318 318 319 320 320 320 320 319 319 318 318 317 317 317 317 316
307 308 308 308 308 308 309 309 310 311 312 314 316 316 317 316 316 316 316 316 317 317 316 315 314 314 315 316 318 319 320 320 320 319 319 318 318 317 317 317 316 315
307 307 307 307 307 307 308 308 309 310 310 311 312 313 313 313 314 314 315 315 315 315 315 314 312 310 311 313 315 317 318 319 319 319 318 318 318 318 317 317 315 314
307 306 306 307 307 307 307 308 307 307 307 308 309 309 310 311 312 313 314 313 313 313 314 314 312 310 309 310 311 312 313 314 315 317 318 318 318 318 317 315 314 313
306 306 306 307 307 307 307 307 305 304 303 303 303 304 305 306 307 309 310 311 312 313 313 313 312 309 308 307 307 308 308 309 311 313 315 317 317 316 316 314 313 312
306 306 307 307 307 307 306 305 304 302 301 301 301 300 300 301 302 304 307 309 310 311 311 312 311 309 307 305 305 306 307 308 309 311 314 315 315 315 315 313 312 311
306 306 307 307 307 306 305 304 304 304 303 303 302 301 300 299 300 301 304 307 309 310 311 311 311 310 308 306 306 307 308 309 310 312 314 314 314 314 313 312 311 310
306 307 306 307 306 306 306 306 305 305 304 303 303 303 302 301 300 300 302 304 307 309 310 311 311 310 309 309 308 309 309 310 311 312 313 313 312 312 311 310 310 309
306 306 306 306 306 306 306 306 306 305 304 304 305 304 304 304 302 300 300 301 304 307 309 310 311 311 311 311 311 310 310 311 312 312 312 311 311 311 310 309 308 307

ECMWFNIL_850_thetae_027.txt.gz
Theta_e
312 308 308 309 308 308 307 307 306 307 306 306 306 306 306 306 306 306 306 306 306 306 306 306 306 306 306 306 306 305 305 305 305 305 305 305 305 305 305 305 306 305
311 311 309 308 308 308 307 307 307 307 307 306 306 306 306 306 306 306 306 305 306 305 306 306 306 306 305 305 305 305 305 305 305 305 305 304 304 304 304 304 304 304
313 315 311 308 309 309 308 308 307 307 307 307 307 306 306 306 306 306 306 306 306 306 306 306 306 306 306 305 305 305 305 305 305 304 304 304 304 303 303 303 303 303
315 315 312 310 311 310 308 308 308 307 307 307 307 307 307 306 306 306 306 307 307 307 307 307 307 307 307 307 306 306 306 306 306 306 306 305 305 305 304 304 304 304
315 315 314 312 310 310 309 309 309 309 308 309 308 307 307 307 307 307 307 307 307 308 308 308 308 308 308 308 307 307 307 307 307 308 307 307 306 307 307 306 306 306
313 315 316 313 310 311 311 311 311 311 311 312 312 310 309 309 309 308 308 308 308 309 309 309 309 309 309 309 308 308 308 308 308 308 308 308 307 307 307 307 307 306
313 317 317 313 312 312 311 311 313 314 314 315 316 315 314 313 312 312 312 312 312 311 311 311 311 311 311 310 310 310 309 308 308 308 308 308 308 307 307 307 306 306
314 319 319 315 314 312 310 311 315 317 316 317 317 317 316 315 315 316 316 315 316 315 314 314 313 313 312 312 312 313 312 311 310 309 309 308 308 307 307 307 307 306
317 320 319 317 316 315 311 311 316 319 319 319 319 318 318 317 317 317 318 316 317 317 317 317 317 316 316 316 316 316 316 315 314 313 312 311 310 309 308 308 308 307
317 319 319 319 317 317 314 312 316 320 319 320 320 319 319 319 318 319 318 317 316 316 316 317 318 319 319 318 318 318 318 317 317 316 315 315 314 313 312 312 312 311
314 315 319 319 318 318 316 313 316 318 319 319 319 319 319 319 318 318 318 317 315 316 316 317 317 318 319 319 319 319 319 319 318 318 318 317 316 316 315 315 315 314
314 314 318 320 318 318 316 314 314 316 319 318 317 318 319 318 318 317 318 319 318 317 318 317 318 318 319 320 319 319 319 319 319 319 318 318 318 318 317 317 316 316
317 317 319 319 317 318 318 318 315 315 318 319 318 318 318 318 317 317 318 319 319 319 319 319 319 319 320 320 320 320 320 319 319 319 319 319 318 318 318 317 317 316
319 318 317 317 317 318 319 320 317 317 319 319 318 318 318 318 317 317 318 319 319 318 318 318 319 319 319 319 319 319 319 319 319 319 319 319 318 318 318 317 317 317
319 318 317 317 318 317 318 318 318 318 318 317 317 317 317 317 316 316 318 319 318 318 318 317 317 318 318 317 317 317 317 318 318 318 319 319 318 318 318 317 317 317
320 319 319 319 318 317 317 318 319 319 318 318 317 317 317 317 316 317 318 318 318 318 318 318 318 318 317 317 317 317 317 317 317 317 319 319 318 318 317 317 317 317
320 319 319 319 319 318 318 318 318 317 317 316 315 315 316 317 317 317 317 317 318 318 318 319 318 318 318 319 319 319 319 318 318 318 319 319 318 318 318 317 317 317
317 317 316 315 315 314 314 313 313 313 313 313 314 314 316 317 316 317 317 317 317 318 318 318 317 317 317 318 318 319 320 320 319 319 319 319 319 319 319 318 318 317
311 311 312 312 311 311 311 311 312 313 313 314 315 315 316 317 317 317 317 316 316 316 317 317 316 315 314 313 314 315 317 319 320 320 320 319 319 319 319 318 318 317
308 309 309 310 309 309 310 310 311 311 312 312 313 314 315 315 315 315 314 313 313 313 314 314 314 313 312 311 310 311 312 313 315 316 317 317 318 318 318 318 317 317
306 307 307 307 307 307 307 308 308 309 309 310 310 311 311 312 311 311 311 311 311 311 311 310 310 311 312 310 309 307 307 307 308 309 310 311 312 314 316 317 318 317
306 306 306 306 306 307 307 307 308 308 308 308 307 307 307 307 308 308 308 308 308 309 307 307 308 310 311 309 307 305 304 305 305 306 306 307 308 311 314 316 317 316
306 306 306 306 306 307 307 307 307 307 306 304 303 303 303 303 303 304 303 303 303 303 302 303 304 306 308 307 306 305 305 305 305 306 307 307 308 310 312 314 315 315
306 306 306 306 306 307 307 306 305 305 304 303 302 302 301 301 301 300 300 300 300 302 302 303 304 306 307 308 308 307 306 305 305 305 306 306 307 310 312 313 314 314
306 306 306 306 306 306 306 306 305 305 306 305 305 304 303 303 302 302 301 300 300 301 302 303 306 308 309 310 310 309 309 308 307 307 306 306 308 310 311 312 312 312
306 306 306 306 306 306 306 307 307 307 306 306 305 305 304 304 304 304 302 301 300 300 300 302 305 307 309 310 310 311 311 311 310 309 308 308 309 310 310 310 311 311

ECMWFNIL_850_thetae_030.txt.gz
Theta_e
319 321 318 311 307 308 307 306 306 306 305 305 306 305 306 307 308 308 306 305 305 305 305 306 306 305 305 305 305 305 305 305 305 305 305 305 305 305 305 305 305 304
320 321 318 311 308 308 307 307 306 306 306 306 305 305 305 306 306 306 305 305 305 305 305 305 305 305 305 304 304 304 304 304 304 304 304 304 304 304 304 304 304 303
322 322 317 310 308 308 307 307 307 307 307 306 306 306 305 305 305 305 305 305 305 305 306 306 305 305 305 305 304 304 304 304 304 304 304 304 304 303 304 304 304 304
323 321 316 311 309 308 307 308 308 308 307 307 306 306 306 306 305 305 305 305 305 305 305 305 305 305 305 305 305 305 305 305 306 305 305 305 305 305 305 305 306 306
324 320 315 312 311 309 308 309 309 309 307 307 307 307 306 306 306 306 306 306 306 306 306 306 306 306 306 306 306 305 305 305 306 306 306 306 306 306 306 306 306 306
323 317 314 314 313 311 310 309 309 309 307 307 307 307 307 307 306 307 307 307 307 307 307 307 307 307 307 306 306 306 306 306 306 306 305 306 306 306 306 306 306 306
322 316 314 316 316 314 311 309 309 309 307 308 309 308 308 308 308 308 308 308 309 309 309 309 309 309 308 308 308 307 307 306 306 306 306 306 306 306 306 306 306 306
321 316 314 316 317 317 314 312 312 311 308 310 312 311 312 313 312 312 312 313 313 313 314 314 313 312 311 311 311 310 310 309 308 307 307 306 306 306 306 306 306 306
322 319 316 315 317 319 317 315 314 312 308 310 314 315 316 316 316 315 315 316 316 317 318 317 317 316 316 315 315 315 315 314 313 312 310 310 309 308 307 307 308 308
323 322 320 316 316 319 319 316 314 310 308 311 315 317 318 318 318 318 318 318 318 318 317 317 317 317 318 318 317 317 317 317 317 316 315 315 314 313 312 310 310 310
324 323 321 317 315 319 319 317 314 310 310 314 317 318 319 319 319 319 319 319 318 317 316 315 315 317 318 317 317 318 319 318 318 318 318 318 317 317 316 315 315 314
323 322 319 316 316 319 319 318 316 313 312 315 317 318 317 318 319 319 319 319 317 316 315 315 316 317 318 316 316 318 318 318 318 318 318 319 318 318 318 317 317 316
322 319 317 316 318 320 319 318 317 315 313 314 316 316 314 314 316 317 318 318 317 314 315 316 316 316 316 316 316 317 318 318 319 319 319 319 318 318 318 318 318 317
322 320 317 316 316 318 319 318 318 317 315 313 314 316 315 314 315 315 316 317 317 316 316 316 317 316 316 316 317 318 319 318 318 318 319 319 319 318 318 318 318 317
322 321 320 317 316 317 319 319 318 319 318 316 316 316 316 316 315 315 315 315 315 316 317 317 317 317 318 318 318 319 319 318 317 317 317 318 318 318 318 318 318 318
321 321 320 319 318 318 318 318 319 319 320 319 318 317 317 317 317 316 316 316 316 316 316 318 318 318 318 318 318 318 318 317 317 317 317 317 317 317 317 317 318 318
320 320 320 319 319 318 317 318 319 319 319 319 319 319 318 318 317 317 317 317 317 316 317 318 318 318 319 319 319 319 318 318 317 317 317 317 317 317 317 317 318 318
320 320 319 319 319 318 318 318 319 318 318 319 319 318 318 317 315 315 316 316 317 317 318 318 318 319 319 318 318 317 317 318 318 318 319 318 318 318 318 318 318 318
318 319 319 319 318 318 318 318 318 318 317 317 316 315 315 314 314 315 315 316 317 317 317 317 318 318 317 316 314 313 313 313 314 315 316 317 318 318 318 319 319 319
313 314 315 315 315 315 314 314 314 314 314 314 313 313 314 314 315 315 315 316 316 315 315 315 315 315 314 313 313 312 311 310 308 308 309 310 311 312 313 315 316 316
308 309 310 310 310 310 310 311 311 312 312 312 312 312 312 313 313 313 313 313 313 312 311 311 311 311 311 311 312 311 310 307 305 304 304 304 305 306 307 308 309 312
306 307 308 308 308 308 308 309 309 310 310 310 309 309 309 309 310 310 310 310 310 309 309 309 309 309 309 309 310 310 309 307 305 304 304 304 304 305 305 306 307 310
307 306 307 307 307 307 307 308 308 308 308 308 307 307 306 306 306 305 305 305 305 306 306 307 307 307 308 308 308 309 309 308 307 306 305 304 304 304 305 307 310 312
307 307 306 306 306 306 307 307 307 307 307 306 305 304 303 303 302 302 301 301 301 301 302 302 303 304 305 306 307 309 310 310 309 309 307 306 305 304 305 307 310 311
306 307 306 306 306 306 306 307 307 307 306 305 304 304 303 303 302 302 302 302 301 301 301 301 301 301 302 303 305 308 309 309 310 310 310 309 308 307 306 306 307 309
306 306 306 306 306 306 307 307 307 307 306 305 306 305 304 303 303 303 303 303 302 302 301 301 301 300 300 301 303 306 308 309 310 311 311 310 309 308 307 306 306 307

ECMWFNIL_850_thetae_036.txt.gz
Theta_e
321 321 317 309 307 307 306 305 305 305 307 310 310 308 306 306 305 305 306 306 306 305 305 305 305 306 306 305 307 310 308 305 305 305 305 305 305 305 305 305 306 307
321 322 319 312 307 307 306 305 305 305 305 306 306 306 305 306 305 305 306 305 305 305 304 305 304 304 305 305 305 306 306 304 305 304 304 304 304 304 304 303 303 304
322 322 321 315 308 306 307 305 304 305 305 305 305 305 305 305 305 305 306 305 305 305 304 304 304 304 304 304 304 305 304 304 304 303 303 303 303 303 303 303 303 304
322 322 322 318 311 307 306 305 305 305 305 305 305 305 305 305 305 305 305 305 305 305 306 305 305 304 304 304 304 304 303 303 303 303 304 303 304 305 305 305 305 306
321 322 322 320 313 307 306 307 308 309 307 305 305 305 305 305 305 305 305 306 306 306 306 306 306 305 305 305 305 304 305 304 304 304 305 305 305 306 306 306 306 306
320 321 322 322 316 308 306 309 311 311 309 306 305 305 305 305 305 306 306 306 306 306 306 306 307 306 306 306 305 305 306 306 305 306 307 306 305 306 306 307 307 307
320 321 321 322 319 311 307 309 310 309 307 307 306 306 306 306 306 306 306 307 307 307 307 307 307 307 307 307 307 307 307 306 306 307 310 308 306 306 306 306 307 307
320 321 321 322 320 314 308 308 309 309 308 307 307 307 306 307 307 307 307 307 308 308 308 309 309 309 309 308 309 309 308 308 307 308 310 309 307 309 308 307 307 307
322 322 322 321 320 317 311 308 309 309 309 308 307 307 307 307 307 308 308 308 309 310 311 311 312 313 313 313 312 312 311 312 311 309 309 309 310 312 311 309 309 310
324 324 324 322 320 318 314 310 308 308 309 308 307 307 307 308 308 308 308 309 310 311 312 313 315 316 317 317 316 315 315 315 315 314 312 312 313 314 314 313 313 313
325 325 325 324 321 318 316 314 311 310 309 308 309 309 309 308 309 309 310 311 313 313 312 313 316 318 316 316 317 317 317 317 317 317 317 316 316 316 315 315 314 315
325 325 325 324 321 318 317 317 316 314 312 309 310 311 312 311 311 312 312 314 315 316 315 313 314 316 316 315 315 317 318 318 317 317 316 316 316 317 317 316 316 316
325 324 325 324 322 319 318 318 319 319 316 313 311 312 313 313 313 313 314 316 317 318 318 316 314 315 317 317 315 315 316 316 316 316 315 315 315 316 317 317 317 317
325 325 325 325 324 322 321 320 320 321 320 318 315 313 313 312 313 314 314 316 317 317 316 316 316 318 318 318 316 315 315 317 317 317 317 317 316 316 316 317 318 318
325 325 325 324 325 325 324 322 322 322 321 320 318 317 315 313 312 315 317 317 317 317 314 314 316 318 318 317 317 316 316 317 318 318 318 318 318 317 317 318 318 318
324 324 324 324 324 323 322 322 322 322 321 319 319 319 318 316 314 315 317 318 318 318 316 315 315 316 316 316 315 315 315 316 318 318 318 318 318 318 318 318 318 318
323 323 323 323 323 322 320 320 320 320 319 319 320 320 319 319 317 316 316 317 319 319 317 316 315 315 315 315 314 314 314 316 317 318 317 317 317 318 319 319 319 319
321 322 322 322 322 322 321 320 320 319 319 319 320 320 320 320 319 318 318 318 319 319 318 317 317 317 317 316 315 314 315 316 317 317 316 316 316 317 319 320 320 320
320 321 321 321 321 321 321 321 320 320 320 320 320 320 319 319 319 318 318 318 319 319 317 317 317 317 318 317 316 316 316 317 317 316 315 315 315 314 315 316 317 318
316 317 318 319 320 320 320 321 320 320 321 320 320 319 318 318 318 318 318 317 317 316 316 316 317 317 317 317 317 318 317 317 316 315 315 314 312 310 309 309 310 311
311 311 312 313 315 316 318 319 319 319 318 317 317 317 317 317 316 315 315 315 315 315 316 317 317 317 317 318 318 318 317 315 313 312 312 311 307 304 303 303 303 304
309 309 309 308 309 311 312 313 313 314 313 313 314 313 313 313 313 312 312 313 314 315 317 317 315 315 315 315 316 315 313 311 310 309 310 308 304 302 302 301 302 302
309 308 308 308 308 308 310 310 310 309 311 312 312 312 312 313 313 313 313 313 313 314 315 314 312 312 311 310 311 310 309 309 310 311 312 309 305 305 305 303 303 302
308 308 308 309 308 308 309 308 307 307 309 311 312 312 312 311 311 311 311 312 312 312 312 311 310 310 310 309 309 308 307 310 312 313 313 311 308 308 307 306 305 304
308 307 307 308 309 309 308 308 307 307 308 310 311 311 310 309 308 307 307 307 306 306 306 305 305 306 306 306 307 307 307 310 313 313 313 312 311 310 309 308 307 306
306 306 306 307 308 309 308 308 309 309 308 307 308 309 307 306 305 305 304 302 302 302 302 302 302 302 302 302 303 303 303 306 311 313 313 312 312 310 310 309 308 307

ECMWFNIL_850_thetae_039.txt.gz
Theta_e
323 324 323 322 321 321 319 319 320 321 321 320 319 316 311 307 307 307 306 306 306 306 306 306 306 308 311 313 315 315 310 307 307 306 306 307 307 307 310 312 315 315
325 326 323 321 321 318 316 316 319 320 319 318 317 312 307 306 306 306 306 307 306 305 306 306 306 309 311 309 310 311 308 306 308 307 306 307 307 306 305 307 312 315
327 326 322 320 318 315 312 313 316 318 318 318 315 311 306 305 305 306 308 309 307 305 305 305 305 307 308 307 307 308 307 306 306 306 306 306 307 307 306 307 311 315
326 325 323 318 312 310 309 311 315 317 317 317 314 310 307 305 304 305 307 308 306 304 304 304 305 305 305 306 306 306 306 305 305 306 306 306 307 307 307 307 310 313
324 324 324 318 310 308 308 310 315 316 314 314 312 310 308 305 304 304 305 307 306 305 305 305 305 306 305 306 306 306 306 306 306 308 308 308 309 309 309 309 309 311
324 324 325 321 312 307 307 310 314 314 311 310 311 312 310 305 304 305 305 307 307 305 306 306 306 307 307 307 307 309 310 308 308 310 310 310 311 311 312 312 312 311
322 323 325 324 316 309 308 309 310 310 308 310 313 314 313 310 308 306 306 308 308 308 308 307 307 308 308 308 309 309 310 308 309 312 313 311 310 311 312 312 313 313
320 321 323 325 320 313 311 310 308 308 307 311 318 317 314 315 313 309 308 309 311 311 310 309 309 308 308 310 309 308 308 308 309 313 314 311 311 312 312 310 311 313
321 322 323 325 323 318 316 312 309 310 308 311 320 320 316 317 316 312 312 313 314 314 313 312 311 309 309 311 310 309 309 309 309 312 311 310 312 314 314 312 312 314
324 324 324 324 324 322 321 315 310 311 310 311 318 319 318 318 317 315 315 315 315 315 315 314 313 311 310 313 314 314 315 314 313 313 312 313 316 316 316 316 315 316
326 326 326 326 325 324 323 320 314 311 310 313 318 318 318 319 317 316 316 316 316 316 316 317 317 316 316 317 317 318 319 319 318 318 317 317 318 317 316 317 317 317
328 328 328 328 326 324 323 323 320 315 311 314 319 319 318 319 318 317 318 317 317 317 317 318 318 319 320 321 320 319 319 319 319 320 319 318 318 317 316 316 317 317
328 328 328 328 327 326 324 324 323 320 316 315 318 319 319 319 318 318 318 318 317 318 318 319 319 320 320 321 322 321 320 319 319 318 318 318 318 318 317 316 316 317
327 328 328 327 327 326 324 324 323 323 321 320 319 319 319 319 318 318 319 319 319 319 319 319 320 320 321 321 322 322 321 321 319 318 317 317 317 318 319 318 317 317
327 327 327 327 326 326 324 323 323 324 323 322 320 320 319 319 318 319 320 320 320 321 321 321 322 322 322 321 321 321 322 321 319 317 317 318 319 320 320 320 319 319
326 326 326 326 325 325 325 324 323 323 322 322 321 321 320 319 319 319 320 320 320 321 321 322 322 322 321 320 320 320 321 321 320 318 316 317 319 320 320 320 320 320
325 325 325 325 325 325 324 324 323 323 323 322 322 321 320 319 319 320 320 320 320 321 322 321 321 319 319 319 318 318 318 319 320 319 318 318 318 319 319 319 319 320
323 323 323 323 324 324 324 323 323 323 323 321 321 320 319 319 319 319 319 319 319 319 320 320 319 317 316 317 317 317 316 316 317 318 319 318 318 318 319 319 319 319
322 322 322 322 322 323 323 323 323 323 323 321 320 320 320 320 320 319 318 318 318 317 317 318 318 317 317 318 317 316 317 316 316 316 317 316 317 317 319 319 319 320
318 319 320 321 322 322 322 322 323 323 323 322 321 321 320 321 321 319 318 317 318 318 317 318 318 317 317 317 317 317 317 317 317 316 315 316 317 318 319 319 319 319
313 314 315 316 318 319 320 321 321 322 322 321 320 320 320 320 320 319 318 317 317 318 318 318 318 317 317 316 316 317 317 318 318 316 315 316 317 317 316 316 316 315
312 312 312 313 314 315 316 317 319 319 320 319 318 317 317 317 317 318 318 317 316 317 317 318 318 316 316 316 317 318 318 318 317 315 315 315 315 314 313 312 311 310
312 312 312 312 313 312 313 313 315 317 317 317 317 316 316 315 315 314 314 314 315 315 316 316 316 314 314 315 317 318 317 316 315 314 314 314 313 312 310 307 304 303
311 312 312 312 312 312 312 312 313 314 315 316 316 316 316 316 316 315 314 313 314 314 315 315 314 313 312 312 313 314 312 312 313 313 314 314 313 312 308 303 302 302
310 310 311 311 312 312 312 312 312 313 313 314 314 314 315 315 315 316 315 314 314 314 314 314 313 313 312 310 310 309 306 307 312 314 314 314 314 313 310 305 304 305
308 308 309 310 311 311 312 312 312 312 313 313 313 313 314 313 313 313 312 313 313 312 311 313 313 312 311 309 309 307 304 305 311 314 314 315 314 313 312 309 307 307

ECMWFNIL_850_thetae_042.txt.gz
Theta_e
310 309 309 311 317 319 321 323 321 322 324 324 323 320 313 311 311 309 307 308 307 306 307 307 311 315 316 315 313 310 308 307 307 308 306 306 309 313 315 315 315 314
311 311 311 314 320 320 320 321 321 322 323 323 322 318 312 309 308 306 306 306 305 306 306 307 310 311 310 310 307 306 307 308 308 308 307 306 306 309 312 315 316 315
316 316 313 315 320 318 316 319 321 323 323 322 321 317 310 308 307 306 307 306 305 305 306 308 311 309 307 306 305 305 306 305 305 306 305 305 305 307 310 313 315 314
321 320 315 316 317 312 311 316 321 323 322 321 319 315 309 307 306 307 307 305 305 304 305 308 310 308 306 305 304 305 304 305 305 305 305 306 306 306 308 310 311 311
324 324 318 315 313 309 308 312 318 321 321 320 318 313 308 305 305 306 305 304 304 304 305 306 307 306 305 305 305 306 306 307 307 307 308 309 309 309 309 309 309 309
326 325 321 316 311 308 308 310 316 320 320 319 316 312 308 305 305 305 304 304 305 305 305 305 305 306 306 307 308 308 308 309 310 311 311 310 312 313 313 312 310 309
326 324 323 319 313 309 308 311 316 318 317 314 313 312 308 305 306 306 305 305 306 306 307 307 308 308 308 308 309 309 309 310 311 313 311 310 312 313 312 312 312 311
324 323 324 322 318 311 309 312 315 314 312 310 311 312 311 310 311 310 308 307 307 308 308 309 309 309 309 309 309 309 309 309 311 313 311 310 311 312 311 310 311 310
322 323 324 324 322 316 311 311 311 311 310 308 310 311 312 316 316 313 312 312 311 310 309 309 309 309 309 309 309 309 309 309 309 310 310 309 309 312 313 312 311 310
322 323 324 325 324 319 315 312 310 310 309 310 314 314 314 318 317 315 316 316 315 315 312 310 310 309 309 309 309 309 309 309 310 311 312 312 312 314 316 316 315 314
324 324 325 326 324 320 319 317 313 311 310 311 318 319 316 318 317 315 316 317 317 318 316 314 312 310 309 309 309 309 310 312 313 315 316 316 316 317 317 317 317 317
323 323 325 327 325 321 322 320 317 317 314 312 318 320 318 319 319 316 317 317 316 317 317 317 316 315 313 313 313 312 313 315 316 317 317 316 317 317 317 317 317 318
325 325 326 327 325 323 323 321 319 319 317 315 319 320 318 319 319 317 317 317 317 317 317 317 318 318 318 318 318 318 318 318 318 319 318 317 317 317 317 317 316 316
327 327 327 326 326 325 323 321 320 320 318 316 319 320 319 319 319 318 317 316 317 318 317 317 318 318 319 319 320 320 320 319 320 320 319 319 318 319 319 319 318 318
326 327 327 326 326 324 321 320 321 321 319 317 317 318 319 319 319 319 318 317 317 317 318 318 318 318 319 319 319 319 319 320 321 321 321 320 320 320 320 319 319 319
326 326 326 326 326 324 323 322 323 323 321 319 319 318 319 319 319 319 318 318 318 318 318 319 318 318 319 318 319 320 320 321 322 321 320 319 318 318 317 316 318 320
325 325 325 326 325 325 325 324 324 324 323 321 321 320 319 319 319 319 318 318 319 319 319 320 319 319 318 317 317 318 319 320 320 320 319 318 317 317 317 316 317 319
324 324 324 325 325 324 324 324 324 324 323 323 323 322 321 320 319 319 319 318 319 319 319 320 320 320 319 317 317 316 316 318 320 320 319 318 317 316 317 316 316 316
321 322 322 323 324 323 323 324 323 323 323 323 322 322 321 320 320 320 320 319 318 318 319 320 320 320 319 318 317 316 315 316 318 319 318 317 317 316 316 317 316 316
319 319 320 320 322 322 322 323 323 323 323 322 321 320 320 319 319 319 319 318 318 317 319 320 320 319 318 317 317 316 315 316 317 318 317 317 317 316 316 316 317 317
315 316 316 316 318 319 319 320 321 322 321 320 319 319 318 317 318 317 317 317 317 318 319 319 318 318 317 317 317 316 316 317 317 317 317 316 316 315 316 316 316 316
313 313 313 313 314 315 315 316 318 319 319 319 318 317 316 315 316 315 314 314 315 317 319 319 318 317 317 317 318 318 318 317 317 317 316 315 315 315 315 316 315 315
312 313 313 313 313 313 314 313 314 316 317 318 318 318 317 316 316 315 314 313 312 313 316 318 318 317 317 318 318 317 317 317 317 317 315 315 315 315 314 314 315 315
310 311 312 312 313 313 313 313 313 313 314 315 316 317 317 317 318 318 317 316 315 314 315 316 316 316 316 316 316 316 317 317 317 316 314 314 315 314 314 314 313 313
308 309 310 311 312 312 313 313 313 313 313 313 314 315 315 316 317 317 317 317 317 316 314 314 315 315 314 314 314 316 317 317 315 314 314 315 314 313 313 313 309 307
306 307 308 308 310 310 311 312 312 312 313 313 313 314 314 315 315 316 316 316 315 315 314 313 314 314 313 313 314 314 315 314 312 312 314 315 314 313 313 311 307 304

ECMWFNIL_850_thetae_045.txt.gz
Theta_e
320 317 313 309 307 309 310 314 319 321 321 321 320 320 315 311 313 315 312 309 308 311 317 318 316 317 315 313 311 310 310 309 311 317 321 320 318 318 318 319 319 317
321 317 312 309 308 311 314 316 318 319 322 323 322 321 316 310 310 310 309 307 306 308 312 315 316 316 312 308 307 306 306 306 306 311 317 317 315 315 315 316 317 316
321 316 311 308 308 312 316 318 317 320 324 323 322 322 317 311 308 307 306 306 306 306 308 310 311 311 308 306 306 305 305 305 305 307 310 312 312 312 312 312 314 316
318 312 308 309 311 313 317 318 318 321 323 321 320 320 316 310 307 307 307 306 306 306 307 306 306 306 306 305 305 305 304 305 305 305 307 308 309 309 308 308 309 311
316 310 308 311 315 316 317 318 319 322 322 319 317 317 314 309 306 307 306 305 305 307 307 306 305 304 304 304 305 305 306 307 308 308 308 309 309 308 308 308 307 307
316 311 311 313 316 317 316 317 320 322 320 316 315 315 312 307 306 306 305 304 305 305 306 305 305 306 306 306 307 308 308 309 310 310 310 311 311 310 309 310 310 309
319 315 314 315 317 316 314 315 317 319 317 313 313 313 309 306 306 305 304 304 304 305 306 305 306 308 308 308 309 309 310 311 311 310 310 311 311 310 310 310 310 310
322 319 317 317 317 315 312 312 314 314 313 311 312 311 307 305 306 306 306 305 305 305 306 307 308 309 309 309 309 310 311 312 311 310 310 310 310 310 310 310 309 310
323 323 321 320 319 315 311 312 312 311 310 310 311 310 306 306 307 308 308 308 307 307 307 307 309 309 309 309 309 309 310 311 311 310 310 309 310 312 313 312 312 310
325 325 324 322 320 316 312 311 311 309 309 309 310 308 306 309 312 309 309 311 311 310 310 308 309 309 309 309 309 308 309 309 310 310 311 311 313 315 316 316 316 315
326 326 324 322 321 318 314 312 310 309 310 310 310 309 308 314 317 312 309 313 315 314 313 311 309 309 309 309 309 309 309 310 311 313 314 315 316 317 316 317 317 317
326 324 323 322 321 320 318 315 312 309 309 310 311 310 310 315 319 315 312 315 317 317 317 314 311 310 310 310 310 311 311 312 314 316 317 317 317 318 318 318 317 317
325 323 321 321 322 322 319 318 315 311 309 309 312 312 312 315 318 317 314 314 317 317 317 316 314 313 314 314 315 316 316 317 318 318 318 317 317 318 318 318 317 317
324 322 320 319 322 322 320 320 318 314 312 313 315 316 314 316 319 319 316 315 316 317 316 317 317 316 317 318 318 319 319 320 320 319 318 318 317 318 318 317 316 317
322 321 319 319 322 323 321 321 320 317 315 317 319 319 318 318 319 318 317 316 317 317 317 317 317 317 318 318 318 319 319 321 320 319 319 319 318 318 318 317 317 317
321 320 320 320 322 323 322 322 321 319 318 317 319 320 319 318 318 318 317 316 317 317 318 317 318 317 318 318 318 318 319 320 320 319 319 320 319 318 317 316 316 316
321 321 322 321 320 321 322 322 321 319 318 317 317 319 319 319 319 318 318 318 317 317 317 317 318 318 318 318 318 318 318 319 319 319 318 319 318 317 316 316 316 316
319 320 322 321 319 319 320 321 321 320 320 318 317 317 317 317 318 319 319 319 318 318 317 317 317 317 317 318 318 318 319 318 318 318 319 319 317 316 316 317 316 316
320 321 322 321 320 320 320 321 322 322 322 321 319 318 318 318 319 319 319 319 318 318 318 318 318 318 318 318 318 319 319 318 318 318 318 317 317 316 316 316 316 316
318 319 320 320 321 321 320 321 322 323 323 323 322 321 321 320 320 320 320 320 319 319 319 318 318 318 318 318 318 319 320 319 318 317 316 316 316 316 316 316 316 317
314 315 316 318 318 318 318 318 319 320 320 320 321 320 320 319 319 319 319 319 319 319 319 319 319 318 318 318 318 319 319 319 318 317 317 316 316 316 317 317 316 316
313 313 314 314 315 315 315 317 318 318 317 317 317 317 317 316 316 315 316 316 317 317 318 318 317 317 317 317 317 318 318 318 317 317 317 317 317 316 316 316 316 316
312 312 313 313 313 313 314 315 316 317 317 317 316 315 315 315 314 313 313 313 314 314 315 316 316 316 316 316 317 318 318 318 318 318 318 318 317 316 315 315 315 315
311 311 312 312 313 313 313 313 313 314 314 314 314 314 315 315 315 314 314 313 313 313 313 314 314 315 315 314 315 316 317 318 318 317 317 317 316 315 315 315 315 315
308 308 309 310 310 310 311 312 313 313 313 313 313 313 314 314 315 315 315 314 313 313 313 313 313 312 311 311 312 314 315 316 316 316 317 316 315 315 315 315 314 314
304 304 305 306 307 308 308 309 309 310 311 312 312 313 313 314 314 314 315 314 314 314 313 312 312 312 311 311 311 313 314 313 314 316 316 315 314 315 315 314 313 313

ECMWFNIL_850_thetae_048.txt.gz
Theta_e
320 321 318 313 309 308 308 312 318 320 320 319 318 317 319 321 320 320 319 320 321 321 318 314 311 310 311 314 316 318 321 323 322 322 322 322 322 322 321 321 322 323
325 324 320 312 309 308 309 314 319 321 321 319 316 311 311 314 316 316 316 316 318 319 316 313 310 308 308 310 311 315 320 323 321 320 320 320 320 320 319 318 320 322
325 324 318 310 309 310 312 318 322 322 322 320 317 312 308 308 310 310 309 310 314 315 314 312 310 306 305 306 307 309 315 319 319 318 318 318 318 318 318 317 318 320
325 323 316 310 310 312 315 320 322 322 322 321 319 315 309 305 306 306 305 307 309 311 312 312 309 306 305 305 305 305 308 311 311 312 312 312 313 315 317 317 317 318
325 321 315 311 311 312 317 320 320 321 322 321 319 316 310 305 306 306 305 306 307 309 310 310 307 305 304 304 304 304 305 305 306 306 306 306 306 309 313 317 317 318
325 319 313 311 311 313 318 320 318 320 322 320 319 316 309 305 306 306 306 305 306 306 306 306 305 304 304 304 304 305 305 305 306 307 307 307 306 305 307 312 315 318
323 317 311 311 315 317 319 319 317 320 321 320 319 315 308 305 305 305 305 305 305 305 304 304 304 304 305 306 307 307 308 308 309 309 310 310 309 309 307 307 310 314
319 317 313 315 321 321 319 317 316 320 321 319 319 314 306 304 305 304 305 306 305 304 304 305 305 306 308 308 309 309 309 310 309 310 310 310 310 310 310 309 307 308
319 319 317 318 322 321 317 314 315 319 319 317 316 312 305 304 305 304 305 306 305 306 306 307 308 308 309 309 309 310 309 309 309 309 309 309 310 309 309 310 310 309
320 319 319 320 321 320 316 313 315 317 315 313 314 311 305 305 306 305 306 306 306 307 308 308 309 310 310 310 309 310 310 310 309 310 310 310 311 312 311 311 310 311
321 319 321 322 321 320 317 315 317 317 314 312 313 311 306 305 308 309 308 308 307 307 308 309 310 310 310 310 310 310 310 310 310 310 310 311 313 315 315 315 313 312
320 321 322 322 321 319 316 316 317 317 315 313 312 310 308 309 312 312 311 311 310 308 309 309 309 310 310 310 310 310 310 310 310 311 312 313 315 315 315 316 316 315
322 321 321 321 322 320 317 317 317 317 316 313 312 311 311 313 316 315 314 314 314 313 313 312 310 310 311 310 310 310 310 311 312 313 314 315 315 315 315 315 315 315
322 320 319 320 321 321 320 319 319 318 315 312 313 313 313 315 318 317 315 316 317 317 317 316 315 314 314 313 312 313 314 314 315 316 316 316 316 316 316 316 316 315
321 319 320 321 321 321 321 320 320 318 314 311 314 316 315 316 318 317 316 316 317 317 317 317 317 317 317 316 316 317 317 317 317 317 317 317 317 317 317 317 317 317
322 320 320 321 321 321 321 320 320 319 316 313 315 317 317 317 318 318 317 316 316 317 317 316 317 317 317 317 317 318 318 318 318 318 318 318 318 319 319 318 318 317
323 322 321 321 320 321 321 320 320 320 318 316 317 319 319 319 319 319 318 317 316 316 317 317 317 317 317 318 318 318 318 318 318 318 318 318 318 319 319 319 318 317
324 323 322 320 320 322 322 321 321 321 320 318 318 319 319 319 319 319 319 318 317 316 316 317 317 317 318 318 318 319 319 318 318 318 318 319 319 319 319 319 319 318
323 323 323 322 322 323 323 323 322 322 321 319 318 318 318 319 319 319 319 319 318 318 317 317 317 317 318 318 318 318 318 318 318 318 318 318 318 318 318 319 319 318
322 321 321 321 321 321 321 322 322 322 321 320 319 319 318 320 320 320 319 319 319 319 318 318 318 317 318 318 318 318 318 318 318 318 318 318 318 318 318 318 317 316
319 319 319 319 319 319 319 319 319 320 320 318 318 318 318 319 320 321 320 320 320 320 319 319 319 318 318 318 318 318 318 318 318 318 318 319 319 319 318 317 316 315
315 316 317 317 317 317 317 317 317 317 316 316 317 318 318 318 318 318 318 318 318 319 319 319 319 319 319 319 319 319 319 318 318 318 318 319 319 318 318 317 317 316
312 313 314 314 314 315 316 317 318 318 318 318 319 319 320 319 317 316 315 315 315 315 315 315 316 316 317 317 318 318 318 318 317 318 318 318 318 318 317 317 317 317
311 312 312 312 313 314 314 315 316 317 317 318 318 318 317 316 315 315 315 314 314 313 313 313 312 313 313 314 314 315 316 316 317 317 318 318 318 318 317 317 317 317
310 310 311 311 312 312 313 313 314 314 314 315 315 314 314 314 314 314 313 313 313 313 314 314 313 313 312 312 312 313 313 313 314 315 316 317 317 317 317 317 317 316
309 309 309 310 310 310 311 311 312 312 312 313 313 313 313 313 313 313 312 313 313 314 315 315 314 314 313 312 311 311 311 311 312 312 313 314 315 316 316 316 316 316

ECMWFNIL_850_thetae_051.txt.gz
Theta_e
327 327 324 318 318 320 318 316 316 318 318 316 315 316 317 318 317 316 317 319 321 321 320 316 312 312 316 317 316 316 317 317 319 321 322 322 323 323 323 323 323 323
327 325 321 320 321 321 317 316 317 317 316 313 312 313 315 317 317 317 318 319 320 320 318 314 309 311 315 317 316 316 318 319 320 321 322 322 322 322 322 323 322 323
326 322 321 323 323 320 317 316 317 316 314 312 310 309 309 313 316 317 318 318 319 319 316 312 308 309 313 315 316 317 319 320 320 321 321 321 321 321 321 322 323 322
324 323 324 324 320 317 315 315 314 314 314 314 311 307 306 309 312 314 314 314 316 316 313 310 307 306 309 313 315 318 320 320 319 319 320 320 320 319 319 321 322 322
325 326 326 322 316 313 313 312 312 313 316 317 313 308 306 306 308 309 308 308 310 312 310 308 306 305 306 308 312 316 317 317 317 317 317 317 318 318 317 318 321 321
326 326 324 319 313 311 312 313 312 312 317 320 316 311 307 305 306 306 305 305 307 308 308 307 306 305 304 305 308 312 313 312 311 311 311 312 315 316 316 316 319 320
325 324 323 317 312 312 313 315 313 312 318 321 319 313 307 305 306 305 305 305 305 306 307 306 305 304 304 304 306 308 309 308 307 307 306 307 310 314 316 316 317 318
324 324 321 316 316 315 314 314 313 313 319 322 320 313 306 304 305 305 305 305 306 306 305 305 304 304 304 304 305 306 307 307 308 307 307 307 307 310 313 314 315 317
323 323 320 317 318 317 312 312 313 314 319 322 320 312 305 304 304 304 305 306 306 305 304 304 305 305 306 306 307 308 308 309 309 309 309 309 308 308 309 310 312 314
322 322 318 315 315 314 312 311 313 316 320 322 320 311 304 304 304 303 304 305 305 305 304 305 306 307 308 309 309 310 309 309 310 309 309 309 309 309 309 309 309 310
323 321 316 312 311 313 312 312 315 319 321 321 319 311 304 304 305 304 305 305 304 305 306 306 307 308 309 310 310 310 309 309 309 310 310 310 311 311 310 310 310 309
322 320 317 316 315 313 312 314 319 320 320 320 318 311 304 304 305 305 305 305 305 306 307 307 308 309 309 310 310 310 309 310 309 310 311 313 313 314 313 313 312 312
322 320 319 319 319 316 314 315 319 320 319 319 318 311 305 303 305 305 305 305 306 307 308 309 309 309 309 309 309 309 309 309 309 310 311 313 314 315 315 314 314 314
322 321 320 318 316 316 314 315 318 320 319 319 318 313 308 305 306 306 307 307 308 308 309 309 309 309 309 309 308 308 308 309 309 310 311 313 314 315 314 314 314 314
322 321 320 317 315 316 315 316 318 320 320 319 318 315 312 312 311 311 311 311 311 312 313 313 313 312 312 311 310 310 309 310 311 312 313 314 314 315 315 315 316 315
322 320 319 317 317 319 319 319 320 320 319 317 317 317 316 316 316 316 316 315 314 315 316 316 316 316 316 316 315 315 314 314 315 316 316 316 316 316 317 317 317 317
321 320 317 316 318 321 321 320 320 320 318 315 316 319 318 316 317 318 317 316 316 316 317 317 317 317 317 317 317 317 317 317 317 318 318 317 317 317 318 318 318 318
321 320 318 317 318 320 321 320 320 320 318 315 317 320 320 318 318 318 318 318 317 316 316 316 317 317 317 317 317 318 317 318 318 318 318 318 318 318 318 318 318 318
321 320 320 320 320 321 320 320 319 319 318 317 318 320 320 320 319 319 319 319 317 316 316 317 317 317 317 317 317 318 318 318 318 318 319 319 319 318 318 319 319 318
322 322 321 321 320 320 320 320 319 319 319 319 319 319 320 320 319 320 320 319 318 318 318 318 318 317 317 318 318 318 318 318 318 319 319 319 319 318 319 319 319 318
321 322 321 321 321 321 321 321 320 320 319 318 318 320 320 320 320 320 320 320 320 320 319 319 319 319 318 318 318 318 318 318 318 319 319 319 319 319 319 319 319 319
318 319 319 320 320 320 320 321 321 321 320 319 318 320 320 320 320 319 319 320 319 319 319 319 319 319 319 319 319 319 319 319 319 318 318 318 318 318 318 318 319 319
314 315 316 317 317 318 318 319 319 319 319 318 318 318 318 318 318 318 318 318 317 317 317 317 316 316 317 317 317 318 318 319 319 319 319 318 318 319 318 318 318 318
310 311 312 313 314 315 316 316 317 317 317 317 317 317 317 317 317 317 317 316 315 315 315 314 314 314 314 314 314 314 315 315 316 316 317 317 318 318 317 317 318 318
309 310 310 311 311 312 313 313 314 315 315 316 316 316 317 317 316 316 316 315 315 314 314 313 312 312 313 313 312 313 313 313 313 313 313 314 314 314 314 314 315 315
308 309 309 309 309 309 310 310 311 312 312 313 313 314 315 315 315 314 314 314 314 314 313 313 312 311 312 313 313 313 314 314 314 313 313 312 311 311 311 311 311 312

ECMWFNIL_850_thetae_054.txt.gz
Theta_e
329 328 327 327 323 317 315 314 314 317 317 316 315 314 314 315 315 315 315 317 319 319 318 313 310 313 316 317 317 317 318 319 320 321 321 321 322 322 323 323 323 323
328 327 327 327 322 315 314 313 315 318 319 320 320 317 314 314 315 315 315 315 317 318 317 312 308 311 315 316 317 318 320 321 321 322 322 322 322 322 322 323 323 323
328 327 327 325 319 314 314 314 316 318 319 320 319 317 313 311 312 314 314 314 315 316 316 311 307 311 315 316 317 320 322 322 322 322 322 322 322 321 322 322 323 323
328 327 327 324 318 316 316 315 316 318 317 316 314 312 311 309 310 312 313 313 312 313 313 310 306 309 315 315 316 320 322 321 321 320 321 321 321 320 321 322 322 322
328 327 325 322 320 318 317 316 315 317 317 315 310 308 307 307 308 310 310 309 309 310 310 308 305 308 312 313 315 320 321 319 319 318 318 319 319 319 320 321 322 322
327 325 324 323 321 317 316 315 316 317 318 316 312 307 306 306 306 307 307 306 306 307 308 306 304 306 309 310 314 319 320 318 317 316 316 317 317 317 318 319 320 321
326 324 324 325 321 315 314 315 316 318 319 319 316 310 306 305 305 306 305 305 305 306 306 306 305 305 306 307 311 316 317 315 314 313 313 314 315 316 317 317 319 320
326 325 325 325 319 312 313 316 318 319 320 321 318 312 306 305 305 305 305 305 305 305 305 305 304 304 304 306 308 312 312 311 309 308 307 309 312 315 316 316 317 318
326 325 326 324 316 311 314 316 318 320 321 321 319 313 307 304 305 305 305 305 304 305 305 305 304 304 304 305 306 308 309 308 307 307 306 307 309 313 315 315 315 316
326 326 325 322 314 311 314 315 315 319 321 320 319 313 307 304 304 305 305 305 304 304 305 304 304 304 305 306 307 308 308 308 308 309 309 308 309 310 312 313 313 314
326 325 323 320 313 311 314 313 313 318 321 320 317 313 307 304 304 304 304 304 304 304 304 304 304 305 306 308 309 309 309 309 309 310 310 310 310 310 310 310 311 312
325 325 323 321 315 312 313 312 311 317 321 320 317 313 308 304 303 304 304 305 305 304 304 305 306 307 308 309 309 309 309 310 310 310 310 310 310 310 310 310 310 311
324 323 322 322 318 314 314 313 312 317 322 321 318 315 310 306 304 303 304 305 305 304 305 306 307 308 309 309 309 309 309 309 309 310 310 310 311 312 312 313 313 312
323 321 321 321 319 316 314 314 316 320 321 321 320 318 313 308 305 304 304 305 305 305 306 307 308 309 309 309 309 309 309 309 309 309 309 310 312 313 314 315 315 314
322 322 321 321 319 316 315 316 319 321 321 319 319 318 315 310 307 306 305 305 305 305 307 308 308 308 309 309 309 308 308 308 308 308 309 310 312 313 314 315 315 315
321 322 322 321 318 317 316 314 315 317 317 316 314 314 315 313 311 310 310 309 308 308 308 308 309 309 309 309 310 310 310 310 310 311 313 314 315 314 314 315 316 317
320 321 321 319 317 316 314 312 312 313 314 315 314 316 317 316 315 315 315 314 314 313 312 312 312 312 313 313 314 315 315 315 315 316 317 317 317 317 317 317 317 317
321 321 321 319 316 315 314 314 313 313 314 317 318 318 318 317 317 317 317 317 316 316 316 316 316 316 316 316 317 317 317 317 317 317 317 317 317 318 318 318 318 318
321 320 320 319 316 316 316 315 314 315 317 319 319 317 317 318 318 318 317 317 317 317 317 317 317 317 316 316 317 316 317 317 317 317 317 317 318 318 318 318 318 318
320 319 318 317 316 317 318 317 317 318 319 319 318 316 316 319 320 320 318 318 318 318 317 316 316 316 316 316 317 317 317 317 317 317 317 317 318 318 318 318 319 319
320 320 319 318 318 319 319 319 319 320 319 319 317 317 318 319 320 320 319 319 319 319 318 317 317 316 317 317 317 317 318 317 318 318 318 317 318 318 318 318 318 319
319 320 320 319 320 320 319 319 319 319 319 319 317 317 318 319 319 320 320 320 320 319 319 318 318 318 318 318 318 318 318 318 318 318 318 318 318 318 318 318 318 318
316 317 317 317 318 318 319 319 319 319 319 319 318 318 318 319 319 319 320 320 320 320 320 320 319 319 319 319 319 319 319 319 319 319 319 319 319 319 319 319 319 319
311 312 314 314 315 316 316 317 317 317 317 317 317 317 318 318 318 318 319 319 318 318 318 318 318 318 317 317 317 317 317 317 317 317 318 317 317 317 317 316 317 317
308 309 310 310 311 312 312 312 313 314 314 314 315 316 316 316 316 316 316 317 316 316 316 316 316 315 315 315 315 314 314 314 314 314 314 314 314 313 313 313 313 313
308 308 309 308 308 309 308 309 309 309 309 309 310 312 313 313 314 314 314 314 314 314 314 314 314 314 314 314 313 313 313 313 313 313 313 312 312 312 312 311 311 311

ECMWFNIL_850_thetae_057.txt.gz
Theta_e
327 325 326 325 319 317 318 317 316 315 314 314 315 315 316 316 316 318 320 321 321 319 315 312 315 318 318 318 318 317 319 321 322 322 322 322 323 323 323 323 324 324
325 324 327 326 320 319 319 317 317 316 314 315 316 317 317 317 316 316 318 320 320 317 312 308 312 315 316 317 317 317 319 321 322 322 322 322 322 322 323 323 323 324
325 326 328 326 321 320 319 317 319 318 314 313 314 317 318 318 316 314 315 317 318 316 310 307 309 314 316 316 317 319 321 322 322 322 322 321 320 321 322 322 323 323
326 327 328 326 322 320 318 317 319 318 313 311 311 315 318 318 317 315 313 314 314 314 310 306 308 313 315 316 317 320 321 321 321 321 320 319 319 321 322 322 323 323
327 328 328 326 322 320 317 317 318 315 312 311 309 310 313 316 317 315 313 311 311 311 309 306 307 312 315 315 317 319 320 320 319 319 319 319 319 320 321 322 322 322
327 327 327 325 322 321 318 316 316 314 313 312 309 307 308 311 314 314 312 309 308 309 308 305 307 312 314 314 314 316 317 317 316 315 316 317 318 318 320 321 321 320
327 328 326 324 323 322 318 315 315 315 315 313 310 307 306 307 309 310 309 306 306 307 307 305 306 310 313 312 312 313 314 314 313 312 312 314 316 317 318 319 320 320
328 327 325 323 324 322 317 315 315 316 316 315 312 309 307 305 306 307 306 305 305 306 306 305 305 307 309 310 310 311 311 311 310 310 309 311 315 316 317 317 318 319
327 325 324 324 324 320 316 315 316 317 318 317 315 311 307 305 305 305 305 305 305 305 305 305 304 305 306 308 309 309 309 308 307 307 307 309 313 316 316 316 316 317
327 324 324 325 324 318 315 316 317 318 319 319 318 313 307 305 305 305 305 305 304 305 305 305 305 304 305 307 308 308 308 307 307 307 307 308 311 314 315 315 315 316
327 324 325 326 322 317 315 316 318 320 320 320 320 317 310 305 305 305 305 304 304 304 305 305 304 304 305 306 307 308 308 308 309 309 309 309 309 310 312 313 313 314
327 325 325 325 321 317 316 317 319 321 321 321 320 319 314 308 305 305 305 304 304 304 304 305 304 304 306 307 308 309 309 309 309 309 310 309 309 309 309 309 310 311
327 325 326 325 320 317 318 318 319 322 322 321 320 320 316 310 306 305 304 304 304 304 304 304 304 305 306 308 309 309 309 310 309 309 310 310 310 310 310 310 310 310
327 326 325 324 319 317 319 318 318 322 322 321 320 319 316 312 308 305 304 304 304 304 305 305 305 306 307 309 309 309 310 310 309 310 310 310 311 312 312 313 314 313
326 325 323 322 318 318 320 317 316 321 322 320 319 318 316 313 309 306 305 305 305 305 305 305 306 307 309 309 310 310 310 310 310 310 310 310 311 312 313 314 315 315
324 323 321 321 320 320 320 316 317 321 322 320 320 319 316 313 310 308 306 305 305 305 305 306 307 309 310 310 310 310 310 310 310 310 309 311 313 314 314 314 314 316
323 322 321 321 321 321 319 316 316 319 320 319 318 317 314 313 313 312 310 308 307 307 307 307 309 310 310 310 310 310 311 311 312 312 312 314 316 317 316 316 316 317
322 322 321 321 321 320 319 317 316 317 318 317 315 314 313 313 313 313 312 312 312 311 311 311 312 312 312 312 312 313 314 314 315 316 316 317 317 317 317 317 317 318
322 322 321 321 321 320 319 317 316 315 316 315 315 314 314 313 311 310 312 315 315 315 315 315 315 315 315 315 315 315 316 316 316 317 317 317 317 317 317 318 318 318
321 321 321 321 320 319 317 315 314 313 314 315 315 314 314 314 313 314 315 317 317 317 317 317 316 316 316 316 316 316 316 316 316 316 316 317 317 317 317 317 318 318
320 320 319 319 318 317 316 316 315 314 314 315 315 315 316 316 316 316 318 319 318 318 317 317 318 317 316 316 316 316 316 316 316 316 316 317 317 317 317 317 318 318
319 319 318 317 317 316 317 318 318 317 317 317 316 317 318 318 317 318 319 320 320 319 318 318 318 318 317 317 316 316 317 317 317 317 317 317 317 317 317 317 318 318
318 318 319 318 317 318 318 319 319 319 318 317 318 318 317 316 318 320 320 320 320 320 320 319 319 319 318 318 318 318 318 318 319 319 318 319 319 319 319 319 319 319
316 317 318 318 317 318 318 318 318 318 317 316 317 318 317 315 317 319 319 319 319 319 319 318 318 318 319 319 319 319 318 318 318 318 318 318 318 318 318 318 318 318
313 315 316 316 317 317 316 316 316 316 315 315 316 316 316 315 316 316 316 316 316 316 316 316 316 316 316 317 317 317 317 316 316 316 315 315 315 315 314 314 314 314
309 310 311 312 313 313 313 313 313 312 313 314 314 314 315 314 314 314 314 314 314 313 313 314 313 313 313 314 314 314 314 314 314 313 313 313 313 313 312 312 312 312

ECMWFNIL_850_thetae_060.txt.gz
Theta_e
330 330 327 324 325 322 320 326 327 325 325 325 323 323 323 320 318 319 321 320 320 319 318 318 319 320 319 318 319 320 323 323 322 322 322 324 326 327 328 329 329 329
327 329 327 324 325 321 317 323 326 324 324 324 324 325 324 320 318 320 320 321 320 318 315 316 319 319 319 319 319 319 321 321 321 322 322 323 324 325 326 327 328 329
324 328 327 324 323 320 316 322 325 325 324 324 325 324 320 316 318 319 319 321 320 315 311 312 317 319 318 317 317 319 320 320 321 322 322 323 323 323 324 325 326 327
324 327 327 323 321 319 317 321 324 324 323 323 322 320 316 313 316 317 318 320 318 312 307 309 314 317 317 317 318 319 320 321 321 321 321 322 322 323 323 324 324 325
325 327 328 324 321 320 318 320 324 323 321 321 320 319 317 315 316 316 318 320 317 311 307 308 313 317 317 318 320 321 321 321 321 320 320 321 322 323 323 323 323 323
325 326 328 326 321 320 318 320 324 323 320 320 320 320 320 319 318 318 319 320 317 311 307 308 313 317 318 319 320 320 320 320 320 320 320 320 321 321 321 322 322 322
326 326 328 326 322 320 319 320 323 323 320 318 319 320 320 321 321 320 320 321 318 313 309 309 313 316 318 318 319 320 319 318 319 319 319 319 320 321 320 321 322 322
326 327 328 326 322 321 321 321 322 322 318 316 316 317 319 321 322 320 320 320 319 317 313 311 314 317 318 319 319 318 317 317 317 318 319 319 319 320 320 321 321 321
326 327 328 326 322 322 322 321 321 320 317 315 313 312 316 320 319 317 318 319 318 317 313 311 315 316 316 318 318 316 316 315 315 316 318 319 318 319 320 319 319 319
326 327 327 324 322 322 321 320 320 319 320 320 314 309 313 317 316 315 318 318 317 316 312 310 312 313 315 317 316 316 315 313 312 314 317 318 318 318 319 318 318 317
327 327 326 323 323 322 320 320 321 320 321 322 318 311 309 311 313 316 318 317 315 315 313 311 310 310 312 314 312 313 314 312 312 314 316 317 317 317 318 318 318 317
327 326 325 323 323 322 319 320 322 321 321 322 320 314 307 307 311 315 317 316 315 316 315 312 311 310 311 311 310 311 312 312 312 312 313 314 314 315 316 316 317 316
325 325 323 323 323 320 318 321 322 322 322 322 321 317 310 308 312 314 316 317 316 315 316 314 311 310 311 311 312 312 312 312 311 311 312 312 313 314 313 313 315 315
324 323 322 323 322 319 318 321 323 322 322 321 320 318 315 314 314 314 316 318 317 316 316 313 310 310 311 313 314 313 313 312 312 312 313 311 312 313 312 313 316 315
322 322 322 321 322 320 319 321 322 322 322 321 319 317 317 318 318 316 315 316 317 317 316 313 313 313 312 314 316 315 314 314 314 314 315 314 313 314 312 313 316 317
323 323 322 320 321 322 320 320 322 323 322 321 319 316 315 316 317 316 316 317 317 317 316 314 314 313 310 311 313 314 315 316 315 313 315 315 316 316 315 314 315 316
325 324 323 321 321 322 322 320 321 322 322 320 319 316 314 314 313 313 315 317 317 318 317 314 311 309 308 309 310 310 313 314 315 315 314 314 316 317 317 316 316 316
323 323 322 321 320 321 322 321 320 322 322 320 319 317 315 314 314 313 313 314 315 315 314 311 308 308 309 310 309 310 310 310 313 316 314 314 317 318 318 319 318 318
321 320 320 321 321 320 320 318 318 319 320 319 319 317 314 313 314 314 315 316 314 312 311 310 309 309 309 309 310 310 310 310 312 315 315 316 318 319 319 320 320 320
320 320 320 320 320 320 319 318 318 318 317 318 318 317 314 313 312 312 314 316 315 314 314 313 312 312 311 311 311 311 312 313 315 315 316 317 318 319 319 320 319 320
320 320 320 320 321 321 320 318 317 317 316 317 317 316 314 314 313 311 312 313 312 310 310 310 312 315 315 314 315 315 315 316 316 317 317 317 317 317 317 318 318 318
320 320 320 320 319 319 318 316 315 314 314 315 315 315 316 316 315 314 314 313 311 310 310 312 314 317 317 317 317 317 317 317 316 316 317 317 317 317 316 317 317 317
319 319 318 318 318 318 317 317 316 315 315 315 315 317 318 318 317 317 315 314 314 315 317 318 318 318 318 318 318 317 317 317 317 317 317 317 318 318 318 318 318 317
318 318 318 318 318 318 318 318 318 318 317 317 318 318 318 319 318 318 317 317 318 319 319 319 319 319 319 319 318 318 318 318 317 318 318 319 319 319 319 319 318 318
316 317 317 317 317 317 317 317 317 317 316 316 317 317 317 317 317 317 318 318 318 318 318 318 318 318 318 318 319 318 319 318 318 317 317 317 317 317 316 316 316 316
314 314 315 315 315 315 315 315 315 315 315 315 315 316 316 316 316 316 316 317 316 317 317 317 316 317 316 317 317 317 317 317 316 315 315 315 315 314 313 313 313 314

ECMWFNIL_850_thetae_063.txt.gz
Theta_e
324 322 323 326 328 327 327 329 329 329 329 328 328 327 328 327 323 324 325 321 320 320 319 320 321 322 323 323 324 327 329 328 326 326 324 326 327 325 325 327 325 326
323 322 324 326 328 328 326 328 329 328 328 328 327 327 327 327 325 326 325 321 321 319 316 318 318 320 323 322 321 324 327 327 326 325 323 326 327 325 325 327 325 325
322 322 324 325 328 327 323 326 329 328 328 327 327 327 327 326 326 326 325 324 324 320 316 318 319 322 325 323 321 324 325 325 324 324 324 326 327 326 325 326 326 325
322 323 323 322 327 326 320 325 329 327 327 328 327 327 327 326 325 325 326 325 324 319 314 316 320 324 325 323 323 324 324 323 322 322 324 325 326 326 326 326 327 326
322 324 322 322 326 325 322 326 329 327 328 328 327 327 326 325 326 325 325 325 324 320 314 315 322 325 324 323 324 324 324 324 323 323 324 323 324 326 326 326 326 326
322 324 324 324 324 324 325 327 328 327 327 327 327 326 324 324 326 326 325 325 324 320 316 318 323 324 323 324 324 323 323 323 323 323 324 323 324 325 326 327 326 327
323 323 324 325 323 322 325 327 327 327 327 326 327 326 324 324 326 326 325 325 323 320 318 321 324 323 323 323 323 322 322 322 322 322 323 324 324 324 326 327 327 328
323 321 321 323 323 321 324 326 327 326 325 326 327 326 325 325 326 326 325 324 323 321 319 321 324 323 323 323 322 322 322 321 321 321 321 323 324 324 324 325 326 327
325 323 319 322 322 320 323 326 327 326 325 325 326 326 326 326 326 325 325 324 322 320 319 321 323 323 322 322 322 321 321 320 321 321 322 323 323 323 324 324 324 325
327 324 320 321 322 321 324 327 327 326 325 325 325 326 325 326 325 324 324 324 322 320 318 320 323 323 321 322 321 320 320 319 319 321 321 321 322 323 323 324 323 324
327 327 325 325 325 324 325 326 326 325 325 324 324 324 325 325 324 322 323 323 321 319 317 319 322 322 321 321 320 319 318 317 318 320 320 320 321 321 322 323 323 322
327 327 328 328 327 325 324 326 326 325 325 324 322 322 324 323 322 321 322 322 320 318 317 317 320 321 321 320 319 318 317 317 317 319 320 320 320 320 321 321 322 322
327 327 328 327 326 325 324 326 326 324 325 324 323 322 322 321 321 321 321 320 319 318 317 316 317 319 320 319 319 318 318 318 319 319 320 320 319 319 320 320 320 320
327 328 328 326 325 324 324 324 323 323 324 324 323 322 320 319 320 320 320 319 318 318 318 317 317 318 318 319 318 319 319 320 319 319 319 319 319 319 320 320 320 319
327 327 327 326 324 324 324 323 323 323 325 324 323 321 319 319 319 319 320 320 319 318 318 318 318 318 318 318 318 319 319 319 319 319 319 319 319 319 319 320 320 319
327 326 326 326 325 324 324 325 324 325 325 324 322 321 320 320 319 319 320 321 320 319 319 318 318 318 318 318 318 319 319 319 319 320 319 319 319 319 319 320 321 321
326 326 325 325 326 325 325 325 324 324 324 322 322 321 321 321 320 319 319 320 320 320 319 318 318 318 318 318 319 319 319 319 319 319 319 319 319 320 320 319 320 320
325 325 324 325 325 324 324 324 324 323 323 322 321 320 319 320 320 320 320 319 319 320 320 318 317 317 317 317 318 318 319 320 320 319 319 318 319 319 319 319 320 320
324 323 322 322 323 323 323 324 324 323 323 322 320 318 316 315 316 317 318 319 319 319 318 316 315 315 314 315 316 317 318 318 319 321 321 319 319 319 319 319 319 319
323 323 322 321 322 322 322 322 323 323 321 320 319 317 314 314 313 312 313 315 316 315 314 313 313 312 311 312 313 313 313 313 314 318 320 320 320 319 320 321 321 321
322 322 321 321 322 321 320 320 320 320 319 319 319 317 315 314 313 312 313 313 313 312 313 313 312 312 312 312 311 311 310 310 311 313 316 319 320 320 321 322 322 322
320 319 319 320 320 320 320 319 318 318 317 317 318 317 316 315 314 313 312 312 311 312 313 311 311 311 311 311 311 310 310 312 314 313 316 320 321 322 322 322 322 322
319 319 319 320 319 319 319 319 318 318 317 317 317 317 317 316 315 313 312 311 311 312 312 310 309 309 309 310 310 309 311 315 316 316 319 322 323 323 323 322 322 322
319 319 319 318 318 317 317 317 317 316 316 316 315 315 316 316 316 315 314 313 313 314 313 312 311 311 309 309 309 310 313 317 317 318 319 321 321 322 322 321 321 320
318 318 318 318 317 317 317 316 316 316 315 315 316 316 317 317 317 317 317 317 317 317 317 315 314 314 313 312 313 315 317 318 318 318 319 319 319 320 319 319 318 318
317 317 317 317 317 317 317 317 317 317 317 317 317 317 317 317 317 318 317 317 318 318 318 318 317 317 316 316 317 318 318 318 317 317 317 317 317 317 317 316 315 314

ECMWFNIL_850_thetae_066.txt.gz
Theta_e
327 327 324 322 325 325 325 326 325 328 328 326 327 326 327 327 324 324 324 322 323 325 324 322 322 324 325 327 328 328 329 328 327 327 327 327 326 325 326 327 326 326
327 326 323 324 326 324 325 326 325 326 327 327 327 326 327 326 322 324 325 322 322 324 322 320 319 321 322 322 324 326 328 328 327 327 327 326 326 326 326 326 326 327
327 326 323 324 324 320 323 328 327 325 325 328 328 327 327 325 320 321 321 321 324 324 323 322 319 321 322 320 320 322 324 326 326 326 326 326 326 326 326 326 325 327
327 325 323 324 323 319 321 327 328 326 326 328 327 327 328 324 319 319 320 324 326 324 324 323 321 324 325 322 320 320 321 323 323 324 325 326 326 326 327 327 326 326
325 323 324 325 324 320 321 325 327 327 327 328 327 327 328 326 322 321 323 326 325 322 321 321 322 326 326 325 323 321 321 321 320 322 323 323 325 326 327 328 327 326
324 323 325 326 324 322 321 324 326 327 328 328 327 327 327 325 324 325 325 326 323 318 315 318 324 326 325 325 325 322 323 322 321 323 323 321 323 326 327 328 328 327
322 323 326 325 323 320 317 321 325 327 328 327 327 327 324 323 325 326 325 325 322 316 311 316 323 324 324 325 324 323 324 323 322 324 325 323 323 325 327 327 328 328
322 324 325 322 320 318 316 321 325 326 328 327 327 327 322 321 326 327 326 325 322 318 316 318 323 323 323 324 323 323 323 322 321 323 324 324 324 325 326 327 327 328
323 326 325 321 319 319 319 323 324 325 327 326 327 326 320 320 325 325 325 325 322 320 320 321 324 324 323 323 322 322 322 321 321 322 323 324 324 325 325 326 327 327
326 326 326 322 320 322 322 322 323 323 324 325 326 325 321 323 326 324 324 325 322 321 320 320 324 324 322 323 323 322 321 321 322 322 323 323 324 324 324 325 326 326
327 326 326 324 322 324 323 322 322 322 323 325 327 326 324 325 326 324 325 324 322 320 319 320 323 323 322 323 322 321 321 320 321 322 322 322 323 323 324 324 325 325
326 325 326 325 324 324 324 322 322 321 322 326 327 326 324 324 325 324 325 324 321 319 318 321 323 322 322 322 321 320 320 318 320 321 321 321 322 322 322 323 324 324
325 324 325 325 324 323 323 323 323 322 324 325 326 326 323 323 324 323 323 323 320 318 318 320 322 322 321 321 320 319 318 317 318 320 321 321 321 321 322 322 323 323
325 325 326 326 324 323 323 323 323 324 325 324 324 323 321 321 322 322 322 322 319 318 318 318 320 321 321 320 319 318 318 318 319 320 321 320 320 321 321 321 321 322
326 327 327 326 326 324 323 323 324 325 325 323 322 321 319 320 322 321 321 320 319 319 318 317 318 320 320 320 319 319 319 319 320 320 320 319 320 320 320 320 320 320
327 327 326 326 326 324 323 324 324 324 324 323 322 320 319 320 321 320 320 320 319 319 318 317 317 318 319 319 319 319 320 320 319 320 319 319 320 320 320 320 321 320
326 325 323 323 323 324 325 325 324 324 324 323 321 319 319 320 320 320 320 320 319 318 318 318 318 318 318 318 319 320 320 320 320 320 319 319 319 320 320 320 321 321
325 323 322 323 323 325 326 325 325 324 324 322 321 320 320 320 319 319 320 320 319 319 319 319 318 318 318 318 319 319 319 320 320 320 320 319 320 320 320 319 320 320
327 325 324 325 325 324 325 325 325 324 323 322 321 321 321 320 319 319 319 320 320 320 319 319 318 318 318 318 319 319 319 320 319 319 319 319 319 319 319 319 319 319
327 327 326 325 325 324 324 324 324 323 322 322 321 321 320 319 319 320 320 320 320 320 320 319 318 318 318 318 318 319 320 320 320 320 321 320 319 320 319 320 320 320
326 326 326 325 324 324 324 324 324 323 322 322 320 318 317 315 315 318 320 320 319 318 317 316 315 315 315 316 317 319 319 320 319 319 319 318 318 318 319 319 320 321
325 325 324 323 323 323 323 323 323 321 320 319 318 316 314 312 310 312 314 314 313 311 309 310 311 310 310 312 314 315 316 316 314 313 313 313 314 316 318 319 320 321
323 323 322 321 322 322 322 321 320 318 317 318 317 315 314 313 312 311 311 310 310 309 308 308 308 309 310 311 312 312 312 311 311 310 310 311 311 313 316 317 318 320
319 319 319 319 320 320 320 319 318 317 317 317 317 317 316 316 316 316 315 313 312 311 310 309 309 310 310 310 310 310 310 310 310 309 310 310 310 312 314 315 316 318
318 318 318 318 319 319 319 318 318 316 316 317 317 316 316 316 316 316 316 314 313 311 310 310 310 311 311 311 311 310 310 309 309 309 310 310 310 313 317 317 317 318
317 317 317 317 317 317 317 317 316 316 316 316 316 316 316 317 317 316 316 315 314 314 314 313 312 312 312 313 313 311 310 309 309 309 309 310 313 316 318 318 317 317

ECMWFNIL_850_thetae_069.txt.gz
Theta_e
330 330 328 327 327 325 325 327 328 329 330 330 329 328 327 327 326 325 325 325 323 321 324 324 323 326 328 329 329 327 327 326 326 327 326 326 326 326 327 327 326 326
330 328 328 328 327 326 327 327 327 329 329 329 328 327 326 325 324 324 324 324 325 323 323 323 323 324 326 328 328 328 328 327 326 327 327 326 326 325 326 326 326 326
330 328 328 329 327 327 328 327 326 327 327 327 327 326 326 325 324 324 324 324 326 324 322 321 322 322 324 326 326 326 327 327 326 326 326 326 325 325 326 326 326 326
330 328 329 329 327 328 328 327 327 328 326 326 327 326 325 326 323 322 324 324 324 323 319 318 319 320 322 323 322 323 325 326 327 326 325 326 326 326 326 326 327 327
329 329 328 327 327 328 328 327 327 328 327 328 327 326 325 324 320 320 323 324 324 322 319 319 322 323 322 320 319 321 324 324 325 325 325 325 326 327 327 326 327 327
330 329 327 326 327 329 329 328 328 328 328 328 327 326 325 322 319 321 323 324 324 322 320 323 326 325 323 319 318 320 321 321 322 323 324 325 326 327 327 326 327 327
329 329 327 326 327 328 329 329 327 326 327 327 326 326 325 322 321 322 322 323 322 320 322 326 326 326 324 320 320 321 320 320 322 322 323 325 326 326 327 327 326 326
329 328 326 327 328 328 329 329 327 326 327 326 325 326 325 323 323 323 323 323 318 316 323 326 325 325 324 321 322 323 322 322 323 324 323 322 324 326 327 327 326 326
330 328 326 326 328 328 328 328 327 327 327 326 325 325 324 324 325 325 324 321 316 316 322 324 323 325 324 322 323 323 322 322 323 325 324 321 322 326 327 327 327 326
330 328 325 326 328 328 328 328 328 327 327 327 325 322 323 326 326 325 324 322 319 318 320 322 323 323 323 322 322 321 321 322 322 324 323 321 323 326 326 327 327 326
329 327 324 326 328 328 328 328 327 326 327 327 323 318 322 327 325 323 324 323 321 319 320 323 324 322 322 323 322 320 321 322 323 323 322 322 323 325 325 326 327 326
329 325 324 327 328 327 328 327 324 324 326 324 318 318 323 327 324 323 323 323 321 318 320 324 323 321 323 323 321 320 320 321 322 322 322 323 323 323 325 326 326 325
328 324 324 327 328 327 328 326 323 324 325 320 318 321 325 326 324 324 324 322 320 318 320 323 322 321 322 321 319 319 319 320 321 321 322 323 322 321 323 325 325 324
327 324 324 326 327 327 327 326 325 325 323 320 322 324 325 325 324 324 324 320 318 318 321 323 322 320 322 321 319 318 318 318 320 321 322 323 322 321 322 323 323 322
326 325 325 326 327 327 327 326 326 325 324 324 324 324 325 325 324 323 322 319 318 318 319 321 321 320 321 320 319 317 317 318 320 321 321 321 322 321 321 323 322 321
327 325 326 326 327 327 326 326 325 325 325 326 325 323 323 323 322 322 322 319 318 318 317 319 320 320 320 320 319 318 317 318 320 320 320 320 321 321 321 322 321 320
327 326 325 325 327 327 325 324 325 325 325 325 323 322 321 321 320 322 321 319 319 318 317 317 319 319 320 319 318 318 319 319 319 319 319 319 320 320 320 321 320 320
327 327 326 325 326 326 325 324 325 324 323 322 321 321 321 321 320 320 320 319 319 318 317 317 318 318 319 319 319 319 319 319 319 319 319 319 319 320 320 320 320 320
328 327 327 326 325 325 325 325 325 323 322 321 320 320 321 320 319 319 320 320 319 318 318 318 317 318 318 319 319 320 320 320 320 319 319 319 319 319 319 319 320 320
327 326 326 326 325 325 325 325 324 323 322 321 319 319 320 320 319 320 320 320 319 319 318 318 318 318 318 318 319 319 320 320 320 319 319 319 319 319 319 319 320 320
325 324 326 326 325 325 325 325 324 322 321 320 319 319 319 320 319 319 320 320 319 319 319 319 318 318 318 318 319 319 320 320 319 319 319 319 319 319 319 319 319 320
323 321 323 324 325 324 325 325 324 322 321 321 321 320 320 320 320 320 320 320 319 320 320 319 318 318 318 318 318 319 320 320 319 319 319 318 318 318 319 319 319 319
323 322 322 323 324 324 324 324 323 322 321 321 321 320 320 319 320 320 320 319 319 318 316 313 312 313 315 316 316 317 318 319 319 319 319 317 315 315 315 315 316 316
321 322 322 323 323 323 323 322 321 321 320 318 318 317 315 314 315 316 317 317 316 315 312 310 309 310 311 311 312 313 315 317 317 316 315 313 312 311 311 311 312 312
318 318 319 320 320 319 320 319 319 319 318 317 317 317 315 313 313 314 315 315 315 314 313 311 311 310 310 309 310 310 311 312 312 312 311 310 310 310 310 311 311 311
317 317 317 317 317 317 317 317 316 317 317 316 316 316 316 316 316 316 315 315 314 313 312 310 311 311 311 311 310 310 310 310 310 310 310 310 310 310 311 312 312 313

ECMWFNIL_850_thetae_072.txt.gz
Theta_e
333 333 332 331 330 330 328 327 327 330 330 329 329 330 329 329 328 327 326 327 327 326 327 327 328 329 329 330 329 328 327 326 325 326 327 327 328 329 329 328 328 327
333 332 331 331 330 329 327 327 329 330 329 329 330 330 329 329 328 327 326 326 326 326 327 326 327 328 329 329 329 328 326 325 325 326 326 326 327 328 328 327 327 327
332 332 331 331 330 328 326 328 330 329 329 330 330 330 329 329 329 328 325 324 324 324 325 325 326 328 329 328 328 327 325 324 324 325 325 325 326 327 326 327 327 326
331 331 331 331 330 327 327 329 330 329 330 330 330 329 329 329 329 327 325 323 321 322 323 324 325 327 328 328 328 327 326 325 325 325 325 325 326 326 326 327 327 326
330 331 331 330 329 328 327 329 329 329 329 330 329 328 328 328 328 326 324 322 321 322 322 323 324 325 326 327 327 326 326 325 325 325 326 326 326 325 325 327 326 326
331 331 330 330 329 328 327 329 330 329 328 328 328 327 327 327 327 325 325 323 322 321 319 321 323 322 322 324 323 324 325 325 325 325 325 326 326 325 326 326 326 326
331 331 329 330 329 328 328 328 328 328 328 328 328 327 327 327 326 326 325 324 323 320 318 320 321 320 320 320 320 322 325 325 325 325 325 326 326 326 326 326 326 327
331 330 329 330 329 328 328 327 327 328 328 328 328 327 327 327 326 325 326 325 322 320 319 320 321 320 319 318 319 322 323 323 323 323 324 325 325 326 326 325 326 327
330 330 330 330 329 328 328 327 326 327 328 328 328 327 327 327 326 325 327 325 322 322 322 322 321 320 320 319 320 321 322 323 323 322 322 323 324 326 326 325 326 327
329 330 331 329 328 328 328 328 327 327 328 328 327 327 327 326 325 326 326 323 320 323 324 324 323 321 321 322 321 322 323 323 323 324 323 321 321 324 326 326 326 326
329 330 330 329 328 328 328 328 328 327 327 327 327 328 326 325 325 326 323 317 317 323 324 324 324 322 322 323 322 322 322 321 322 324 323 320 320 323 326 327 326 326
329 329 329 328 328 328 328 329 328 327 326 327 327 327 325 325 326 324 320 315 316 321 324 324 324 322 322 322 322 322 321 321 322 323 321 321 323 324 326 327 327 326
330 329 329 328 328 328 328 328 328 327 327 328 327 326 326 326 325 323 321 318 318 321 323 324 323 322 322 321 321 322 322 322 322 322 322 322 323 325 326 327 327 327
330 330 329 328 327 328 328 328 328 327 327 328 326 326 326 326 323 322 322 319 319 322 323 323 322 322 322 321 320 321 322 322 322 322 322 322 322 324 326 326 327 327
330 329 329 328 327 328 328 328 327 327 327 326 325 326 326 324 322 323 322 319 319 322 323 322 322 322 321 320 319 320 320 321 321 321 322 322 321 323 325 325 325 324
329 329 330 329 327 327 328 327 326 326 326 324 324 326 326 324 322 323 322 319 318 321 323 322 321 322 321 319 317 318 319 320 320 321 322 321 320 323 324 324 323 323
329 329 330 329 327 327 328 326 324 325 325 324 325 326 325 324 324 324 322 319 318 320 323 322 320 321 321 319 317 316 318 320 320 321 322 321 320 322 323 322 321 321
328 330 330 329 327 327 327 325 324 325 325 325 326 325 324 324 324 323 320 318 318 319 321 321 320 320 320 319 317 316 318 320 320 320 321 321 320 321 322 321 320 320
327 328 329 328 327 327 326 324 323 324 325 326 326 325 325 324 323 322 320 318 318 318 318 319 320 320 319 319 318 316 317 319 320 319 320 320 320 320 321 321 320 320
326 327 328 328 327 327 326 324 322 323 325 326 325 324 324 323 322 322 320 318 318 317 317 318 319 319 319 319 318 317 318 319 319 319 319 319 319 320 320 320 320 320
325 327 327 327 326 327 326 324 323 323 325 325 324 323 322 321 322 321 320 319 318 317 317 317 318 319 319 319 319 319 319 319 319 319 319 319 319 320 320 320 320 320
324 325 326 326 326 326 325 324 322 323 323 323 322 321 321 320 320 320 319 319 318 318 318 317 317 318 319 319 319 319 319 319 319 319 319 319 319 319 319 320 320 320
323 324 325 325 325 324 323 322 322 322 322 321 321 321 321 320 320 320 319 319 318 318 318 317 318 318 319 319 319 319 319 319 319 319 319 319 319 319 319 319 320 319
321 322 323 324 324 323 321 321 322 321 321 320 320 320 320 320 320 320 319 318 318 318 318 318 318 317 318 318 318 319 319 319 318 318 317 317 317 317 317 316 317 316
318 319 321 322 323 322 322 321 321 320 320 320 320 320 320 319 319 319 319 317 316 316 316 316 316 316 316 316 317 317 317 318 317 317 316 315 315 315 315 315 315 313
316 316 317 318 318 318 319 319 318 318 318 317 317 317 317 317 316 316 315 313 311 311 311 311 311 312 313 313 314 315 315 315 315 315 315 315 315 315 314 314 313 311

ECMWFNIL_850_thetae_075.txt.gz
Theta_e
331 332 332 333 333 333 332 331 330 328 328 328 327 328 329 329 328 328 327 327 328 329 329 328 327 327 327 327 328 328 328 328 329 329 329 329 329 328 328 328 328 328
332 333 333 333 333 332 332 331 330 328 328 327 328 329 330 328 327 327 327 326 328 329 329 328 328 327 328 327 328 328 327 328 328 328 328 328 328 327 328 328 329 329
331 332 333 333 332 332 331 331 330 328 327 327 329 330 329 328 328 327 326 326 328 328 328 328 328 328 328 328 328 328 327 327 327 326 327 327 327 327 327 328 329 329
327 328 330 332 332 331 331 330 329 327 327 328 330 329 328 328 328 327 326 325 326 326 326 326 327 327 328 328 328 328 327 326 326 325 325 326 326 326 326 327 327 328
326 326 328 331 331 330 330 329 327 327 328 329 329 328 327 328 328 327 326 324 324 324 323 325 325 326 327 328 328 328 327 326 325 325 325 325 326 325 325 326 326 327
327 327 329 331 331 330 330 328 326 328 329 329 329 326 326 328 328 327 326 324 323 322 322 323 324 324 326 328 328 327 327 326 325 325 325 325 325 325 325 325 326 327
329 329 330 331 331 330 329 327 327 329 329 329 328 327 327 328 328 327 327 325 323 321 321 322 322 322 325 326 327 327 327 326 325 325 325 325 325 325 325 325 325 326
330 330 331 331 331 330 328 326 327 329 329 329 329 328 328 328 327 328 327 326 324 322 322 322 322 323 324 324 325 326 326 326 325 325 325 326 325 325 324 325 325 326
330 331 331 330 329 329 328 326 327 328 329 329 329 328 328 327 327 327 327 325 324 323 321 320 320 322 321 322 323 323 324 325 325 325 325 325 325 324 325 325 325 325
329 330 330 329 328 329 328 327 326 327 328 328 328 328 328 327 326 326 326 325 324 323 320 318 319 319 319 320 321 321 322 324 323 323 324 324 324 324 325 325 325 325
330 330 329 329 329 329 329 328 327 327 328 328 327 328 328 326 327 327 325 325 324 322 319 319 320 319 318 319 319 320 322 322 321 321 322 322 322 323 325 325 325 325
330 330 329 329 329 329 329 329 328 328 328 328 327 328 327 327 327 327 325 325 324 321 320 321 320 319 320 320 320 321 322 321 321 322 322 320 319 322 325 326 326 326
330 330 329 329 329 329 329 329 328 328 327 327 328 327 327 327 327 326 325 324 322 321 323 323 321 321 322 322 322 322 322 321 321 322 322 320 321 323 325 326 326 326
329 329 329 329 329 329 329 328 328 328 325 326 327 327 327 327 326 326 325 321 321 323 324 323 321 321 322 322 321 321 321 320 321 322 321 321 323 325 325 326 327 327
327 328 328 329 329 329 329 328 328 328 325 324 326 327 327 326 325 326 322 316 319 324 325 324 322 321 322 322 321 321 321 320 321 321 322 322 323 324 325 327 326 325
326 326 327 328 329 329 329 328 327 327 325 323 325 326 326 325 325 324 319 315 318 322 324 324 323 322 321 322 321 321 321 321 321 321 321 322 322 323 325 326 325 323
325 326 326 327 328 328 329 328 327 326 324 323 324 324 324 325 325 322 319 317 317 320 323 324 323 322 322 321 321 321 321 321 321 321 321 322 321 322 324 325 324 323
325 325 325 326 327 328 328 328 328 326 323 323 325 324 324 326 324 321 320 319 318 321 323 323 322 322 321 320 320 320 321 321 321 320 321 321 320 322 324 324 323 322
324 324 324 325 326 327 328 328 328 327 324 323 325 324 324 325 324 322 320 319 320 322 322 321 321 321 320 319 318 317 319 320 320 320 321 320 320 322 324 323 322 322
324 324 324 325 325 326 327 328 327 327 325 324 324 323 324 325 324 322 321 319 319 322 322 321 321 321 321 320 317 316 317 319 320 321 322 321 320 321 322 321 321 321
323 324 324 325 325 325 326 328 327 326 325 323 323 324 324 324 323 323 322 320 318 320 322 321 320 320 320 319 317 317 317 319 320 320 322 322 321 321 322 321 321 321
322 323 324 324 324 325 326 327 327 325 324 322 323 324 324 324 324 323 322 320 318 319 321 321 320 320 319 318 318 317 317 318 319 319 321 321 321 321 322 322 321 321
320 321 322 324 323 324 325 326 325 325 324 322 322 324 323 322 323 323 320 319 318 318 320 320 320 320 319 318 318 318 316 317 319 319 319 320 320 320 321 321 321 320
318 318 320 322 322 321 323 325 325 324 322 321 322 323 322 320 321 321 319 318 318 318 319 319 319 319 319 318 319 318 317 317 318 319 319 319 319 320 320 320 320 320
316 316 316 317 318 318 319 322 323 322 320 320 320 321 320 319 319 319 318 317 318 318 318 318 318 319 319 319 319 319 319 319 319 319 319 319 319 320 320 319 319 318
315 315 314 314 315 315 316 318 321 321 320 319 319 319 319 318 317 317 317 317 317 317 318 318 318 318 318 317 317 318 318 318 319 318 319 319 319 319 318 316 315 315

ECMWFNIL_850_thetae_078.txt.gz
Theta_e
327 324 324 325 327 329 329 330 331 330 330 331 330 330 329 327 325 326 327 328 329 328 327 328 329 328 327 327 328 328 327 326 326 327 328 328 328 329 329 329 329 328
330 329 327 326 328 330 329 330 331 331 330 331 330 330 328 327 327 328 329 329 329 328 327 328 329 328 328 328 328 328 328 327 327 328 328 328 328 328 329 328 329 328
330 330 330 329 329 330 329 330 331 331 330 330 330 330 328 327 328 330 330 329 328 327 327 328 328 328 328 328 328 328 328 328 328 329 328 329 328 328 328 328 328 328
329 330 329 330 331 331 331 331 332 331 330 329 329 329 328 328 329 330 329 328 327 326 326 327 328 328 328 328 328 329 329 328 328 329 328 328 328 328 328 328 328 328
329 329 328 328 330 330 330 330 331 330 330 329 329 328 328 328 329 329 328 327 325 325 326 327 328 328 328 328 329 329 329 329 328 328 328 327 327 327 327 327 327 328
330 329 327 326 325 325 327 328 329 329 329 329 329 327 328 329 330 329 326 325 324 324 325 327 328 328 328 328 329 329 329 329 328 327 327 326 326 326 326 326 326 327
329 329 328 325 323 323 326 328 329 329 329 329 328 326 327 329 329 327 325 324 325 324 325 327 327 328 328 328 328 328 328 329 328 327 326 326 325 325 325 325 325 325
329 329 328 328 327 326 328 329 329 329 329 328 326 326 327 329 328 326 325 325 325 324 324 325 325 326 328 328 328 328 328 328 327 327 326 325 325 325 325 325 325 325
329 329 328 329 329 329 329 330 329 329 328 327 326 327 328 329 328 327 326 327 326 325 323 323 323 324 326 327 326 328 328 327 327 326 326 325 325 325 325 325 325 325
328 328 328 329 329 328 328 329 329 328 327 326 327 329 329 329 328 327 328 328 327 325 324 322 321 323 325 325 326 327 328 327 327 326 326 325 325 325 325 325 325 325
327 328 328 328 328 328 328 329 329 328 326 325 327 329 329 329 329 328 329 329 327 325 324 322 321 322 323 324 325 326 327 326 326 326 325 325 324 324 325 325 325 325
328 328 329 328 329 329 329 329 329 327 326 325 325 326 329 329 329 328 328 328 328 326 324 322 321 321 322 323 323 323 324 324 324 325 325 324 324 324 325 325 326 326
327 328 329 329 329 329 329 328 329 328 327 326 325 326 328 329 328 327 327 328 327 325 324 322 321 320 320 321 321 320 321 321 322 323 323 322 322 323 324 325 326 326
326 327 328 328 329 329 328 328 329 329 327 327 326 326 328 328 328 327 327 327 326 325 324 322 321 320 320 320 319 319 320 321 322 322 322 321 321 322 323 324 326 326
324 325 326 327 328 328 329 328 329 329 328 328 327 326 327 327 327 327 327 327 326 325 325 323 321 321 321 320 319 320 321 321 322 322 322 321 322 323 324 324 325 326
323 324 325 325 326 327 328 329 329 329 329 329 327 326 326 327 328 327 327 326 325 326 325 323 322 322 322 322 321 321 321 321 321 321 322 321 322 323 324 325 325 326
322 323 323 324 325 326 326 327 328 329 329 329 328 326 325 327 328 326 327 327 325 325 324 323 324 324 322 322 322 321 321 320 320 321 321 321 323 323 323 325 326 326
321 322 322 323 324 325 326 326 327 328 328 329 329 327 325 326 327 326 326 326 326 325 323 323 325 324 322 322 322 321 321 320 320 320 321 321 322 322 323 325 326 324
320 321 321 323 323 324 325 325 326 326 327 328 328 326 324 325 327 326 325 326 325 323 321 323 325 324 322 322 321 321 321 321 321 320 320 321 322 321 323 325 324 323
320 320 321 322 323 324 324 325 325 325 326 328 328 326 324 325 325 325 325 325 322 319 320 323 325 323 322 322 321 321 321 321 321 321 320 321 321 321 323 323 322 321
318 319 320 321 323 324 324 324 325 325 326 327 327 326 325 325 325 325 325 323 320 319 322 324 324 323 323 322 321 320 320 320 321 320 320 321 320 321 323 322 321 320
316 317 319 319 321 323 324 324 324 324 324 326 327 326 325 325 325 325 324 322 319 320 322 324 323 323 322 321 320 318 317 318 319 319 320 321 320 321 323 323 321 321
314 315 317 318 319 321 322 322 323 322 323 325 326 325 326 325 324 324 324 322 320 320 322 323 323 322 321 321 319 317 316 317 319 319 320 322 321 321 322 323 321 320
313 314 315 315 316 318 320 320 320 320 320 322 324 325 325 324 322 323 324 323 321 320 321 322 322 321 321 321 319 317 316 317 318 319 320 322 322 322 322 322 321 320
313 313 313 314 313 314 316 318 318 318 318 319 321 323 323 321 320 322 322 321 321 320 319 320 322 321 321 320 319 317 317 317 318 319 319 321 321 321 321 321 320 320
313 313 312 312 312 312 312 314 314 315 315 316 318 319 320 318 317 317 317 317 319 319 319 320 321 321 320 319 318 317 317 317 318 318 319 320 320 320 320 320 319 319

ECMWFNIL_850_thetae_081.txt.gz
Theta_e
330 329 327 327 328 328 327 328 329 329 330 331 331 331 330 330 331 331 331 329 328 328 328 328 328 328 329 329 329 329 329 329 328 328 327 327 327 328 329 329 329 329
328 328 328 328 329 329 330 330 329 328 328 331 332 331 330 330 329 329 329 329 328 327 327 328 329 329 329 329 328 328 329 328 328 328 326 326 327 327 329 329 329 329
327 328 329 330 329 329 329 328 327 324 325 330 332 331 330 330 329 328 327 327 327 327 328 329 329 329 329 329 328 327 328 329 328 328 327 327 327 328 328 329 329 330
327 327 328 329 328 328 327 325 324 322 325 329 331 331 331 330 329 328 327 327 327 328 329 329 329 329 329 329 328 328 328 329 328 327 327 328 328 328 329 329 329 329
328 327 328 327 327 326 326 323 322 322 326 330 331 331 330 329 329 329 328 328 329 330 330 329 328 328 329 329 329 328 328 328 327 328 328 328 329 329 329 329 329 329
327 327 327 326 326 326 323 321 321 322 325 330 331 330 329 328 328 329 328 329 330 330 330 329 328 328 329 329 328 328 328 328 328 329 329 329 329 329 328 329 329 328
327 328 328 328 328 326 323 321 322 322 323 328 331 330 329 327 328 328 328 329 330 330 329 328 327 328 328 329 328 328 328 329 329 329 329 329 328 328 327 327 328 327
327 328 328 328 328 327 325 324 324 324 324 326 329 330 329 328 328 327 328 329 330 329 328 327 327 328 328 328 328 328 328 329 329 329 329 329 328 327 327 326 326 327
327 328 328 327 326 327 327 326 325 325 326 325 327 329 330 329 328 328 328 330 330 329 327 326 326 328 328 328 328 328 328 328 328 328 329 329 328 327 326 326 326 326
326 327 328 328 327 327 327 326 326 326 327 327 327 328 329 328 328 327 328 329 329 329 327 326 326 327 327 327 327 327 327 327 328 328 329 328 327 327 326 325 325 325
326 326 327 327 327 327 327 327 327 328 329 330 329 328 328 327 326 327 327 327 328 329 328 327 326 326 325 325 326 326 326 327 327 328 328 328 327 326 326 325 325 325
325 326 326 326 327 328 328 328 328 328 330 330 329 329 328 326 325 327 328 327 326 326 328 328 327 326 325 323 324 325 325 326 327 328 328 327 326 326 325 325 325 325
323 325 326 326 327 327 328 328 329 329 329 330 330 329 328 326 325 327 329 328 325 323 325 328 328 327 325 323 323 325 325 325 327 328 327 327 326 326 325 325 325 325
322 323 323 325 326 326 327 328 328 329 329 330 330 330 328 326 325 327 328 328 325 322 324 327 328 327 326 324 324 325 325 325 326 326 326 325 326 325 325 325 326 325
321 321 322 323 324 325 326 326 327 328 329 329 330 330 329 327 326 327 328 327 326 324 325 327 328 327 326 325 323 323 323 324 324 324 324 324 325 325 324 325 325 325
321 321 321 322 323 324 325 325 326 327 328 329 329 329 330 329 328 327 327 328 327 326 325 327 327 327 326 325 323 322 322 322 322 322 323 323 323 322 322 323 323 324
318 320 320 321 322 323 323 324 325 326 327 327 328 328 329 329 328 328 328 328 328 326 326 326 326 326 326 324 322 321 321 321 322 322 322 322 321 321 322 322 322 323
316 317 318 319 321 323 323 323 324 325 325 326 326 326 328 328 328 328 328 328 328 327 326 326 326 326 326 323 321 321 322 323 323 322 322 322 322 322 322 322 323 323
314 315 316 317 319 321 323 323 323 324 324 325 325 325 326 327 328 328 328 327 327 327 327 326 326 326 325 323 322 322 323 323 322 322 321 321 322 322 322 322 323 324
314 314 314 315 317 319 322 323 323 323 324 324 324 324 324 325 327 327 328 327 327 327 326 326 326 325 324 323 323 322 322 321 321 321 321 321 321 322 321 321 323 325
313 313 314 314 315 317 320 321 322 322 323 323 324 324 323 324 325 326 327 327 328 327 325 325 326 325 323 323 323 322 321 321 321 321 321 321 322 322 320 321 323 324
312 312 313 314 314 315 317 319 320 320 321 322 322 323 323 323 324 325 326 327 327 326 324 325 326 324 323 324 324 322 321 321 321 321 321 321 321 321 320 321 323 323
312 312 312 313 314 314 315 316 317 317 318 319 320 321 321 322 323 324 325 326 326 325 323 322 323 322 323 324 323 321 321 321 321 321 321 321 321 320 321 322 322 321
312 312 312 312 313 313 312 312 313 314 315 316 317 318 318 318 318 321 324 324 324 323 321 321 322 322 323 323 321 321 321 320 320 320 320 321 320 320 321 322 321 320
312 312 312 312 312 311 310 310 311 312 313 313 314 315 315 315 315 317 321 321 320 320 320 320 322 323 323 322 321 320 320 319 318 318 319 320 320 320 322 323 322 320
312 312 311 311 311 310 309 309 310 311 311 312 312 312 314 314 314 316 318 318 318 318 319 320 321 322 323 322 321 320 319 317 317 317 318 319 320 321 322 322 321 320

ECMWFNIL_850_thetae_084.txt.gz
Theta_e
329 330 331 330 331 331 330 329 327 326 325 326 325 325 326 326 327 330 330 330 330 331 331 331 331 330 330 331 331 331 332 331 330 332 332 331 332 331 331 331 330 330
328 330 330 330 331 331 330 330 329 328 327 327 326 326 325 324 325 328 330 331 331 331 331 330 330 330 329 330 330 330 331 331 330 332 333 332 332 331 330 331 331 331
328 330 330 329 330 331 330 330 330 330 329 328 326 326 325 324 324 327 329 330 331 331 331 330 330 329 328 330 330 330 330 332 332 332 333 332 331 331 330 329 330 331
327 328 329 329 329 330 330 330 331 330 330 328 326 326 326 324 324 327 328 328 329 330 330 330 329 328 328 330 331 329 330 332 333 333 332 332 331 331 331 330 330 330
326 327 328 329 329 330 330 330 330 329 328 325 324 326 328 327 325 326 327 327 327 329 330 329 329 328 328 330 331 330 330 332 333 333 332 332 332 332 332 332 331 330
326 327 328 329 329 329 329 330 329 328 327 326 324 326 328 329 327 326 327 327 327 328 328 328 329 329 329 330 330 330 331 331 332 333 333 331 332 332 332 331 330 330
326 326 328 328 329 329 330 330 329 327 327 327 326 327 329 330 329 328 328 328 328 329 328 329 330 331 330 331 332 331 331 331 332 333 332 331 332 332 331 331 330 330
327 327 328 328 329 329 330 330 329 328 327 327 327 328 329 330 330 330 328 328 329 329 329 330 330 329 330 332 332 331 332 332 333 333 332 331 332 331 331 331 330 329
326 326 327 328 328 329 329 329 329 329 329 328 328 328 329 330 331 331 329 328 328 327 327 329 329 328 329 330 330 331 332 333 333 333 331 330 331 331 330 330 330 329
324 325 326 327 327 327 328 328 329 329 329 328 329 329 329 330 330 331 330 329 328 327 327 329 329 327 327 328 329 331 333 333 333 332 330 329 330 329 327 328 330 330
322 323 324 325 326 326 326 327 327 328 329 329 328 328 329 330 330 331 331 330 329 328 327 328 328 325 323 325 328 329 331 332 333 332 330 329 329 327 326 328 330 331
321 321 322 323 324 324 325 326 327 327 328 328 329 328 329 330 330 331 331 330 329 328 326 326 327 324 322 322 325 329 331 331 332 331 329 327 326 326 328 330 331 331
321 321 321 321 321 322 323 324 326 327 327 328 328 328 329 329 330 330 330 330 329 328 326 326 326 325 323 322 322 327 331 331 331 331 329 326 325 327 330 331 330 331
319 320 320 320 320 321 321 323 324 325 326 327 327 328 328 329 329 330 330 329 329 328 327 327 327 323 323 323 321 323 329 331 331 332 330 328 328 329 331 331 330 330
316 317 318 319 320 320 320 321 322 323 325 326 326 327 328 328 329 329 329 328 329 329 328 328 327 323 322 324 322 321 327 331 330 331 331 330 331 331 330 331 330 329
315 315 316 317 318 320 320 321 322 323 324 325 326 327 327 328 328 329 329 328 328 329 329 329 328 325 323 326 323 322 326 329 329 330 330 330 330 330 330 330 329 329
314 314 315 316 317 319 321 322 322 323 323 324 325 326 326 327 328 328 329 329 327 327 329 329 329 326 325 327 326 324 325 327 327 327 327 327 327 327 328 330 329 329
313 314 315 315 316 318 320 321 322 322 323 323 324 325 325 326 326 327 327 328 328 328 328 329 329 327 326 327 327 326 325 325 326 325 324 325 324 324 326 328 327 328
312 313 314 315 316 317 318 320 321 322 322 323 323 324 324 325 325 325 326 326 327 328 328 328 328 328 326 326 327 327 325 323 324 325 323 323 324 323 324 325 325 324
311 312 312 313 314 315 316 317 319 320 321 322 322 323 323 324 324 324 324 324 325 326 327 327 328 327 326 325 327 327 324 321 322 322 322 324 324 324 324 325 324 323
311 311 311 311 312 313 314 315 316 317 318 319 320 320 321 321 322 323 323 324 324 324 325 327 328 327 325 325 326 326 323 322 321 322 323 325 325 324 324 324 323 323
312 311 311 311 311 312 313 313 314 314 315 316 317 317 318 319 320 321 322 323 323 323 324 326 327 327 325 325 325 324 323 323 322 322 323 324 323 323 323 323 322 321
312 311 311 310 311 311 311 312 312 313 313 314 314 315 316 316 317 318 319 320 321 322 323 325 326 327 326 325 325 324 323 323 322 322 322 322 322 322 322 322 321 319
311 311 310 310 310 310 310 310 311 311 312 312 313 313 313 314 314 315 315 317 318 320 321 322 324 326 325 324 324 324 323 322 321 321 321 321 321 321 322 322 320 319
311 310 310 310 309 309 309 310 310 310 311 311 311 311 311 312 313 314 314 315 316 317 318 318 320 323 322 322 322 322 321 321 320 320 320 321 321 321 321 321 321 321
309 309 309 309 308 308 308 309 309 309 310 310 311 311 311 311 312 313 314 315 315 316 317 318 319 320 319 318 319 319 320 320 320 318 319 319 319 320 320 321 322 322

ECMWFNIL_850_thetae_087.txt.gz
Theta_e
328 330 331 332 333 332 331 332 331 330 329 328 326 324 324 324 324 324 325 326 326 327 328 328 328 329 330 331 331 331 332 332 331 330 330 329 329 330 330 330 332 330
327 328 329 330 332 332 331 331 331 330 329 329 328 326 325 324 324 324 325 326 327 329 330 329 327 328 330 331 330 329 331 332 331 330 330 330 330 330 330 330 331 330
327 327 328 329 331 331 330 331 331 331 330 330 330 328 327 327 326 326 326 326 327 330 331 330 329 330 330 330 329 329 330 330 331 331 330 330 330 330 331 330 330 330
326 326 327 329 329 330 330 330 330 330 329 329 329 328 330 330 329 328 328 327 328 331 332 331 331 331 331 330 330 329 329 328 330 331 330 330 330 331 331 330 330 330
326 326 327 328 329 329 330 329 329 329 329 329 329 329 330 330 329 329 330 330 330 332 333 332 331 331 330 330 330 329 329 328 329 331 330 330 331 331 331 330 330 330
325 326 326 328 328 328 329 328 328 328 327 328 328 328 329 329 330 330 330 331 331 332 333 331 330 330 329 329 328 327 329 330 329 330 330 330 330 331 331 330 330 328
324 325 326 327 328 329 329 328 328 327 326 325 326 327 329 329 330 332 331 331 331 332 332 331 331 330 328 327 326 326 328 328 329 329 330 330 330 331 331 330 329 328
322 323 324 325 326 327 328 328 328 328 327 327 327 328 329 329 330 331 332 332 332 332 331 331 331 329 328 327 326 325 326 326 328 330 330 331 331 331 331 330 329 329
321 322 323 323 324 325 326 327 327 328 328 328 329 329 330 329 328 329 331 332 331 331 331 332 332 330 328 327 326 325 324 325 328 329 329 330 331 331 331 330 329 330
320 321 321 321 322 323 324 324 325 327 327 327 328 329 329 329 328 328 330 331 329 329 330 332 332 330 328 328 327 325 325 326 328 327 327 328 329 330 331 330 330 330
319 320 320 321 321 321 321 322 323 324 325 326 327 328 329 329 329 329 330 330 329 328 329 330 331 330 329 329 328 326 325 325 326 325 325 327 328 330 331 330 330 329
317 318 319 319 320 320 320 320 321 321 323 324 326 327 328 329 329 329 330 329 329 328 328 329 330 330 330 330 330 328 325 324 325 325 326 326 327 329 331 331 330 328
316 317 317 317 318 319 320 320 320 320 321 322 325 327 327 328 329 329 330 329 329 329 328 328 329 330 331 331 331 329 326 325 325 325 326 327 326 328 330 330 329 327
315 315 316 316 316 317 318 319 320 321 321 322 324 326 326 327 328 328 329 329 329 329 329 328 328 329 330 330 330 330 326 324 325 325 326 327 326 327 328 329 328 326
314 315 315 315 315 316 317 318 320 321 322 322 323 325 326 327 327 327 328 328 329 329 329 329 328 328 328 328 329 330 326 324 325 326 327 326 326 326 327 326 326 326
314 314 314 314 314 314 315 317 319 320 321 321 323 324 326 326 326 327 328 328 329 329 329 329 328 327 327 327 328 328 326 324 325 326 327 327 326 327 326 324 325 326
314 313 313 313 313 313 313 315 317 319 320 321 322 323 324 325 325 326 327 328 328 328 329 329 328 327 326 327 327 326 325 325 324 324 327 327 326 327 327 326 326 327
313 313 312 312 312 312 312 314 315 317 319 320 321 322 322 323 324 324 325 326 327 327 328 329 328 327 326 327 327 326 324 325 324 323 325 327 327 328 328 328 328 328
312 312 312 311 311 311 312 313 314 315 316 318 319 320 321 322 323 323 324 325 326 326 327 327 328 327 327 326 327 327 325 325 325 324 324 326 328 329 328 329 329 328
312 312 311 311 311 311 311 312 313 314 315 315 316 317 318 320 321 322 323 324 324 324 325 325 326 327 327 327 327 328 326 325 326 325 324 325 328 328 328 328 329 327
311 311 310 310 310 310 311 312 313 313 313 313 314 314 315 316 317 319 320 321 322 323 323 324 324 325 326 327 328 328 327 326 326 325 324 324 326 328 328 327 326 325
310 310 310 310 310 310 310 311 312 312 312 312 312 312 313 313 314 315 316 317 319 320 321 322 323 323 324 325 326 328 328 327 326 325 324 324 326 327 327 326 326 325
309 309 309 309 309 309 309 309 310 311 311 311 311 312 312 313 313 314 314 315 315 316 318 319 321 322 323 324 325 327 327 326 326 325 323 322 325 327 326 326 326 325
308 308 308 308 308 308 308 308 308 308 309 310 310 311 311 311 312 312 313 313 313 314 315 316 318 319 321 322 324 326 326 325 326 325 322 321 324 327 326 325 324 322
306 306 307 307 307 307 307 307 307 306 307 308 309 309 310 310 311 311 311 311 311 312 313 314 315 317 318 320 322 324 324 324 323 322 322 324 325 324 323 322 322 322
305 305 305 305 306 306 306 306 306 306 306 306 306 307 308 309 309 310 310 310 310 311 312 313 314 316 317 318 319 320 322 322 320 319 322 324 323 322 321 321 321 322

ECMWFNIL_850_thetae_090.txt.gz
Theta_e
326 326 326 327 329 330 331 331 332 332 332 332 332 332 330 330 330 329 329 329 329 329 328 328 328 329 330 330 330 330 331 330 331 331 331 330 329 328 327 327 328 330
325 326 325 324 326 329 330 331 331 330 331 331 331 331 330 330 329 329 329 329 329 329 329 330 330 330 330 331 330 330 331 330 330 331 332 331 329 329 328 328 328 329
324 325 325 324 325 328 329 330 330 329 329 329 330 330 330 329 328 328 329 329 329 329 330 330 330 331 331 331 330 330 331 330 330 330 331 330 330 329 329 329 328 328
322 324 325 324 325 326 328 329 329 329 329 329 329 328 328 329 328 328 328 329 329 329 329 329 330 331 332 331 330 330 330 330 329 330 330 330 329 329 329 329 328 329
321 323 325 325 324 325 326 328 329 329 329 328 328 327 327 328 328 328 328 328 329 328 328 329 330 331 331 331 331 331 330 330 329 329 329 329 329 329 328 328 328 329
321 322 323 324 324 324 325 326 327 328 329 329 329 327 326 326 326 326 326 327 328 327 326 328 329 330 330 331 331 331 330 330 329 329 329 329 329 328 327 327 327 328
320 321 321 322 322 323 323 324 325 326 327 327 329 328 328 328 327 327 327 327 328 328 326 326 327 328 329 330 330 330 330 330 330 330 329 329 328 327 326 326 327 327
319 319 320 320 321 321 321 322 323 324 324 325 326 327 328 328 329 328 328 328 329 330 329 328 327 327 329 330 330 329 329 330 330 329 329 329 329 328 328 327 328 329
318 319 319 319 319 319 320 320 320 321 322 322 323 324 325 327 328 329 329 329 328 327 327 328 329 328 328 329 330 329 329 330 329 329 330 331 330 329 329 330 330 329
317 317 318 318 318 317 318 319 319 320 320 321 321 322 323 324 326 328 328 329 329 327 326 328 329 329 328 329 329 330 330 329 328 329 330 331 329 329 330 331 330 328
316 316 317 317 317 316 317 317 318 319 320 320 321 320 321 323 325 327 328 329 329 328 329 329 329 329 329 329 329 330 330 329 329 329 330 330 330 329 330 331 330 328
316 316 316 315 315 315 316 316 317 318 319 320 321 321 321 323 325 326 327 328 329 329 329 330 329 329 329 329 330 329 329 329 328 328 329 329 329 329 330 330 330 329
315 315 315 315 314 315 315 315 316 317 319 319 320 320 321 322 324 326 327 327 328 329 329 329 329 329 329 329 330 329 329 328 326 325 326 326 327 328 328 329 329 329
315 314 314 314 314 314 315 315 316 317 318 318 319 319 320 320 322 324 326 326 327 328 328 329 328 329 329 329 329 330 330 328 326 325 325 324 325 326 327 328 329 329
314 313 313 313 313 314 315 315 315 316 317 317 318 318 319 320 321 322 324 325 326 326 327 328 328 328 329 329 329 329 329 329 328 328 325 324 324 325 326 328 328 328
313 313 312 312 313 312 313 314 315 315 316 316 317 317 318 319 320 321 322 323 324 325 326 327 328 328 329 328 329 329 329 328 328 328 325 323 323 324 326 328 328 328
312 312 312 311 311 311 312 313 313 313 314 315 315 316 316 318 319 320 321 322 323 323 324 325 326 327 328 328 329 329 329 328 328 327 325 324 323 324 327 328 328 328
311 311 311 311 310 310 311 311 312 312 313 314 314 314 315 316 316 318 319 320 321 322 322 323 324 325 326 327 328 328 329 329 328 327 326 324 323 323 325 327 329 327
310 310 310 310 310 309 310 311 311 312 312 312 312 312 313 314 314 315 316 316 318 319 321 322 323 324 325 326 327 327 328 328 328 328 326 324 324 324 324 325 328 328
309 309 309 309 309 308 308 309 309 310 311 311 311 311 312 312 313 313 314 314 315 316 318 319 320 322 324 324 325 326 326 327 328 328 327 326 326 326 325 326 327 328
308 308 308 308 308 307 307 307 307 308 309 309 310 310 311 311 311 311 312 312 313 314 315 317 318 319 321 323 323 324 325 326 327 327 327 327 327 327 326 326 327 327
307 307 307 307 307 307 306 306 306 306 307 307 308 309 309 309 309 309 310 311 312 313 313 315 316 317 319 320 321 322 323 325 325 325 326 327 328 327 326 326 326 326
306 306 306 306 306 306 306 306 305 305 305 306 306 306 306 306 307 307 308 309 309 310 311 312 314 316 317 318 319 320 322 323 324 325 325 326 327 326 325 325 326 327
304 304 304 305 305 305 305 305 305 304 304 305 305 305 305 305 305 305 306 306 306 307 308 310 311 314 316 316 317 318 319 321 323 324 324 324 326 326 324 324 326 327
304 304 303 303 303 302 303 303 304 304 304 304 304 304 304 304 304 304 304 304 304 305 306 307 309 311 313 315 316 316 317 319 321 322 323 323 324 325 324 323 325 326
303 303 303 302 302 302 302 302 302 303 303 303 303 303 302 302 302 302 302 303 303 304 304 305 306 308 310 312 315 316 317 318 318 320 321 322 323 323 323 323 323 323

ECMWFNIL_850_thetae_093.txt.gz
Theta_e
323 324 325 324 325 326 327 328 329 329 329 329 329 329 329 330 330 330 330 329 329 329 329 327 326 327 327 329 329 329 329 330 330 330 330 331 331 331 331 331 331 330
321 323 324 324 324 324 325 327 328 329 330 329 329 329 328 329 330 329 330 330 329 328 328 328 327 328 328 328 329 329 330 330 329 329 330 331 330 331 331 331 330 329
321 322 323 324 323 323 324 326 327 328 329 329 329 328 328 328 328 328 329 329 328 328 328 328 328 328 328 328 329 329 329 330 329 329 329 330 330 331 332 331 330 329
320 320 321 322 322 323 324 324 326 327 327 328 329 329 328 328 327 327 327 327 327 326 326 327 327 328 328 329 329 329 330 331 330 329 330 330 330 331 332 332 330 329
318 319 319 320 320 320 322 323 323 325 326 327 327 328 328 328 328 328 327 327 327 326 326 326 326 327 327 327 328 329 330 331 330 330 330 330 330 331 331 332 331 330
318 318 319 319 318 318 319 320 321 322 324 325 325 325 326 327 328 328 328 327 327 327 327 327 326 327 327 326 326 328 329 330 330 330 330 330 330 330 330 331 331 330
317 318 318 317 317 317 317 318 319 319 321 322 323 323 324 325 326 327 328 328 328 327 328 327 327 326 326 327 328 328 330 330 330 330 330 330 330 330 330 330 331 331
316 316 316 315 315 316 316 316 317 318 319 320 321 321 322 323 324 326 327 327 328 328 328 328 327 326 326 327 328 328 328 329 330 331 330 329 330 330 329 329 330 330
315 315 315 314 314 315 315 316 316 318 318 318 319 320 320 321 323 325 325 326 327 328 328 329 328 327 327 328 328 328 328 327 328 330 330 329 329 329 329 329 330 330
314 314 314 314 314 315 315 316 317 317 318 318 317 318 319 320 321 324 324 325 326 327 328 328 328 328 328 329 329 329 329 327 327 328 329 329 328 327 328 328 329 329
313 313 313 314 314 315 315 316 316 317 317 317 316 316 317 318 319 321 323 324 325 326 327 328 328 328 328 329 329 329 329 329 328 327 328 329 328 327 326 327 328 328
312 312 312 312 313 314 314 315 315 316 316 316 315 315 315 316 317 319 321 322 324 325 326 327 327 328 328 328 328 328 328 329 329 329 328 328 327 326 326 326 326 327
311 311 311 311 311 312 313 313 314 314 314 314 314 314 314 315 316 317 319 320 322 324 325 325 326 326 327 328 328 328 328 328 328 329 329 328 327 327 327 327 326 327
310 310 309 309 310 311 311 312 312 313 313 313 313 313 314 315 315 316 317 319 320 322 322 323 324 325 326 327 328 328 328 328 328 328 329 329 328 327 328 327 327 327
309 309 308 308 309 310 310 311 311 311 312 312 312 312 313 314 315 315 316 317 318 320 321 322 322 323 324 325 326 327 327 327 328 329 328 328 328 328 328 327 327 327
308 308 308 308 308 308 308 309 310 310 311 311 311 311 311 312 313 314 314 315 316 318 319 320 320 321 322 322 323 325 326 327 328 329 328 328 328 328 328 328 327 327
307 307 307 307 306 306 306 307 307 308 309 309 309 310 310 310 311 312 313 313 314 315 316 317 318 319 320 321 322 323 324 325 327 328 328 328 327 327 328 329 327 326
306 306 306 306 306 305 305 305 305 306 307 307 308 308 308 308 309 309 310 311 311 313 314 315 317 318 319 320 321 321 322 323 325 327 327 327 327 327 327 328 328 326
306 306 306 306 305 305 304 304 304 304 305 305 306 307 307 307 307 307 308 308 309 310 311 313 315 316 318 318 319 320 321 322 323 325 326 326 327 327 327 327 327 327
304 304 305 305 305 304 304 303 303 303 303 303 304 305 306 306 306 306 306 307 307 308 308 310 312 314 316 317 318 319 320 321 322 323 324 325 326 327 327 327 326 326
302 302 303 303 303 303 303 303 303 302 302 302 302 303 303 304 304 304 305 306 306 307 307 308 309 311 314 316 317 318 319 320 321 322 323 324 324 325 326 326 326 326
302 302 302 302 301 301 302 302 302 302 302 301 301 301 302 302 302 302 303 304 305 306 307 307 308 309 312 314 316 317 318 319 321 322 323 323 323 323 325 326 326 326
302 302 301 300 299 300 301 302 302 302 301 300 300 300 300 300 301 301 302 303 304 304 305 306 307 307 309 312 314 316 317 318 320 322 322 323 322 322 324 325 325 326
302 302 300 299 298 298 300 301 300 300 298 297 298 299 299 299 300 300 301 301 302 303 304 305 305 306 307 309 311 314 316 317 318 319 320 321 321 321 322 323 325 325
301 301 300 299 298 297 297 298 298 297 297 296 296 297 297 298 298 299 300 300 301 301 302 303 304 305 306 307 309 312 314 315 316 317 318 318 319 320 321 322 324 324
300 300 300 300 299 298 297 297 297 297 297 297 296 296 296 296 296 298 299 300 300 300 301 302 303 303 304 305 307 309 311 313 315 316 316 316 317 318 319 321 323 324

ECMWFNIL_850_thetae_096.txt.gz
Theta_e
326 325 325 325 324 325 325 324 324 325 326 327 328 328 327 327 327 328 328 328 329 329 329 328 327 327 327 327 327 328 328 328 328 328 328 329 329 330 330 331 331 331
322 323 323 324 324 323 323 323 325 325 324 326 327 327 327 327 327 327 327 327 327 328 327 327 327 327 327 327 328 328 328 328 328 329 329 329 329 330 330 330 331 331
320 320 321 322 322 322 323 323 324 324 323 324 326 326 327 327 327 327 327 327 327 327 327 327 327 327 327 327 328 328 328 328 328 328 329 329 330 330 329 330 331 331
319 319 319 319 320 320 321 322 322 322 323 323 323 324 326 327 327 327 327 328 328 328 328 328 328 328 328 328 328 327 327 327 328 328 329 329 329 330 329 330 330 330
318 318 317 317 317 318 318 319 320 320 321 321 322 322 324 325 326 327 326 326 327 327 328 328 328 328 328 328 327 327 327 326 327 328 329 329 329 329 329 330 331 331
316 316 315 315 315 316 316 317 318 318 318 319 320 321 322 323 324 324 324 324 324 325 326 327 328 328 328 328 327 326 326 327 327 328 329 329 329 329 329 330 331 331
314 314 314 315 315 315 315 316 316 316 317 317 318 319 320 321 322 322 322 322 323 324 325 326 327 327 327 327 327 327 328 329 328 328 328 329 329 329 329 329 330 331
313 314 315 315 315 315 315 316 315 315 316 316 317 318 319 320 320 320 320 321 322 323 324 325 326 326 326 326 327 327 328 328 328 328 328 329 329 329 328 328 329 330
313 314 315 314 314 315 315 315 315 316 316 317 317 317 318 318 319 319 319 320 322 323 322 323 324 324 325 326 326 326 327 326 327 327 327 328 329 329 329 329 329 329
312 313 314 314 314 315 315 315 315 315 316 316 316 316 316 317 317 317 317 318 320 320 321 322 322 323 324 324 325 326 326 326 326 326 326 327 328 328 329 329 329 329
311 312 313 313 314 314 314 314 314 315 315 315 315 315 315 315 315 316 316 317 318 319 319 320 321 322 323 324 324 325 326 326 326 327 327 327 327 327 328 329 329 328
310 311 312 313 313 313 313 313 313 313 313 314 314 314 314 314 314 315 315 316 317 317 318 318 319 320 321 322 323 325 325 326 327 328 327 327 327 327 328 328 329 328
309 309 310 311 311 311 311 311 312 312 312 312 313 313 314 314 314 314 314 315 315 316 317 317 318 318 319 321 322 323 324 325 326 327 328 327 327 327 327 327 328 328
307 308 308 309 309 310 310 310 310 310 310 311 311 312 312 312 313 313 313 314 314 315 315 316 316 317 319 320 321 322 323 323 324 326 326 327 327 327 327 328 327 327
306 306 306 306 307 308 308 309 309 309 309 309 310 310 310 311 311 311 312 312 313 313 314 315 316 316 317 318 319 320 321 322 322 323 324 325 326 327 327 327 327 327
305 305 305 305 305 305 306 306 307 307 308 309 309 309 309 309 309 310 310 310 311 311 312 313 314 315 316 317 318 318 319 320 321 321 322 324 325 326 326 327 327 328
305 305 304 304 304 304 304 304 304 305 306 307 307 308 308 308 308 308 309 309 309 309 310 311 312 313 315 316 317 317 318 319 319 320 321 322 323 324 326 327 327 327
303 303 303 303 303 303 303 303 303 303 303 305 305 306 306 307 307 307 307 307 308 308 309 309 310 311 313 315 316 317 317 318 320 320 321 322 322 323 325 326 326 327
301 301 301 302 302 303 302 301 301 301 301 302 303 304 304 305 305 305 306 306 307 307 307 308 309 309 311 313 315 316 317 318 320 321 321 322 322 323 324 325 326 326
300 300 301 301 301 301 300 299 299 299 300 301 302 302 303 303 303 304 304 305 305 306 306 307 307 308 309 311 313 315 317 318 319 321 321 321 322 322 323 324 324 325
298 299 300 300 299 299 298 298 298 298 298 299 300 301 301 301 302 302 303 303 304 305 305 306 306 307 308 309 311 313 315 317 318 319 320 320 321 321 322 323 323 324
298 298 298 298 297 298 298 298 298 297 297 298 298 299 300 300 300 301 301 302 302 303 304 304 305 305 307 308 309 311 314 315 317 317 318 319 320 321 321 322 323 324
298 297 297 297 297 297 297 297 297 297 297 297 297 298 298 299 300 300 300 301 301 302 302 303 303 304 305 306 308 310 312 314 315 316 316 317 318 319 320 321 322 323
298 298 297 297 297 297 297 296 296 296 296 296 296 296 297 298 299 299 300 300 300 301 301 301 302 302 303 304 306 307 309 311 312 314 315 316 316 317 318 319 320 321
298 298 297 297 296 296 296 296 296 296 296 296 296 296 296 296 297 299 299 300 300 300 300 301 301 301 302 303 304 305 307 308 309 311 313 313 314 315 316 317 318 320
298 298 297 297 296 296 296 296 296 295 295 296 296 296 296 295 296 297 298 299 300 300 300 300 300 300 301 301 302 303 304 305 307 309 309 309 310 312 315 316 317 320

ECMWFNIL_850_thetae_099.txt.gz
Theta_e
326 326 326 326 325 324 324 323 323 322 321 321 323 324 325 326 326 326 326 325 325 325 325 326 327 327 327 327 327 327 327 327 328 328 328 328 328 328 328 329 329 330
322 323 323 323 323 323 323 322 322 321 321 321 322 322 323 324 325 326 325 324 324 324 325 325 326 326 326 326 326 326 326 327 328 327 328 328 328 328 328 329 329 330
320 320 320 321 321 322 322 322 321 322 322 322 321 322 322 322 323 325 325 324 324 324 324 325 325 325 324 325 325 326 326 327 327 327 328 328 327 328 328 328 328 329
319 319 320 320 320 320 320 320 320 320 320 321 321 321 321 321 322 323 323 323 324 324 324 324 324 324 324 324 324 325 326 326 327 327 327 327 327 327 328 328 328 329
318 318 317 317 317 318 317 317 318 318 318 319 319 319 320 320 320 320 321 322 322 323 322 321 321 322 323 323 323 324 324 325 325 325 325 327 327 327 327 328 328 329
316 315 315 315 315 315 315 315 316 316 316 317 317 317 317 318 318 318 319 320 320 320 320 320 320 320 321 322 323 323 324 324 325 324 324 325 326 326 327 327 328 329
314 314 314 314 314 314 315 315 315 316 316 316 316 316 316 317 317 317 318 318 318 317 318 319 319 319 319 320 321 321 322 323 324 324 324 324 324 325 326 327 328 329
314 314 314 314 314 314 315 315 315 315 315 315 316 316 316 317 317 317 317 317 316 316 316 317 317 318 318 319 319 320 321 322 323 323 323 323 324 325 325 326 328 329
314 313 313 313 314 314 314 314 314 314 314 315 315 315 315 316 315 315 315 315 315 315 315 315 316 316 316 317 317 318 319 320 321 322 323 323 324 325 326 326 327 328
313 312 312 313 313 313 313 313 313 313 314 314 314 314 314 314 315 315 315 315 315 314 314 314 315 315 315 315 315 316 317 318 319 321 322 323 324 325 326 327 327 327
312 311 312 312 312 312 312 312 312 312 312 313 313 313 314 314 314 314 314 314 314 315 315 315 315 315 315 316 316 316 317 317 319 320 321 322 324 325 326 327 327 327
310 310 311 311 311 311 311 311 311 311 311 311 312 312 312 312 313 313 313 313 313 313 313 314 314 315 315 316 316 317 318 318 319 320 320 321 322 323 324 325 326 326
308 309 309 310 310 310 310 310 310 310 310 310 310 311 311 311 311 311 311 311 311 311 312 312 312 313 314 315 315 316 317 317 318 319 319 320 321 322 323 323 325 326
306 307 307 308 308 308 308 309 309 309 309 309 309 309 310 310 310 310 310 310 310 310 310 310 311 311 312 313 314 314 316 316 317 318 318 319 319 320 321 322 323 324
306 306 306 306 306 306 307 307 307 307 308 308 308 308 308 308 308 308 308 308 308 309 309 309 309 310 310 311 312 313 314 315 316 317 318 319 319 320 320 321 322 323
305 305 305 305 305 305 305 305 305 305 306 306 306 305 306 306 306 306 306 307 307 307 308 308 308 309 309 309 310 312 313 315 316 317 318 319 319 320 320 321 321 323
303 303 303 303 303 303 303 303 304 304 304 304 304 304 304 304 304 305 305 305 306 306 307 307 307 308 308 309 310 311 312 314 315 316 316 317 319 319 320 321 321 322
302 302 301 301 301 301 301 301 302 302 302 302 302 302 302 302 303 303 304 304 305 305 306 306 306 307 307 308 309 310 312 313 314 315 315 317 318 318 319 320 321 322
301 300 300 300 299 299 300 300 300 300 300 300 300 300 301 301 301 302 302 303 303 304 304 305 306 306 306 307 308 309 311 312 313 314 315 316 317 317 318 319 319 320
299 299 299 299 299 299 299 298 298 298 298 299 299 299 300 300 300 301 301 302 302 302 303 303 304 305 305 306 307 308 309 311 312 313 314 314 315 315 316 317 318 319
298 298 298 298 298 298 298 298 298 297 297 298 298 298 299 299 299 300 300 301 301 301 302 302 303 303 304 305 306 306 308 309 310 311 312 312 313 313 314 315 316 317
297 297 297 297 297 297 297 297 297 297 297 297 297 297 298 298 299 299 300 300 300 301 301 301 301 302 302 303 304 305 306 307 308 309 309 310 310 311 312 313 314 315
296 296 296 296 296 296 296 296 296 296 296 296 296 296 297 297 298 299 299 299 300 300 300 300 300 301 301 302 303 304 305 305 306 306 307 307 308 309 309 310 311 312
296 296 296 296 296 295 295 295 296 296 296 296 296 296 296 296 297 297 298 298 299 299 299 300 300 300 300 300 301 302 303 303 304 304 305 305 305 306 307 308 309 310
295 295 295 295 295 295 295 295 295 295 296 296 296 295 295 295 295 296 296 297 298 298 299 299 299 299 299 299 299 300 300 301 301 302 303 303 303 304 305 306 307 308
295 295 295 295 294 294 294 294 294 295 295 296 296 295 295 295 295 295 295 295 296 297 297 298 298 298 298 298 298 299 299 299 300 300 301 301 302 302 303 304 305 306

ECMWFNIL_850_thetae_102.txt.gz
Theta_e
324 324 324 324 323 322 321 320 320 321 321 321 321 321 321 320 320 320 321 321 322 323 323 323 323 323 323 324 324 325 325 325 325 325 326 326 327 327 327 327 327 327
320 321 321 321 320 320 320 320 320 321 321 320 320 320 320 320 320 320 320 320 320 321 321 322 322 322 322 322 323 323 323 324 323 324 324 325 326 326 326 326 326 326
319 319 319 319 319 319 320 320 320 320 319 319 319 319 319 319 319 319 319 319 319 319 319 320 320 320 320 320 320 320 321 322 322 322 323 324 325 326 326 325 325 325
318 318 319 319 319 319 318 318 318 317 317 317 317 317 316 316 317 317 317 317 317 318 318 318 318 318 318 319 318 318 319 320 320 321 321 323 324 324 324 324 323 324
317 318 317 317 317 316 315 315 315 315 315 315 315 315 315 315 315 315 316 316 316 317 316 317 316 316 316 316 317 316 316 317 318 318 319 321 322 323 323 323 323 323
316 315 315 315 314 314 314 314 314 314 314 314 314 314 314 315 315 315 315 316 315 315 315 315 315 315 314 315 315 315 315 315 316 316 317 318 320 321 322 322 322 322
314 314 313 313 313 313 313 313 313 313 313 313 313 314 314 314 314 314 314 315 315 315 315 315 315 315 315 315 315 315 316 316 315 315 315 315 316 318 320 321 321 322
313 313 313 312 313 312 312 313 313 313 313 313 313 313 313 313 313 313 314 314 314 314 314 314 314 314 314 314 315 315 316 316 317 317 316 316 316 317 318 320 321 322
313 312 312 312 312 312 312 312 312 312 312 312 312 312 312 312 312 312 312 312 312 312 312 312 312 312 313 313 313 314 314 315 316 317 317 317 317 317 318 319 320 321
312 312 312 312 311 311 312 311 311 311 311 311 311 311 311 311 311 311 311 311 311 311 311 311 311 311 311 311 311 312 313 313 314 315 316 317 318 318 318 319 319 320
311 311 311 311 311 311 311 311 311 310 310 310 310 310 310 310 310 310 310 310 310 310 310 310 310 310 310 310 311 311 311 312 312 314 315 316 317 317 318 318 319 319
310 310 310 309 309 309 309 309 309 309 309 309 309 308 308 308 308 308 308 308 308 308 308 308 308 308 309 309 310 310 311 311 312 313 314 315 316 316 317 318 319 319
308 308 308 308 307 308 308 308 307 307 307 307 306 306 306 306 306 306 306 306 306 306 307 307 307 307 308 308 309 309 310 310 311 312 313 313 314 315 315 316 317 318
307 306 306 306 306 306 306 306 306 305 305 305 304 304 304 304 304 304 304 305 305 305 306 306 306 307 307 307 308 308 309 310 311 311 311 312 312 313 313 314 315 316
305 304 304 304 304 304 304 304 304 303 303 303 302 302 302 302 302 303 303 303 304 304 304 305 306 306 305 306 306 307 308 309 310 310 310 311 311 312 313 314 315 316
303 302 302 302 302 302 302 302 301 301 301 301 301 301 301 301 301 301 302 302 302 303 303 304 304 305 304 304 305 306 307 308 309 309 310 311 311 312 313 313 314 316
301 300 301 301 301 301 300 300 300 300 300 300 300 300 300 300 300 300 301 301 301 302 302 302 303 303 303 304 305 305 306 306 308 308 309 310 310 311 311 312 313 314
300 300 300 300 300 300 299 299 299 299 299 299 299 299 299 299 300 300 300 300 301 301 301 301 302 302 302 303 304 304 305 305 306 307 307 308 308 309 309 310 311 312
299 299 299 299 299 299 299 298 298 299 299 298 298 298 298 298 299 299 299 299 300 300 300 300 300 300 301 301 302 303 304 304 305 305 305 306 306 307 307 308 309 310
298 298 298 298 298 298 298 298 298 298 298 298 298 298 298 298 298 298 298 298 298 299 299 299 299 299 299 300 300 301 302 303 303 304 304 304 305 305 306 306 307 308
297 297 297 297 297 297 297 297 298 297 297 297 297 297 297 297 297 297 297 297 298 298 298 298 298 298 298 298 299 299 300 301 301 302 302 302 303 303 304 305 305 306
297 297 297 296 296 297 297 297 297 297 297 296 296 296 296 296 296 296 296 296 296 297 297 297 297 297 297 297 297 298 298 299 300 300 300 301 301 302 302 303 303 304
296 296 296 296 296 296 296 296 296 296 296 296 296 296 296 296 295 296 296 296 296 296 296 296 296 296 296 296 296 296 297 298 298 299 299 299 300 300 301 301 302 302
295 295 295 295 295 295 295 295 295 296 296 295 295 295 295 295 295 295 295 295 295 295 295 295 295 295 295 296 296 296 296 297 297 298 298 299 299 299 300 300 301 301
295 295 295 295 294 294 294 294 295 295 295 295 295 295 295 295 295 295 295 295 295 295 295 295 295 295 295 295 295 296 296 296 296 297 298 298 298 299 299 300 300 301
294 294 294 294 294 294 294 294 294 295 295 295 295 295 295 295 295 295 295 295 295 295 295 295 295 295 295 295 295 295 296 296 296 296 297 298 298 298 298 299 299 300

ECMWFNIL_850_thetae_105.txt.gz
Theta_e
320 320 320 319 319 319 319 319 319 319 319 318 318 318 317 317 316 316 316 316 316 316 316 316 316 316 316 316 316 317 317 317 318 319 320 321 322 323 324 325 326 326
318 318 318 318 318 318 318 318 317 317 316 316 315 315 315 315 315 315 315 315 315 315 315 315 315 315 315 315 315 315 315 316 316 316 316 317 318 319 321 322 324 325
318 318 318 318 317 317 316 315 315 315 315 315 314 314 314 314 314 314 314 314 314 314 314 314 315 315 315 315 315 315 315 315 316 315 315 315 316 316 318 319 321 323
317 317 317 316 315 315 314 314 314 314 314 314 314 314 314 313 313 313 313 313 313 313 314 314 314 314 314 314 314 314 314 315 315 315 316 316 316 316 316 317 317 319
316 315 314 314 314 313 313 313 313 313 313 313 313 313 313 313 312 312 312 312 312 313 312 312 312 312 312 312 312 313 313 313 314 314 315 316 316 317 316 316 316 316
314 313 313 313 312 312 313 313 312 312 312 312 312 312 312 312 311 312 312 312 312 311 311 311 311 311 311 311 311 311 311 312 312 313 314 314 315 317 317 317 317 317
313 312 312 312 312 312 312 312 311 311 311 311 311 311 311 310 310 310 311 310 310 310 310 310 310 310 310 310 310 310 310 311 311 312 312 313 314 315 316 317 318 318
312 312 312 312 312 311 311 311 311 310 310 310 310 310 309 309 309 309 309 309 309 309 308 308 308 308 308 309 309 309 309 310 310 311 312 312 313 314 315 316 316 317
312 311 311 311 311 311 310 310 310 309 309 309 309 308 308 308 308 307 307 307 307 307 307 307 307 307 307 307 308 308 309 309 309 310 311 311 312 313 314 314 315 316
311 311 310 310 310 309 309 309 308 308 308 308 307 307 306 306 306 306 305 305 305 305 305 305 306 306 306 307 307 307 308 308 309 309 310 310 310 311 312 312 313 313
310 310 309 309 309 308 308 308 307 307 306 306 305 305 305 304 304 304 304 304 304 304 304 304 305 305 305 306 306 307 307 307 308 308 309 309 309 309 310 310 311 312
309 309 309 308 308 307 307 306 306 305 304 304 303 303 303 303 302 302 302 302 302 303 303 303 303 304 304 305 305 306 306 307 307 308 308 308 308 309 309 310 310 311
308 308 307 306 306 306 305 304 304 303 302 302 302 302 301 301 301 301 301 302 301 302 302 302 302 302 303 303 304 305 306 306 306 307 307 308 308 308 309 309 310 311
306 305 305 305 304 303 303 302 302 301 301 301 301 301 300 300 300 300 300 301 301 301 301 301 301 301 302 302 303 303 304 305 306 306 306 307 308 308 308 309 309 310
303 303 303 303 302 302 301 301 300 300 300 300 300 299 299 299 299 299 299 300 300 300 300 300 300 300 300 300 301 301 302 303 304 305 305 305 306 307 307 307 308 309
302 302 301 301 300 300 300 300 299 299 299 299 299 298 299 298 299 299 299 299 299 299 299 299 299 298 298 299 299 300 301 301 302 303 303 303 304 305 306 306 306 307
301 300 300 300 299 299 299 299 299 298 298 298 298 298 298 298 298 298 298 298 298 298 298 298 298 297 297 298 298 299 299 300 301 301 301 301 302 302 303 304 305 305
300 299 299 299 298 298 298 298 298 298 298 297 297 297 297 297 297 297 298 298 298 298 298 297 297 297 297 297 297 298 298 299 299 300 300 300 300 300 301 301 302 303
299 298 298 298 298 298 298 298 297 297 297 297 297 297 297 297 297 297 297 297 297 297 297 297 296 296 296 297 297 297 297 298 298 299 299 299 299 299 299 300 300 301
298 297 297 297 297 297 297 297 297 297 296 296 296 296 296 296 296 296 297 297 297 297 297 296 296 296 296 296 296 296 297 297 298 298 298 299 298 298 298 299 299 300
297 297 297 297 297 297 297 297 296 296 296 296 296 296 296 296 296 296 296 296 296 296 296 296 296 296 296 296 296 296 297 297 297 298 298 298 298 298 298 298 298 299
296 296 296 296 296 296 296 296 296 296 296 296 296 295 295 295 295 296 296 296 295 295 295 295 295 295 295 295 295 296 296 296 297 297 297 298 298 298 298 298 298 299
296 296 296 295 295 295 295 295 295 295 295 295 295 295 295 295 295 295 295 295 295 295 295 295 295 295 295 295 295 295 296 296 296 297 297 297 298 298 298 298 299 299
295 295 295 295 295 295 295 295 295 295 295 295 295 295 295 295 295 295 295 294 294 294 294 294 294 295 295 295 295 295 295 296 296 297 297 297 297 297 298 298 299 299
295 294 294 294 294 294 294 294 295 295 295 294 294 294 294 294 294 294 294 294 294 294 294 294 294 294 295 295 295 295 295 296 296 297 297 297 297 297 297 298 298 299
294 294 294 294 294 294 294 294 294 294 294 294 294 294 294 294 294 294 293 294 293 294 294 294 294 294 295 295 295 296 296 296 296 297 297 297 297 297 297 297 298 298

ECMWFNIL_850_thetae_108.txt.gz
Theta_e
320 320 319 319 318 318 317 317 316 315 315 315 315 315 314 314 313 314 314 314 314 313 314 313 313 314 313 313 314 313 314 314 314 315 315 316 316 316 316 317 318 318
318 318 318 317 317 316 315 315 314 314 314 314 314 314 313 313 313 313 313 313 313 312 312 312 312 312 312 312 312 312 312 312 313 313 314 314 315 315 316 316 316 316
317 316 316 315 314 314 314 314 313 313 313 313 313 313 312 312 312 312 312 312 312 311 311 311 311 311 311 311 311 311 311 311 312 312 312 313 314 314 315 316 316 317
315 315 314 314 314 313 313 313 313 312 312 312 312 312 311 311 311 311 311 311 310 310 310 309 309 309 309 309 309 310 310 310 310 311 311 312 312 313 314 315 316 317
314 313 313 313 313 312 312 312 312 311 311 311 311 310 310 310 310 310 310 309 309 308 308 308 308 308 308 308 308 308 309 309 309 309 310 311 311 312 313 314 314 315
313 312 312 312 312 311 311 311 311 310 310 310 310 309 309 309 309 308 308 307 307 306 306 306 306 306 306 306 306 307 307 307 308 308 308 309 310 311 312 312 312 313
312 312 312 311 311 311 310 310 310 309 309 309 308 308 308 307 307 307 306 305 305 305 304 304 304 304 304 305 305 305 306 306 307 307 308 308 310 310 310 311 311 312
311 311 311 311 310 310 309 309 308 308 308 307 307 307 306 305 305 304 304 304 303 303 303 303 303 303 303 304 304 304 305 305 306 306 307 308 309 310 310 310 310 311
310 310 310 309 309 308 308 307 307 307 306 306 305 305 304 304 303 303 302 302 302 302 302 302 302 302 302 303 303 303 304 305 305 306 307 308 309 309 309 309 310 310
309 308 308 307 307 307 307 306 305 305 304 304 303 303 302 302 302 302 301 301 301 301 301 301 301 301 301 301 302 302 304 305 305 306 307 307 308 308 308 308 308 309
307 306 306 306 306 305 304 304 303 303 303 302 302 302 301 301 301 300 300 300 300 300 300 300 300 300 300 301 301 301 303 304 305 306 306 307 307 307 307 307 307 307
305 305 304 304 304 303 303 303 302 302 301 301 301 300 300 300 300 300 299 299 299 299 299 299 299 299 299 299 300 300 301 303 304 305 305 305 306 306 306 306 306 306
304 304 303 302 302 302 301 301 301 300 300 300 299 299 299 299 299 299 299 299 298 298 298 298 298 298 298 299 299 299 301 302 303 304 304 304 304 304 304 305 304 304
303 302 302 301 301 301 300 300 300 299 299 299 299 298 298 298 298 298 298 298 298 298 298 298 298 298 298 298 298 298 300 302 303 303 303 303 303 303 303 303 303 303
302 301 301 300 300 300 299 299 299 299 298 298 298 298 297 298 298 298 298 298 297 297 297 297 297 297 297 297 298 298 299 301 302 302 302 302 302 302 302 302 302 302
301 300 300 300 299 299 298 298 298 298 297 297 297 297 297 297 297 297 297 297 297 297 297 297 296 297 297 297 297 297 298 301 301 301 301 301 301 301 301 301 301 300
299 299 299 299 298 298 298 298 297 297 297 297 297 297 297 297 297 297 297 296 296 296 296 296 296 296 296 296 297 297 297 300 301 301 301 301 300 300 300 300 300 300
299 299 298 298 298 297 297 297 297 296 296 296 296 296 296 296 296 296 296 296 296 296 295 295 295 296 296 296 297 296 297 299 300 301 300 300 300 300 300 300 299 299
298 298 298 298 297 297 296 296 296 296 296 296 296 296 296 296 296 296 295 295 295 295 295 295 295 295 296 296 296 296 296 299 300 300 300 299 299 300 300 299 299 299
298 298 298 297 297 296 296 296 296 295 295 295 295 295 295 295 295 295 295 295 295 295 295 295 295 295 295 295 296 296 297 299 300 300 299 299 299 299 299 299 299 298
297 297 297 297 296 296 296 295 295 295 295 295 295 295 295 295 295 295 294 294 294 294 294 295 295 295 295 295 296 296 297 299 300 300 299 299 299 299 299 298 298 298
297 297 296 296 296 295 295 295 295 295 295 294 294 295 294 294 294 294 294 294 294 294 295 295 294 295 295 295 296 296 297 299 299 299 299 299 299 298 299 298 298 297
296 296 296 295 295 295 295 295 295 294 294 294 294 294 294 294 294 294 294 294 294 294 295 295 295 295 295 295 295 296 297 298 299 299 299 299 299 298 298 298 298 297
295 295 295 295 295 295 294 294 294 294 294 294 294 294 294 294 294 294 294 294 294 294 295 295 295 295 295 295 295 295 296 297 298 299 299 299 299 299 298 298 298 298
295 294 294 295 295 294 294 294 294 294 294 293 294 294 294 294 294 294 293 294 294 294 294 295 295 295 295 295 295 295 296 297 298 298 299 298 298 298 298 298 298 298
294 294 294 294 294 294 294 294 294 293 293 293 293 294 294 294 293 293 294 294 294 294 294 294 295 295 295 295 295 296 296 296 297 298 298 298 298 298 298 298 298 297

ECMWFNIL_850_thetae_111.txt.gz
Theta_e
322 322 322 321 321 321 321 320 320 319 319 319 318 318 316 314 313 312 312 312 311 311 311 311 311 310 310 311 311 310 311 311 311 311 311 312 312 313 314 315 316 317
321 321 320 320 319 318 318 317 317 317 317 316 316 315 313 313 312 311 311 310 310 310 310 309 309 309 309 309 309 309 309 310 310 309 310 312 312 313 313 314 314 315
320 319 319 318 317 316 316 315 314 314 314 313 313 312 312 311 310 310 310 309 309 308 308 308 307 307 307 307 307 307 307 310 310 307 309 312 313 313 313 313 314 314
318 318 317 316 316 315 315 314 314 314 312 312 311 310 310 309 309 309 308 307 307 306 306 306 305 305 305 305 305 304 305 308 308 306 309 311 312 312 312 313 313 313
317 317 315 314 314 314 314 313 313 313 312 310 309 309 308 308 307 307 306 305 305 304 304 304 303 303 303 303 303 303 304 305 306 308 309 310 311 311 312 312 312 312
315 315 314 314 313 313 312 311 311 311 310 308 308 307 307 306 305 304 304 303 303 303 302 302 302 302 302 302 302 302 304 305 307 308 309 310 310 311 311 311 311 312
314 314 313 313 313 311 310 309 309 308 307 307 306 305 305 304 303 303 302 302 302 302 301 301 301 301 300 301 301 303 305 305 307 308 308 309 310 310 310 310 310 311
313 313 313 312 311 309 308 307 307 306 305 305 304 304 303 302 302 302 301 301 301 300 300 300 300 300 299 299 301 304 306 306 307 308 308 309 309 309 309 309 309 309
312 312 312 311 309 306 306 305 305 305 304 303 302 302 302 301 301 301 300 300 300 299 299 299 299 299 299 299 300 303 306 307 307 308 308 308 308 308 308 308 308 308
311 312 311 309 306 305 305 304 303 303 302 302 301 300 300 300 301 300 299 299 299 298 298 298 298 298 298 298 298 302 305 306 307 307 307 307 307 307 307 307 307 307
311 311 309 306 304 304 303 302 302 301 301 300 300 299 299 299 300 300 300 298 298 298 297 297 297 297 297 297 297 301 304 305 306 307 306 306 306 306 306 306 305 305
310 308 304 303 303 303 302 301 301 300 300 300 300 299 298 299 299 299 299 298 297 297 296 296 297 296 297 297 296 301 304 305 305 306 305 305 305 305 305 305 304 304
308 305 303 302 302 301 301 300 299 299 298 300 300 300 300 301 300 299 299 297 296 296 296 296 296 296 296 297 296 301 304 305 305 305 305 305 304 304 304 304 303 303
305 303 303 302 301 300 300 299 299 298 297 298 298 299 301 302 302 301 300 298 296 296 296 295 296 296 296 296 296 299 303 305 304 304 304 304 303 303 303 303 302 302
303 302 302 301 300 300 299 298 298 297 297 298 298 299 300 302 302 302 301 298 296 295 296 295 296 296 296 296 296 297 301 303 304 303 303 303 302 302 302 302 301 301
303 302 301 301 300 299 298 298 297 296 298 299 299 298 299 300 300 301 301 299 296 295 295 295 295 296 296 296 297 298 301 303 303 303 302 302 302 302 302 301 301 300
304 303 302 300 299 299 299 298 297 297 298 298 297 297 297 298 298 300 301 299 296 294 295 295 295 296 296 296 297 298 301 302 303 302 302 302 301 301 301 300 300 299
304 303 302 301 300 300 300 299 298 298 297 297 297 296 295 296 298 300 301 299 296 294 295 295 295 296 296 296 297 299 301 302 302 302 302 301 301 301 300 300 299 299
304 304 303 302 301 301 300 300 299 297 297 297 296 295 295 296 297 298 300 299 297 295 295 295 295 296 296 296 297 299 301 302 302 302 301 301 301 300 300 300 299 299
303 303 303 302 301 300 299 298 297 296 296 296 295 296 297 297 296 296 298 299 297 294 294 295 295 295 296 296 297 299 301 301 302 302 301 301 301 300 300 300 299 298
303 302 302 301 300 298 298 297 296 296 296 296 296 297 298 297 295 295 296 297 296 294 294 295 295 295 295 296 297 299 301 302 302 301 301 301 301 300 300 300 298 297
303 302 302 301 298 297 297 296 295 296 296 296 296 297 297 296 295 294 295 296 295 294 294 294 295 295 295 296 296 299 301 302 302 301 301 301 301 300 300 299 298 297
301 301 301 300 297 295 296 296 296 296 297 297 297 298 299 298 296 294 294 294 295 294 294 294 295 295 295 296 296 297 300 301 302 301 301 301 301 300 300 300 298 297
299 298 298 298 296 295 296 295 295 296 297 297 298 300 301 300 298 296 294 293 294 294 294 294 294 295 295 295 296 296 298 301 302 301 301 301 301 301 300 300 299 298
296 296 297 297 296 295 295 295 295 296 298 299 300 301 301 301 300 299 298 295 294 293 294 294 294 294 294 295 296 296 297 299 300 301 301 301 300 300 300 300 299 298
295 296 297 297 295 295 295 295 295 297 299 301 302 301 301 300 299 300 300 298 296 294 294 294 294 294 294 295 296 296 296 297 298 298 300 301 300 300 299 299 298 298

ECMWFNIL_850_thetae_114.txt.gz
Theta_e
327 327 327 326 324 323 321 320 319 319 319 318 316 314 313 312 312 311 310 310 310 309 309 309 308 308 308 307 307 307 307 307 308 307 308 311 312 313 313 312 312 312
323 323 323 322 321 320 319 318 318 317 317 316 314 312 311 310 310 309 309 309 308 307 307 306 306 306 305 305 304 304 305 305 305 306 309 311 312 312 312 312 312 312
320 320 320 319 319 318 316 316 316 315 314 313 311 310 309 309 309 308 307 307 306 305 305 304 304 303 303 303 302 302 303 304 304 307 310 311 311 311 312 312 312 312
319 318 318 318 318 317 316 315 315 313 312 311 309 309 308 307 307 306 305 304 304 303 303 302 302 301 302 301 301 301 302 303 304 307 309 310 310 311 311 311 311 311
317 317 316 316 317 316 315 315 314 312 311 310 308 308 307 306 305 304 304 302 302 302 301 301 300 300 301 300 301 303 303 303 306 308 309 310 310 310 310 310 310 309
316 316 315 315 315 314 314 314 312 310 309 307 307 306 305 304 304 303 302 301 301 300 300 300 299 299 300 299 302 305 305 306 308 309 309 309 309 309 309 308 308 308
315 315 315 314 313 312 312 311 309 308 307 306 305 304 304 303 302 301 300 300 300 299 299 299 298 298 299 298 302 306 307 307 308 308 308 308 308 308 308 307 307 307
315 314 313 312 312 311 309 308 307 306 306 304 303 303 303 302 300 299 299 298 299 298 298 298 297 298 298 297 301 305 307 307 307 307 307 307 306 306 306 305 305 305
314 313 311 310 310 308 307 306 305 304 304 303 302 301 301 300 299 298 298 298 298 297 297 297 297 297 297 297 301 304 305 306 306 306 306 306 305 304 304 303 303 303
313 312 310 308 307 306 306 306 304 303 302 302 301 300 300 299 298 298 297 297 297 296 296 297 296 297 297 297 302 304 304 304 305 306 305 304 304 304 303 303 302 302
312 311 308 306 305 305 305 305 302 301 301 300 300 300 300 298 297 297 297 296 296 296 296 296 296 297 296 297 302 304 304 303 304 304 303 303 303 303 302 302 302 302
311 308 305 304 304 304 304 302 301 300 300 300 299 298 298 297 296 296 296 295 296 296 296 296 296 296 296 297 300 303 304 304 303 302 302 303 303 302 300 301 300 301
309 305 304 303 303 303 302 301 302 302 301 302 302 301 300 298 295 295 296 295 296 296 296 296 296 296 296 297 300 301 303 304 303 302 302 302 302 300 299 299 299 300
306 304 304 303 303 302 301 301 301 302 302 303 304 303 302 300 296 295 295 295 295 295 296 296 296 296 296 298 300 301 303 304 303 301 301 301 300 299 298 299 299 299
305 304 304 303 302 301 300 300 299 299 300 301 302 303 304 301 297 295 295 295 295 295 296 296 296 296 297 298 300 301 302 303 303 301 300 300 299 298 298 298 298 299
304 304 303 302 301 300 299 299 298 299 299 300 301 302 303 301 297 295 295 295 295 295 296 296 296 296 297 298 300 301 302 303 302 301 300 300 299 298 298 298 298 298
303 303 301 300 300 299 299 298 298 299 298 298 299 299 300 301 298 295 294 295 295 295 295 295 296 296 297 298 300 301 302 302 302 301 301 300 299 299 298 298 298 299
303 302 300 300 301 299 298 298 299 298 298 298 298 298 300 302 301 297 295 295 295 295 295 295 296 297 298 298 299 301 302 302 301 301 301 301 300 300 298 297 298 299
305 303 303 303 302 300 299 299 298 297 296 296 297 298 298 301 301 298 295 294 295 295 295 295 296 297 298 298 299 300 302 302 302 302 301 301 301 300 299 297 298 299
306 305 305 304 303 302 302 300 297 296 296 296 296 297 297 299 300 297 294 294 295 295 295 295 296 297 298 299 300 301 302 302 302 302 302 301 301 300 299 298 298 299
305 305 304 304 303 302 301 299 298 298 297 298 298 297 296 297 298 297 295 294 295 295 295 295 295 296 297 299 301 302 302 302 302 302 302 301 301 300 299 298 298 299
304 303 303 303 302 300 298 298 299 299 298 297 297 296 296 296 296 296 295 294 294 295 295 295 295 296 297 298 300 302 302 302 302 301 301 301 301 300 299 299 298 298
304 303 302 302 300 298 296 297 298 299 297 295 295 295 295 294 295 295 295 294 294 294 294 295 295 295 296 297 299 300 301 302 302 302 301 301 300 300 299 299 298 298
303 301 300 299 298 296 295 296 298 300 299 299 299 298 296 294 294 294 294 294 294 294 294 295 295 295 295 296 296 297 298 299 300 301 301 300 300 299 299 298 298 297
302 299 297 296 296 295 295 296 298 300 301 301 302 302 300 297 295 294 294 294 294 294 294 294 294 295 295 295 296 296 296 296 297 298 300 300 300 299 298 297 297 296
298 296 295 295 295 295 295 296 298 300 301 302 303 302 301 299 297 296 295 294 294 294 294 294 294 294 294 295 295 295 295 296 296 297 298 299 300 299 298 296 295 295

ECMWFNIL_850_thetae_117.txt.gz
Theta_e
332 331 330 329 329 330 329 328 326 322 320 318 315 313 312 311 311 311 310 310 309 309 308 307 307 306 305 304 303 303 303 303 303 305 307 308 309 310 311 310 310 310
330 330 329 330 330 328 328 327 323 319 318 315 313 312 311 310 310 309 309 308 308 307 306 305 304 303 302 302 301 302 302 303 304 305 306 307 308 309 309 309 309 308
329 329 329 329 329 328 328 325 318 315 314 313 312 311 310 309 308 308 308 307 306 305 303 302 301 301 301 301 301 301 302 304 306 308 307 308 308 307 306 307 307 305
328 328 328 328 328 327 324 319 314 313 313 311 310 309 308 308 307 307 306 305 303 302 301 300 300 301 301 301 302 302 304 306 307 308 307 307 307 306 304 304 303 302
326 325 325 325 323 321 317 314 313 312 311 309 309 308 307 307 306 305 304 302 301 301 300 300 299 300 301 302 302 303 305 306 307 307 306 305 304 303 302 301 300 300
322 321 321 320 317 315 314 313 312 310 309 308 307 307 306 306 304 303 302 301 300 299 299 299 299 300 301 303 303 304 305 305 305 304 302 301 301 300 299 300 299 300
319 319 319 317 315 314 313 312 309 308 307 307 306 306 305 304 303 301 300 300 299 299 298 298 298 299 302 303 303 303 303 303 302 300 299 299 299 299 299 299 299 300
317 317 316 315 314 314 312 309 307 307 306 305 305 304 303 302 301 300 299 299 298 298 298 297 298 299 301 302 302 302 302 301 299 298 298 298 298 299 299 299 299 300
316 315 314 313 313 311 309 307 306 306 305 305 304 303 301 300 299 299 298 298 297 297 297 297 298 299 300 300 300 301 301 300 299 298 298 298 299 299 299 299 299 300
314 314 313 311 310 308 307 306 305 305 304 303 302 300 299 299 298 298 297 297 297 297 296 297 298 300 301 300 300 299 299 298 298 298 298 298 298 299 299 299 300 300
313 312 311 309 307 307 307 305 304 303 302 301 300 299 298 298 298 297 297 297 296 296 296 297 299 301 301 300 299 298 298 298 298 298 298 298 298 299 299 300 300 300
311 309 308 307 307 308 306 304 303 302 301 300 299 298 297 297 297 296 296 296 296 296 296 296 299 301 301 300 299 298 298 298 297 297 297 298 298 299 299 300 299 299
309 308 307 307 307 306 305 303 301 300 299 298 297 297 296 296 296 296 296 296 296 296 296 297 299 300 300 300 299 298 297 297 297 297 297 298 298 299 299 299 299 299
308 307 307 306 306 304 302 301 300 299 299 298 297 296 296 296 296 296 296 296 296 296 296 297 299 300 300 300 299 298 297 297 297 297 297 297 298 299 300 299 299 299
307 306 305 305 304 303 302 301 300 300 301 299 297 295 296 296 295 295 296 296 296 296 297 298 299 300 300 300 299 298 297 297 297 297 297 297 298 299 299 299 299 299
306 305 304 304 303 302 302 302 301 301 301 300 298 295 295 295 295 295 295 295 296 296 297 298 299 300 299 299 299 298 298 298 298 298 298 298 297 298 299 299 299 299
305 304 304 303 302 302 301 302 302 301 301 300 298 295 295 295 295 295 295 295 296 296 297 298 299 300 300 299 300 300 299 300 300 299 299 298 297 298 299 299 299 299
304 303 303 302 301 301 300 300 301 301 300 300 298 296 295 295 295 295 295 295 295 296 297 298 299 300 300 301 301 301 301 301 300 299 299 298 297 297 298 299 299 299
303 302 301 301 301 300 300 300 300 300 299 299 298 296 295 295 295 295 295 295 295 296 297 298 299 300 301 301 301 302 302 302 301 299 297 297 297 297 297 298 299 299
302 301 301 301 301 300 299 299 298 298 297 297 297 296 295 294 295 295 295 295 295 296 297 298 299 300 301 301 301 301 301 302 301 299 297 297 297 296 297 297 297 298
302 301 301 301 300 299 298 297 296 296 296 296 296 295 295 295 295 295 295 295 295 296 297 298 300 301 301 301 301 301 301 301 301 299 298 298 297 296 296 296 296 297
303 301 301 300 299 298 297 296 295 295 295 295 295 295 295 295 294 295 295 295 295 296 296 297 299 300 301 301 301 301 299 299 299 299 299 299 298 296 296 296 296 296
303 301 300 300 299 297 296 295 295 295 295 295 295 295 295 295 295 294 295 295 295 295 295 296 297 298 298 299 299 299 298 297 297 298 298 298 297 296 295 295 295 295
302 301 300 300 298 296 295 295 295 295 295 295 295 295 295 294 294 294 294 294 294 295 295 295 295 296 296 296 297 297 296 296 296 296 297 297 297 295 295 295 295 295
302 300 300 298 297 295 295 295 294 294 295 294 294 294 294 294 294 294 294 294 294 294 294 295 295 295 295 295 295 295 295 295 296 295 295 295 295 295 294 294 294 294
301 300 299 297 296 295 295 295 295 295 295 294 294 294 294 294 294 294 294 294 294 294 294 294 294 294 294 295 295 295 295 295 295 295 294 294 294 294 294 294 294 294

ECMWFNIL_850_thetae_120.txt.gz
Theta_e
333 332 332 331 331 330 330 329 328 327 325 320 315 315 314 313 312 312 311 311 310 310 309 307 305 304 303 303 302 302 302 302 303 304 305 305 304 304 303 302 300 299
332 332 331 331 331 329 329 329 327 327 323 316 313 313 312 312 311 311 310 310 309 308 306 304 303 302 302 302 302 302 303 303 303 304 304 303 302 300 299 299 298 299
332 332 331 330 330 329 329 328 327 326 321 314 312 312 312 311 311 310 309 308 307 305 304 302 302 301 301 302 302 302 303 304 305 305 303 300 299 298 298 299 299 299
331 331 330 329 329 329 328 328 327 323 317 312 311 311 311 310 310 309 308 306 304 303 301 301 301 301 301 302 302 303 304 305 305 303 300 298 298 298 299 299 299 299
330 329 329 328 329 328 328 328 324 317 313 311 311 311 310 310 309 307 305 303 302 300 300 300 300 301 301 302 302 303 304 303 302 300 298 298 299 299 299 299 299 299
328 327 327 327 327 327 328 326 319 312 311 311 311 311 310 309 307 305 303 301 300 299 299 299 300 301 301 302 302 302 301 299 298 298 298 298 299 299 299 299 299 300
326 326 325 326 326 327 326 321 314 311 311 310 311 310 309 307 305 303 301 300 299 299 298 299 300 300 301 302 301 299 298 297 298 298 298 298 299 299 299 299 300 300
324 323 323 323 324 323 320 315 311 310 310 310 310 309 307 305 302 301 299 299 298 298 298 299 300 300 301 300 299 298 297 298 298 298 298 298 299 299 299 300 300 300
322 321 321 320 319 317 314 312 310 309 309 308 308 307 305 302 300 299 299 298 298 297 298 298 299 300 300 299 298 298 298 298 298 298 298 298 299 299 299 299 299 299
320 320 319 317 315 312 311 310 309 308 308 307 306 304 302 300 299 298 298 297 297 297 297 298 299 299 299 298 298 298 298 298 298 298 298 299 299 299 299 299 299 298
318 318 317 315 313 310 309 309 308 307 306 305 304 302 300 299 298 297 297 297 297 297 297 298 300 299 298 297 298 298 298 298 298 298 299 299 299 299 299 298 298 298
316 316 315 313 311 309 308 307 306 306 305 303 301 300 299 298 297 297 296 296 296 297 297 299 299 298 297 297 297 297 297 298 298 299 299 299 299 299 299 298 298 298
315 314 312 310 309 307 307 306 305 304 303 301 299 298 298 297 297 296 296 296 296 297 298 299 299 298 297 297 297 297 297 298 298 299 299 299 299 299 299 298 298 298
313 311 310 309 308 307 306 305 304 303 301 299 298 297 297 296 296 296 296 296 296 297 298 299 299 298 297 297 297 297 297 297 298 298 298 299 299 299 299 298 298 298
312 310 309 309 308 307 306 305 303 301 299 298 297 296 296 296 296 296 296 296 296 297 298 299 299 298 297 297 297 296 296 297 297 298 298 298 299 299 298 298 298 298
311 310 310 310 309 307 306 304 302 300 298 296 296 296 296 296 296 296 296 296 296 297 298 299 298 298 297 297 297 297 297 297 297 297 297 298 298 298 298 298 298 298
310 310 309 308 307 305 304 302 301 300 298 296 296 296 296 296 296 296 296 296 297 297 298 298 298 297 297 297 297 297 297 297 296 296 297 297 297 298 297 297 297 297
310 309 308 307 306 304 303 302 302 300 298 296 295 296 296 296 296 296 296 296 297 298 298 298 298 298 298 298 298 297 297 296 296 296 296 296 297 297 297 297 296 296
309 308 307 307 306 305 304 303 302 300 298 296 295 296 296 296 296 296 296 296 297 298 298 298 299 300 300 300 299 299 298 297 296 296 296 296 296 296 296 296 296 296
308 308 307 307 306 305 304 303 302 300 298 296 295 296 295 296 296 296 296 297 297 298 298 299 300 300 300 300 300 300 299 297 296 296 295 295 296 296 295 295 295 295
308 307 307 306 306 305 304 302 301 299 297 295 295 295 295 296 296 296 296 297 297 298 299 299 300 300 300 300 299 299 299 297 296 295 295 295 295 295 295 295 295 295
307 306 305 304 303 302 302 301 300 298 296 295 295 295 295 295 295 296 296 297 297 298 299 299 300 300 300 299 299 298 297 296 295 295 295 295 295 295 295 295 295 295
305 304 303 302 301 301 300 299 298 297 296 295 295 295 295 295 295 295 296 296 297 298 298 298 299 299 300 299 299 297 296 295 295 295 294 294 294 294 294 295 295 295
304 303 302 301 300 299 299 298 297 296 295 295 295 295 295 295 295 295 295 295 296 297 297 297 297 298 299 299 298 297 296 295 295 295 294 294 294 294 294 294 294 294
303 302 301 300 299 298 297 296 295 295 295 295 294 295 295 294 295 295 295 295 295 295 295 295 296 296 297 297 297 296 295 295 295 294 294 294 294 294 294 293 294 294
303 302 301 299 298 297 296 295 295 295 295 294 294 294 294 294 294 295 294 295 295 294 295 295 295 295 295 295 295 295 295 294 294 294 294 294 294 293 293 293 293 293